[[[{"header":{"parameterUnit":"kt","parameterCategory":2,"dx":1,"dy":1,"la1":29.285339999999998,"la2":30.599998999999997,"lo1":-89.70041500000002,"lo2":-87.6738589999976,"nx":112,"ny":82,"refTime":"2022-10-27T06:00:00:Z","depth":0,"parameterNumber":1,"parameterNumberName":"U-component_of_WINDS"},"data":[4.8764,5.9116,7.187,6.6839,5.7763,4.9816,4.8932,4.2441,3.6185,3.4442,3.1439,2.9212,2.9286,2.5293,2.2387,2.3456,2.1532,1.9711,0.0,2.0216,2.1604,2.3194,2.7045,3.2715,4.0807,4.1203,4.367,5.0213,5.126,5.3803,5.8827,6.214,6.6664,7.2796,7.4591,7.6273,7.7881,7.8442,7.8704,7.8741,8.2143,8.3788,8.3901,8.7153,8.8612,8.8612,8.8612,8.8612,8.8612,8.8612,8.8612,8.8612,8.8612,8.8612,8.8612,8.8612,8.8612,8.8612,8.8612,8.8612,8.8612,8.8612,8.8612,8.8612,8.8612,8.8612,8.8612,8.8612,8.8612,8.8612,8.8612,8.8612,8.8612,8.8612,8.8612,8.8799,8.9397,9.0406,9.2014,9.4968,9.5528,9.6164,9.8183,9.8557,9.8557,9.8557,9.8557,9.8557,9.8557,9.8557,9.8557,9.8557,9.8557,9.8557,9.8557,9.8557,9.8557,9.8557,9.8557,9.8557,9.8557,9.8557,9.8557,9.8557,9.8557,9.8557,9.8557,9.6164,9.5005,9.5005,9.5005,9.5005,4.0799,4.8197,6.032,6.4651,5.3101,4.0847,4.1595,3.4698,2.7689,2.614,2.5004,2.4314,2.4387,2.2663,2.1555,2.275,2.1705,2.0594,0.0,2.1689,2.3906,2.6624,3.1917,3.8398,4.6118,4.883,5.1746,5.5597,5.7429,5.9299,6.1505,6.4683,6.8758,7.3693,7.5525,7.7133,7.8704,7.8704,7.9003,7.9601,8.2442,8.405,8.4648,8.7378,8.8612,8.8612,8.8612,8.8612,8.8612,8.8612,8.8612,8.8612,8.8612,8.8612,8.8612,8.8612,8.8612,8.8612,8.8612,8.8612,8.8612,8.8612,8.8612,8.8612,8.8612,8.8612,8.8612,8.8612,8.8612,8.8612,8.8612,8.8612,8.8612,8.8612,8.8612,8.8799,8.9359,9.0518,9.1977,9.3771,9.4407,9.4781,9.5117,9.5192,9.594,9.822,9.8557,9.8557,9.8557,9.8557,9.8557,9.8557,9.8557,9.8557,9.8557,9.8557,9.8557,9.8557,9.8557,9.8557,9.8557,9.8557,9.8557,9.8557,9.8557,9.8557,9.8557,9.8557,9.8557,9.8557,9.8557,9.8557,3.8612,3.2647,3.371,5.8125,4.6056,2.9767,3.5848,3.0127,2.3109,2.1474,2.1105,2.1102,2.1116,2.1193,2.1245,2.1407,2.297,0.0,0.0,2.3732,2.6855,3.208,4.1256,4.724,4.7465,5.8798,6.4271,5.9673,6.3711,6.6403,6.6477,6.6627,6.8908,7.3806,7.56,7.7171,7.8704,7.8704,7.9563,8.1283,8.2966,8.4611,8.6181,8.7864,8.8612,8.8612,8.8612,8.8612,8.8612,8.8612,8.8612,8.8612,8.8612,8.8612,8.8612,8.8612,8.8612,8.8612,8.8612,8.8612,8.8612,8.8612,8.8612,8.8612,8.8612,8.8612,8.8612,8.8612,8.8612,8.8612,8.8612,8.8612,8.8612,8.8612,8.8612,8.906,9.0743,9.149,9.1827,9.1827,9.265,9.235,8.9172,8.8799,9.1117,9.7585,9.8557,9.8557,9.8557,9.8557,9.8557,9.8557,9.8557,9.8557,9.8557,9.8557,9.8557,9.8557,9.8557,9.8557,9.8557,9.8557,9.8557,9.8557,9.8557,9.8445,9.822,9.822,9.822,9.822,9.8445,9.8557,3.1964,2.6164,2.3075,2.9965,2.9929,2.8637,3.0347,2.7568,2.367,2.0203,1.9503,0.0,0.0,0.0,2.2096,2.2348,0.0,2.5946,2.555,2.8124,3.4099,4.5016,5.0811,5.5805,6.063,6.0009,6.0719,6.4197,6.4571,6.5169,6.6403,6.988,7.302,7.56,7.7245,7.8292,7.8704,7.8704,7.9563,8.1283,8.2966,8.4611,8.6181,8.7864,8.8612,8.8612,8.8612,8.8612,8.8612,8.8612,8.8612,8.8612,8.8612,8.8612,8.8612,8.8612,8.8612,8.8612,8.8612,8.8612,8.8612,8.8612,8.8612,8.8612,8.8612,8.8612,8.8612,8.8612,8.8612,8.8612,8.8612,8.8612,8.8612,8.8612,8.8612,8.8761,8.921,8.9434,8.9546,8.9546,8.9771,8.9696,8.8799,9.2612,9.6426,9.8258,9.8557,9.8557,9.8557,9.8557,9.8557,9.8557,9.8557,9.8557,9.8557,9.8557,9.8557,9.8557,9.8557,9.8557,9.8557,9.8557,9.8557,9.8557,9.8557,9.6164,9.1341,9.1341,9.1341,9.1453,9.6276,9.8557,2.7858,2.3077,1.9062,1.917,2.1767,2.4284,2.4275,2.4121,2.3227,2.0822,0.0,0.0,0.0,0.0,0.0,0.0,2.9699,3.2813,3.22,3.6859,4.2885,4.9839,5.2943,5.7392,6.472,6.5655,6.659,6.8384,6.9543,6.9955,6.9618,7.2983,7.5376,7.6348,7.7881,7.8704,7.8704,7.8704,7.9937,8.233,8.3302,8.4947,8.7191,8.8163,8.8612,8.8612,8.8612,8.8612,8.8612,8.8612,8.8612,8.8612,8.8612,8.8612,8.8612,8.8612,8.8612,8.8612,8.8612,8.8612,8.8612,8.8612,8.8612,8.8612,8.8612,8.8612,8.8612,8.8612,8.8612,8.8612,8.8612,8.8612,8.8612,8.8612,8.8612,8.8612,8.8612,8.8612,8.8612,8.8612,8.8612,8.9509,9.2313,9.5977,9.8557,9.8557,9.8557,9.8557,9.8557,9.8557,9.8557,9.8557,9.8557,9.8557,9.8557,9.8557,9.8557,9.8557,9.8557,9.8557,9.8557,9.8557,9.8557,9.8557,9.8557,9.665,9.2799,9.2799,9.2799,9.2874,9.6762,9.8557,2.5419,2.2126,1.932,1.9543,1.9279,1.8929,1.8956,0.0,2.2212,2.3023,0.0,2.5928,2.8707,0.0,0.0,2.9914,3.6842,4.1797,4.0722,4.8306,5.3391,5.1876,5.3204,5.7018,6.4122,7.2721,7.6049,7.1674,7.5563,7.6984,7.4292,7.5563,7.646,7.6647,7.7993,7.8704,7.8704,7.8704,8.0423,8.3788,8.3788,8.5471,8.8612,8.8612,8.8612,8.8612,8.8612,8.8612,8.8612,8.8612,8.8612,8.8612,8.8612,8.8612,8.8612,8.8612,8.8612,8.8612,8.8612,8.8612,8.8612,8.8612,8.8612,8.8612,8.8612,8.8612,8.8612,8.8612,8.8612,8.8612,8.8612,8.8612,8.8612,8.8612,8.8612,8.8612,8.8612,8.8612,8.8612,8.8612,8.921,9.1603,9.751,9.7921,9.766,9.8407,9.8557,9.8557,9.8557,9.8557,9.8557,9.8557,9.8557,9.8557,9.8557,9.8557,9.8557,9.8557,9.8557,9.8557,9.8557,9.8557,9.8557,9.8557,9.8557,9.8557,9.8557,9.8557,9.8557,9.8557,9.8557,9.8557,2.2744,2.0862,1.9427,1.9451,1.9464,1.9476,0.0,0.0,0.0,2.7031,2.9597,3.0558,2.9653,3.2372,3.4754,3.4807,4.1029,4.6195,4.7166,5.9,6.7449,6.7113,6.8571,6.9693,6.9917,7.1674,7.2385,7.1413,7.3506,7.5114,7.5862,7.6198,7.6984,7.8217,7.8554,7.8704,7.8704,7.8704,8.0423,8.3788,8.3788,8.5471,8.8612,8.8612,8.8612,8.8612,8.8612,8.8612,8.8612,8.8612,8.8612,8.8612,8.8612,8.8612,8.8612,8.8612,8.8612,8.8612,8.8612,8.8612,8.8612,8.8612,8.8612,8.8612,8.8612,8.8612,8.8612,8.8612,8.8612,8.8612,8.8612,8.8612,8.8612,8.8612,8.8612,8.8612,8.8612,8.8612,8.8612,8.8612,9.2949,9.7024,9.8333,9.407,9.235,9.7734,9.8557,9.8557,9.8557,9.8557,9.8557,9.8557,9.8557,9.8557,9.8557,9.8557,9.8557,9.8557,9.8557,9.8557,9.8557,9.8557,9.8557,9.8557,9.8557,9.8557,9.8557,9.8557,9.8557,9.8557,9.8557,9.8557,2.0938,2.0019,1.9793,2.0925,2.0393,0.0,0.0,2.4514,2.6635,3.4531,3.78,3.9751,4.1591,4.2335,4.1609,3.8344,4.772,5.5971,5.7616,6.4234,6.8571,6.7749,6.8384,6.9244,7.0104,7.0889,7.1338,7.1338,7.3693,7.5488,7.6348,7.7133,7.7918,7.8704,7.8704,7.8704,7.8704,7.9563,8.1283,8.3788,8.4574,8.6256,8.8612,8.8612,8.8612,8.8612,8.8612,8.8612,8.8612,8.8612,8.8612,8.8612,8.8612,8.8612,8.8612,8.8612,8.8612,8.8612,8.8612,8.8612,8.8612,8.8612,8.8612,8.8612,8.8612,8.8612,8.8612,8.8612,8.8612,8.8612,8.8612,8.8612,8.8612,8.8612,8.8612,8.8612,8.8612,8.8612,8.8612,8.8612,9.1304,9.3548,9.3586,9.3623,9.4743,9.8034,9.8557,9.8557,9.8557,9.8557,9.8557,9.8557,9.8557,9.8557,9.8557,9.8557,9.8557,9.8557,9.8557,9.8557,9.8557,9.8557,9.8557,9.8557,9.8557,9.8557,9.8557,9.8557,9.8557,9.852,9.766,9.7734,1.9821,1.9789,2.0564,2.2338,2.2192,0.0,2.831,3.1195,3.487,4.2461,4.6118,4.9577,5.4849,5.2992,4.921,4.4939,5.5343,6.4645,6.6702,6.6963,6.644,6.5094,6.5206,6.6477,6.9207,7.0889,7.1974,7.231,7.4852,7.6535,7.6834,7.8031,7.8704,7.8704,7.8704,7.8704,7.8704,8.0386,8.2106,8.3788,8.5359,8.7004,8.8612,8.8612,8.8612,8.8612,8.8612,8.8612,8.8612,8.8612,8.8612,8.8612,8.8612,8.8612,8.8612,8.8612,8.8612,8.8612,8.8612,8.8612,8.8612,8.8612,8.8612,8.8612,8.8612,8.8612,8.8612,8.8612,8.8612,8.8612,8.8612,8.8612,8.8612,8.8612,8.8612,8.8612,8.8612,8.8612,8.8612,8.8612,8.8612,8.8652,8.8623,9.4146,9.8557,9.8557,9.8557,9.8557,9.8557,9.8557,9.8557,9.8557,9.8557,9.8557,9.8557,9.8557,9.8557,9.8557,9.8557,9.8557,9.8557,9.8557,9.8557,9.8557,9.8557,9.8557,9.8557,9.8557,9.8557,9.8482,9.7136,9.7248,1.9643,2.0705,2.1947,2.218,2.5387,0.0,2.9376,3.7067,4.4921,4.7855,5.2133,5.6607,6.0733,5.8341,5.6959,6.0635,6.2752,6.5057,6.8272,6.8758,6.8683,6.8459,6.9693,7.0665,7.1039,7.2609,7.4217,7.5712,7.6161,7.6984,7.8367,7.8629,7.8704,7.8704,7.8704,7.8704,7.8704,8.0386,8.2106,8.3788,8.5359,8.7004,8.8612,8.8612,8.8612,8.8612,8.8612,8.8612,8.8612,8.8612,8.8612,8.8612,8.8612,8.8612,8.8612,8.8612,8.8612,8.8612,8.8612,8.8612,8.8612,8.8612,8.8612,8.8612,8.8612,8.8612,8.8612,8.8612,8.8612,8.8612,8.8612,8.8612,8.8612,8.8612,8.8612,8.8612,8.8612,8.8612,8.8612,8.8612,8.8612,8.8649,8.8649,9.4145,9.8557,9.8557,9.8557,9.8557,9.8557,9.8557,9.8557,9.8557,9.8557,9.8557,9.8557,9.8557,9.8557,9.8557,9.8557,9.8557,9.8557,9.8557,9.8557,9.8557,9.8557,9.8557,9.8557,9.8557,9.8557,9.8557,9.8333,9.837,2.0826,2.1611,2.2845,2.5724,0.0,0.0,3.5594,4.0994,4.6848,5.3553,5.66,5.9701,6.5204,6.5966,6.5991,6.6762,6.69,6.7711,7.0029,7.0366,7.074,7.1749,7.2422,7.2833,7.2833,7.4366,7.5638,7.6311,7.7208,7.8105,7.8921,7.9033,7.907,7.907,7.907,7.907,7.907,8.1695,8.342,8.4134,8.663,8.8197,8.887,8.8686,8.8612,8.8612,8.8612,8.8612,8.8612,8.8612,8.8612,8.8612,8.8612,8.8612,8.8612,8.8612,8.8612,8.8612,8.8612,8.8612,8.8612,8.8612,8.8612,8.8612,8.8612,8.8612,8.8612,8.8612,8.8612,8.8612,8.8612,8.8612,8.8612,8.8612,8.8612,8.8612,8.8612,8.8612,8.8911,8.992,9.0855,9.2089,9.407,9.6725,9.8557,9.8557,9.8557,9.8557,9.8557,9.8557,9.8557,9.8557,9.8557,9.8557,9.8557,9.8557,9.8557,9.8557,9.8557,9.8557,9.8557,9.8557,9.8557,9.8557,9.8557,9.8557,9.8557,9.8557,9.8557,9.8557,9.8557,9.8557,2.1686,0.0,0.0,0.0,0.0,0.0,4.2848,4.6886,5.126,5.8887,6.1494,6.396,6.8779,7.0974,7.1525,6.99,6.9666,7.0216,7.1824,7.2048,7.2497,7.3731,7.4254,7.4553,7.4553,7.6049,7.7021,7.7021,7.8068,7.8808,7.8995,7.915,7.9261,7.9303,7.9303,7.9528,8.0016,8.288,8.4579,8.5083,8.7797,8.9096,8.9057,8.887,8.8724,8.8724,8.8649,8.8649,8.8724,8.8724,8.8686,8.8612,8.8612,8.8612,8.8612,8.8612,8.8612,8.8612,8.8612,8.8612,8.8612,8.8612,8.8612,8.8612,8.8612,8.8612,8.8612,8.8612,8.8612,8.8612,8.8612,8.8612,8.8612,8.8612,8.8612,8.8612,8.8612,8.8985,8.9808,9.149,9.3098,9.5117,9.8034,9.8557,9.8557,9.8557,9.8557,9.8557,9.8557,9.8557,9.8557,9.8557,9.8557,9.8557,9.8557,9.8557,9.8557,9.8557,9.8557,9.8557,9.8557,9.8557,9.8557,9.8557,9.8557,9.8557,9.8557,9.8557,9.8557,9.8557,9.8557,9.8557,0.0,0.0,0.0,3.5084,4.0321,4.5203,5.0288,5.6457,6.1617,6.3411,6.7636,7.1039,7.1263,7.1338,7.1338,7.1301,7.1263,7.1861,7.3544,7.3806,7.3806,7.388,7.5301,7.6311,7.6311,7.7731,7.8629,7.8629,7.8704,7.8704,7.8741,7.8952,7.9159,7.9318,7.9333,8.009,8.1732,8.3476,8.516,8.6841,8.8447,8.9242,8.9206,8.9094,8.9019,8.9019,8.8724,8.8795,8.9019,8.9019,8.887,8.8612,8.8612,8.8612,8.8612,8.8612,8.8612,8.8612,8.8612,8.8612,8.8612,8.8612,8.8612,8.8612,8.8612,8.8612,8.8612,8.8612,8.8612,8.8612,8.8612,8.8612,8.8612,8.8612,8.8612,8.8612,8.8612,8.992,9.1565,9.3136,9.4781,9.65,9.8258,9.8557,9.8557,9.8557,9.8557,9.8557,9.8557,9.8557,9.8557,9.8557,9.8557,9.8557,9.8557,9.8557,9.8557,9.8557,9.8557,9.8557,9.8557,9.8557,9.8557,9.8557,9.8557,9.8557,9.8557,9.8557,9.8557,9.8557,9.8557,9.8557,2.3394,2.8686,3.4798,3.9175,4.4846,5.0045,5.2776,5.7654,6.1766,6.229,6.6365,6.9805,6.9805,7.0665,7.1338,7.1338,7.231,7.3619,7.5301,7.5525,7.5937,7.6984,7.7582,7.7918,7.7918,7.8404,7.8704,7.8704,7.8704,7.8846,7.9108,7.9178,7.9422,7.9799,7.9848,8.0607,8.22,8.3903,8.5611,8.728,8.8764,8.9494,8.9502,8.9258,8.9168,8.9132,8.9057,8.9074,8.9143,8.9058,8.9019,8.9019,8.8724,8.8724,8.887,8.8686,8.8612,8.8612,8.8612,8.8612,8.8612,8.8612,8.8612,8.8612,8.8612,8.8612,8.8612,8.8612,8.8612,8.8612,8.8612,8.8612,8.8612,8.8612,8.8612,8.8948,9.007,9.078,9.1341,9.1864,9.2687,9.3994,9.5977,9.3883,9.3435,9.7884,9.8557,9.8557,9.8557,9.8557,9.8557,9.8557,9.8557,9.8557,9.8557,9.8557,9.8557,9.8557,9.8557,9.8557,9.8557,9.8557,9.8557,9.8557,9.8557,9.8557,9.8557,9.8557,9.8557,9.8557,9.8557,9.8557,2.7936,3.3546,3.9824,4.7364,5.2365,5.6338,5.9718,6.2439,6.4271,6.4271,6.6814,6.8993,6.8993,7.0291,7.1749,7.2946,7.4067,7.5339,7.6984,7.7208,7.7582,7.8591,7.8704,7.8704,7.8704,7.8704,7.8704,7.8704,7.8808,7.8995,7.922,7.9362,7.9609,7.9917,8.0032,8.0563,8.1588,8.3828,8.6106,8.8384,8.93,8.9724,8.9762,8.9491,8.9356,8.9352,8.946,8.9438,8.9369,8.9283,8.9244,8.9199,8.8933,8.8942,8.9019,8.8832,8.8686,8.8612,8.8612,8.8612,8.8612,8.8612,8.8612,8.8612,8.8612,8.8612,8.8612,8.8612,8.8612,8.8612,8.8612,8.8612,8.8612,8.8612,8.8612,8.9098,9.0817,9.1191,9.1341,9.1902,9.2762,9.3771,9.5005,9.3547,9.3622,9.7884,9.8557,9.8557,9.8557,9.8557,9.8557,9.8557,9.8557,9.8557,9.8557,9.8557,9.8557,9.8557,9.8557,9.8557,9.8557,9.8557,9.8557,9.8557,9.8557,9.8557,9.8557,9.8557,9.8557,9.8557,9.8557,9.8594,3.4567,3.8909,4.4026,5.8475,6.2127,6.3867,7.0146,7.0243,6.8993,6.8993,6.8993,6.903,6.9105,7.0478,7.2647,7.5862,7.646,7.7021,7.8517,7.8704,7.8704,7.8704,7.8704,7.8704,7.8704,7.8704,7.8704,7.8741,7.8995,7.91,7.915,7.9514,7.969,7.9728,7.9956,8.0107,8.0221,8.3335,8.6638,9.0016,9.0016,9.0016,9.0016,8.974,8.9638,8.9658,8.9875,8.9874,8.9638,8.9614,8.9498,8.9269,8.9248,8.9167,8.9044,8.9053,8.887,8.8649,8.8649,8.8649,8.8612,8.8612,8.8612,8.8649,8.8612,8.8612,8.8649,8.8612,8.8612,8.8612,8.8612,8.8612,8.8612,8.8612,8.8612,8.906,9.0668,9.1042,9.149,9.2949,9.4594,9.5641,9.5229,9.6949,9.8407,9.852,9.8557,9.8557,9.8557,9.8557,9.8557,9.8557,9.8557,9.8557,9.8557,9.8557,9.8557,9.8557,9.8557,9.8557,9.8557,9.8557,9.8557,9.8557,9.8557,9.8557,9.8557,9.8557,9.8557,9.8557,9.8557,9.8707,3.4567,4.4918,5.4077,5.9062,6.3933,6.7864,6.9486,6.9431,6.8993,6.8993,6.8993,6.9356,7.0515,7.3133,7.5376,7.6236,7.7358,7.8255,7.8666,7.8704,7.8704,7.8704,7.8704,7.8704,7.8704,7.8704,7.8808,7.8995,7.907,7.9263,7.956,7.9643,7.9804,7.9994,8.0032,8.0639,8.1816,8.3904,8.6638,9.0016,9.0016,9.0016,9.0016,8.9937,8.9893,8.9901,8.9971,8.9965,8.9903,8.9694,8.9685,8.975,8.9366,8.932,8.9428,8.9226,8.9057,8.8945,8.8945,8.8795,8.8612,8.8612,8.8795,8.8907,8.8686,8.8795,8.8907,8.8686,8.8612,8.8612,8.8612,8.8612,8.8612,8.8612,8.8612,8.8761,8.9172,8.9285,8.9397,8.9808,9.1229,9.2724,9.3771,9.5117,9.665,9.8295,9.8557,9.8557,9.8557,9.8557,9.8557,9.8557,9.8557,9.8557,9.8557,9.8557,9.8557,9.8557,9.8557,9.8557,9.8557,9.8557,9.8557,9.8557,9.8557,9.8557,9.8557,9.8557,9.8557,9.8557,9.8782,9.8894,3.4781,4.822,6.0508,6.4359,6.8012,7.0614,7.0434,6.973,6.9095,6.9057,6.9581,7.0553,7.2207,7.4628,7.661,7.7283,7.8143,7.8704,7.8704,7.8704,7.8704,7.8704,7.8704,7.8704,7.8704,7.8846,7.8958,7.9108,7.9279,7.9458,7.9689,7.9804,7.9918,8.007,8.007,8.0829,8.2385,8.4094,8.6258,8.8878,8.9637,9.0016,9.0016,9.0016,9.0016,9.0016,9.0016,9.0016,8.9978,8.9835,8.986,8.9979,8.9675,8.9599,8.9595,8.9466,8.9272,8.9094,8.9094,8.9019,8.8907,8.8907,8.8982,8.9057,8.887,8.8907,8.8982,8.8686,8.8612,8.8612,8.8612,8.8612,8.8612,8.8612,8.8612,8.8612,8.8612,8.8612,8.8612,8.8612,9.0556,9.2724,9.4332,9.5753,9.7099,9.8333,9.8557,9.8557,9.8557,9.8557,9.8557,9.8557,9.8557,9.8557,9.8557,9.8557,9.8557,9.8557,9.8557,9.8557,9.8557,9.8557,9.8557,9.8557,9.8557,9.8557,9.8557,9.8557,9.8594,9.8707,9.8894,9.9048,3.6296,4.9948,6.3668,7.0502,7.2063,7.1943,7.1691,7.0355,6.9207,6.9095,7.0307,7.1943,7.3777,7.5384,7.6984,7.8554,7.8808,7.8808,7.8808,7.8808,7.8741,7.8704,7.8741,7.8808,7.8808,7.8995,7.9159,7.9202,7.9486,7.9728,7.9766,7.9956,8.007,8.007,8.0297,8.1171,8.2765,8.4436,8.6144,8.7814,8.9295,9.0016,9.0016,9.0016,9.0016,9.0016,9.0016,9.0016,9.0016,9.0016,9.0016,9.0016,9.0016,8.9865,8.9675,8.9675,8.9504,8.9281,8.9281,8.9236,8.9221,8.9221,8.9246,8.9232,8.9086,8.9057,8.9057,8.8724,8.8649,8.8649,8.8612,8.8612,8.8612,8.8612,8.8612,8.8612,8.8612,8.8612,8.8686,8.8911,9.1079,9.3472,9.5379,9.7099,9.8183,9.8108,9.8333,9.8557,9.8557,9.8557,9.8557,9.8557,9.8557,9.8557,9.8557,9.8557,9.8557,9.8557,9.8557,9.8557,9.8557,9.8557,9.8557,9.8557,9.8594,9.8594,9.8594,9.8632,9.8782,9.9006,9.9033,9.9201,4.2565,5.1859,6.1922,6.8718,7.031,7.0206,7.0168,6.9655,6.9244,6.9319,7.0681,7.2349,7.4067,7.5766,7.7365,7.8958,7.9108,7.907,7.907,7.907,7.8958,7.8741,7.9033,7.9182,7.907,7.9182,7.9362,7.9597,7.9647,7.9804,7.9994,8.007,8.007,8.007,8.136,8.2841,8.4511,8.6182,8.789,8.9561,8.9865,9.0016,9.0016,9.0016,9.0016,9.0016,9.0016,9.0016,9.0016,9.0016,9.0016,9.0016,9.0016,8.9979,8.9941,8.9941,8.9769,8.9543,8.9543,8.9376,8.9204,8.9204,8.9381,8.9458,8.9123,8.9281,8.9394,8.8795,8.8795,8.8907,8.8686,8.8612,8.8612,8.8612,8.8612,8.8612,8.8612,8.8612,8.9023,9.0481,9.007,9.0406,9.3435,9.5342,9.6314,9.5865,9.7361,9.8557,9.8557,9.8557,9.8557,9.8557,9.8557,9.8557,9.8557,9.8557,9.8557,9.8557,9.8557,9.8557,9.8557,9.8557,9.8557,9.8557,9.8782,9.8894,9.8894,9.9118,9.9231,9.9268,9.9386,9.9451,4.6581,5.3683,6.0479,6.8072,7.0593,7.0956,6.9985,6.9655,6.856,6.5222,6.8491,7.1955,7.1992,7.4734,7.7502,7.9068,7.9257,7.9215,7.9204,7.922,7.9178,7.9023,7.9186,7.9291,7.9234,7.9402,7.9552,7.9689,7.9804,7.9956,8.007,8.007,8.007,8.007,8.1588,8.3221,8.4929,8.66,8.8346,9.0016,9.0016,9.0016,9.0016,9.0016,9.0016,9.0016,9.0016,9.0016,9.0016,9.0016,9.0016,9.0016,9.0016,9.0016,9.0016,9.0016,8.9924,8.9821,8.9821,8.971,8.9636,8.9636,8.9691,8.9729,8.9431,8.9468,8.9531,8.9055,8.8999,8.9019,8.887,8.8724,8.8612,8.8612,8.8612,8.8612,8.8612,8.8612,8.8873,8.9696,8.9883,9.0444,9.2014,9.4369,9.6239,9.6874,9.7847,9.8557,9.8557,9.8557,9.8557,9.8557,9.8557,9.8557,9.8557,9.8557,9.8557,9.8557,9.8557,9.8557,9.8557,9.8557,9.8557,9.8557,9.8669,9.8816,9.8929,9.9042,9.9256,9.9449,9.9512,9.9584,4.7381,5.4139,5.9644,6.6212,6.9933,7.1393,6.9222,6.8726,6.7278,6.2173,6.6946,7.1719,7.0562,7.4063,7.7488,7.8738,7.9182,7.9397,7.9383,7.9389,7.9376,7.9318,7.9422,7.9439,7.9395,7.9625,7.9766,7.9766,7.9956,8.007,8.007,8.007,8.0259,8.0563,8.212,8.379,8.5461,8.7169,8.8688,9.0016,9.0016,9.0016,9.0016,9.0016,9.0016,9.0016,9.0016,9.0016,9.0016,9.0016,9.0016,9.0016,9.0016,9.0016,9.0016,9.0016,9.0016,9.0016,9.0016,9.0016,9.0016,9.0016,9.0016,8.9957,8.9694,8.9614,8.9548,8.9271,8.9108,8.9001,8.8978,8.8795,8.8612,8.8612,8.8612,8.8612,8.8612,8.8911,8.9172,8.9172,9.0257,9.1191,9.1191,9.3285,9.5416,9.6762,9.7248,9.7585,9.7959,9.7996,9.8146,9.8482,9.8557,9.8557,9.8557,9.8557,9.8557,9.8557,9.8557,9.8557,9.8557,9.8557,9.8557,9.8632,9.8632,9.8773,9.9061,9.9061,9.9261,9.9584,9.9584,9.9736,4.2711,5.1481,6.0024,6.0783,6.5643,6.9363,6.609,6.5367,6.5181,6.4617,6.8717,7.2396,7.2278,7.5128,7.7561,7.7713,7.8815,7.9645,7.9661,7.9643,7.9571,7.934,7.972,7.9949,7.9687,7.9879,8.0032,8.0032,8.007,8.007,8.007,8.007,8.0753,8.2158,8.3828,8.5537,8.7207,8.8915,8.9827,9.0016,9.0016,9.0016,9.0016,9.0016,9.0016,9.0016,9.0016,9.0016,9.0016,9.0016,9.0016,9.0016,9.0016,9.0016,9.0016,9.0016,9.0016,9.0016,9.0016,9.0016,9.0016,9.0016,9.0016,8.9957,8.9694,8.9601,8.9537,8.913,8.9047,8.8945,8.8707,8.8649,8.8612,8.8612,8.8612,8.8612,8.8612,8.9845,9.093,9.093,9.1079,9.1191,9.1191,9.1416,9.1677,9.1827,9.3061,9.4519,9.6052,9.6239,9.6837,9.837,9.8557,9.8557,9.8557,9.8557,9.8557,9.8557,9.8557,9.8557,9.8557,9.8557,9.8669,9.8931,9.8931,9.9118,9.9455,9.9455,9.9596,9.9888,9.9888,9.9888,4.2446,5.1102,5.8771,5.9796,6.3516,6.6592,6.5225,6.4921,6.4352,6.2415,6.6782,7.0692,6.9629,7.0578,7.278,7.688,7.6321,7.6416,7.9496,7.9923,7.9877,7.9799,7.9984,8.0032,7.9956,8.0032,8.007,8.007,8.007,8.007,8.007,8.007,8.0791,8.2347,8.4056,8.5764,8.7435,8.9143,9.0016,9.0016,9.0016,9.0016,9.0016,9.0016,9.0016,9.0016,9.0016,9.0016,9.0016,9.0016,9.0016,9.0016,9.0016,9.0016,9.0016,9.0016,9.0016,9.0016,9.0016,9.0016,9.0016,9.0016,9.0016,8.9937,8.9693,8.9613,8.9535,8.9253,8.9108,8.9014,8.8866,8.8724,8.8612,8.8612,8.8612,8.8612,8.8612,8.9958,9.1191,9.1191,9.1191,9.1191,9.1191,9.1939,9.2276,9.1304,9.336,9.5267,9.594,9.6015,9.665,9.837,9.8557,9.8557,9.8557,9.8557,9.8557,9.8557,9.8557,9.8632,9.8819,9.8819,9.8856,9.8969,9.9103,9.9254,9.9418,9.9476,9.9669,9.9926,9.9926,9.9926,3.9598,4.8102,5.524,5.4936,5.9606,6.4124,6.3592,6.3099,6.2491,6.1694,6.644,6.9895,6.7199,6.7541,6.9591,7.3881,7.3388,7.4109,7.8703,7.9766,8.007,8.007,8.007,8.007,8.007,8.007,8.007,8.007,8.007,8.007,8.007,8.0525,8.1512,8.3107,8.4815,8.6486,8.8194,8.9409,9.0016,9.0016,9.0016,9.0016,9.0016,9.0016,9.0016,9.0016,9.0016,9.0016,9.0016,9.0016,9.0016,9.0016,9.0016,9.0016,9.0016,9.0016,9.0016,9.0016,9.0016,9.0016,9.0016,9.0016,9.0016,8.9941,8.9675,8.9535,8.947,8.9224,8.9057,8.8907,8.8907,8.8795,8.8612,8.8612,8.8612,8.8612,8.8612,9.0331,9.1565,9.0593,9.1229,9.1565,9.0593,9.2126,9.2799,9.0705,9.3173,9.493,9.3958,9.4669,9.6127,9.8295,9.8557,9.8557,9.8557,9.8557,9.8557,9.8557,9.8557,9.8632,9.8856,9.8891,9.8954,9.9053,9.9229,9.9409,9.9482,9.9545,9.966,9.9926,9.9926,9.966,3.2575,4.1117,4.8862,4.3964,5.2772,6.2188,6.0479,5.8809,5.8999,6.3858,6.8946,7.092,6.587,6.7693,6.9439,6.7807,7.0312,7.3691,7.7108,7.9044,8.007,8.007,8.007,8.007,8.007,8.007,8.007,8.007,8.007,8.007,8.007,8.155,8.3183,8.4853,8.6562,8.827,8.9979,9.0016,9.0016,9.0016,9.0016,9.0016,9.0016,9.0016,9.0016,9.0016,9.0016,9.0016,9.0016,9.0016,9.0016,9.0016,9.0016,9.0016,9.0016,9.0016,9.0016,9.0016,9.0016,9.0016,9.0016,9.0016,9.0016,8.9941,8.9675,8.9421,8.9203,8.9057,8.8832,8.8612,8.8612,8.8612,8.8612,8.8612,8.8612,8.8612,8.8612,9.1191,9.2537,8.9285,9.1266,9.2463,8.921,9.1341,9.2388,8.9135,9.1453,9.235,8.9098,9.1528,9.4818,9.8183,9.8557,9.8557,9.8557,9.8557,9.8557,9.8557,9.8557,9.8557,9.8557,9.8795,9.9067,9.9337,9.9305,9.9522,9.9925,9.966,9.966,9.9926,9.9926,9.909,3.0145,3.6827,4.4154,4.833,5.2544,5.5847,5.6455,6.1504,6.4883,6.0707,6.382,6.682,6.5225,6.5794,6.7503,7.0426,6.9857,7.1034,7.6766,7.8019,7.8779,7.9956,8.007,8.007,8.007,8.007,8.007,8.007,8.007,8.0563,8.1626,8.2158,8.3714,8.6562,8.7207,8.8308,8.9979,9.0016,9.0016,9.0016,9.0016,9.0016,9.0016,9.0016,9.0016,9.0016,9.0016,9.0016,9.0016,9.0016,9.0016,9.0016,9.0016,9.0016,9.0016,9.0016,9.0016,9.0016,9.0016,9.0016,9.0016,9.0016,9.0016,8.993,8.9696,8.9423,8.9206,8.9057,8.8832,8.8612,8.8612,8.8612,8.8612,8.8612,8.8612,8.8612,8.8612,9.1191,9.2874,9.078,9.2051,9.2836,9.0743,9.1229,9.1154,8.8948,9.0518,9.1117,8.8911,9.0556,9.2313,9.3397,9.5491,9.7286,9.8445,9.8557,9.8557,9.8557,9.8557,9.8632,9.8819,9.8926,9.9063,9.9311,9.9415,9.9522,9.966,9.9736,9.985,9.9926,9.9926,9.966,2.8778,3.4852,4.2256,4.7419,4.7761,4.8406,5.4557,5.9302,6.1314,5.7366,6.0062,6.3289,6.3934,6.4504,6.5946,6.9135,6.8414,6.9363,7.4868,7.6729,7.7943,7.9006,7.969,8.007,8.007,8.007,8.007,8.007,8.007,8.0753,8.2347,8.3031,8.4625,8.7397,8.808,8.8915,8.9979,9.0016,9.0016,9.0016,9.0016,9.0016,9.0016,9.0016,9.0016,9.0016,9.0016,9.0016,9.0016,9.0016,9.0016,9.0016,9.0016,9.0016,9.0016,9.0016,9.0016,9.0016,9.0016,9.0016,9.0016,9.0016,9.0016,8.9957,8.9694,8.9506,8.9319,8.9094,8.8907,8.8724,8.8649,8.8612,8.8612,8.8612,8.8612,8.8799,8.9434,9.1191,9.235,9.1378,9.1939,9.2089,9.0481,9.0743,9.0593,8.8873,9.0593,9.1453,8.9808,9.1603,9.3023,9.3023,9.5379,9.7398,9.8445,9.8557,9.8557,9.8557,9.8557,9.8856,9.9641,9.9753,9.994,10.0202,10.0388,10.0187,9.9698,9.985,9.9926,9.9926,9.9926,9.9584,2.8095,3.4283,4.1838,4.2559,4.0282,4.1155,5.3607,5.319,5.0836,5.3418,5.6835,5.9796,6.139,6.2947,6.4238,6.4845,6.644,6.8756,7.2021,7.5324,7.7412,7.7526,7.9044,8.007,8.007,8.007,8.007,8.007,8.0183,8.0943,8.2499,8.4208,8.5916,8.7625,8.9181,9.0016,9.0016,9.0016,9.0016,9.0016,9.0016,9.0016,9.0016,9.0016,9.0016,9.0016,9.0016,9.0016,9.0016,9.0016,9.0016,9.0016,9.0016,9.0016,9.0016,9.0016,9.0016,9.0016,9.0016,9.0016,9.0016,9.0016,9.0016,8.9961,8.9711,8.9633,8.9531,8.9156,8.9016,8.8982,8.8686,8.8612,8.8612,8.8612,8.8612,8.906,9.0631,9.1079,9.1154,9.1004,9.1079,9.0631,8.8911,8.9958,9.0444,8.8873,9.1304,9.2799,9.1378,9.3921,9.5865,9.5865,9.7248,9.8183,9.8183,9.8295,9.852,9.8856,9.8781,9.938,10.0838,10.1025,10.121,10.1469,10.1735,10.1219,9.9926,9.9926,9.9926,9.9926,9.9926,9.9128,2.5817,2.9196,3.4739,4.2559,4.2939,4.2218,4.5331,4.909,5.0304,4.4724,4.8216,5.2431,5.2848,5.4291,5.748,6.3896,6.7427,7.0123,7.2211,7.4299,7.6083,7.7412,7.9044,8.007,8.007,8.007,8.007,8.007,8.1208,8.2575,8.4284,8.5954,8.7663,8.9371,8.9789,9.0016,9.0016,9.0016,9.0016,9.0016,9.0016,9.0016,9.0016,9.0016,9.0016,9.0016,9.0016,9.0016,9.0016,9.0016,9.0016,9.0016,9.0016,9.0016,9.0016,9.0016,9.0016,9.0016,9.0016,9.0016,9.0016,9.0016,9.0016,8.9978,8.993,8.9632,8.9314,8.9201,8.9103,8.8982,8.8686,8.8612,8.8612,8.8612,8.8612,8.8761,8.9135,9.0257,9.078,8.9471,9.0257,9.0631,8.8911,8.8948,8.9098,8.8686,9.0406,9.1565,9.1229,9.2874,9.407,9.407,9.4444,9.4669,9.4669,9.5865,9.822,10.2034,10.1062,10.0501,10.0875,10.0014,9.9601,9.986,10.0036,10.0031,9.9926,9.9926,9.9926,9.9926,9.9926,9.9736,2.6158,2.8588,3.2612,3.8877,3.8573,3.7396,3.9712,4.18,4.2218,3.8497,4.18,4.5862,4.7343,5.0912,5.5392,6.0669,6.3706,6.5756,6.6668,7.0198,7.3046,7.3957,7.764,8.007,8.007,8.007,8.007,8.007,8.155,8.3145,8.4853,8.6562,8.8232,8.9941,9.0016,9.0016,9.0016,9.0016,9.0016,9.0016,9.0016,9.0016,9.0016,9.0016,9.0016,9.0016,9.0016,9.0016,9.0016,9.0016,9.0016,9.0016,9.0016,9.0016,9.0016,9.0016,9.0016,9.0016,9.0016,9.0016,9.0016,9.0016,8.9941,8.9821,8.9836,8.9518,8.9223,8.9143,8.899,8.8832,8.8649,8.8612,8.8612,8.8612,8.8612,8.8836,8.9621,8.9883,8.9958,8.9808,8.9883,8.9696,8.8799,8.8612,8.8612,8.8612,9.1341,9.3397,9.3397,9.6127,9.8071,9.8071,9.7361,9.7211,9.7996,9.8183,9.9753,10.3193,10.1174,10.0127,10.0875,10.0201,9.9978,10.0412,10.0484,10.0309,9.9926,9.9926,9.9926,9.9926,9.9926,9.9926,2.7411,2.9879,3.2802,3.4245,3.2233,3.1056,3.5384,3.4321,3.2878,3.4321,3.7092,4.0092,4.2863,4.8482,5.3607,5.6303,5.7974,5.9188,5.9948,6.5794,6.9971,6.9971,7.5969,8.007,8.007,8.007,8.0183,8.0411,8.193,8.3562,8.5233,8.6941,8.8536,8.9979,9.0016,9.0016,9.0016,9.0016,9.0016,9.0016,9.0016,9.0016,9.0016,9.0016,9.0016,9.0016,9.0016,9.0016,9.0016,9.0016,9.0016,9.0016,9.0016,9.0016,9.0016,9.0016,9.0016,9.0016,9.0016,9.0016,9.0016,9.0016,8.9819,8.9619,8.9639,8.9404,8.9158,8.9027,8.8832,8.8612,8.8612,8.8612,8.8612,8.8612,8.8612,8.9023,9.0481,8.9658,8.9135,9.0855,8.9995,8.9098,8.9322,8.9359,8.9359,8.9359,9.3397,9.6426,9.6426,10.0501,10.3305,10.3044,10.1735,10.1399,10.2558,10.1361,10.1361,10.3305,10.0838,9.9791,10.0875,10.0912,10.1048,10.1274,10.1333,10.0871,9.9926,9.9926,9.9926,9.9926,9.9926,9.9926,2.7411,2.9879,3.2537,3.2802,3.136,3.0145,3.0904,3.1815,3.2537,3.2802,3.4397,3.5915,3.6409,3.9712,4.4724,5.2051,5.3494,5.5164,5.9454,6.5794,6.9971,6.9971,7.5969,8.007,8.007,8.007,8.0639,8.1968,8.36,8.5309,8.6979,8.8688,8.9713,9.0016,9.0016,9.0016,9.0016,9.0016,9.0016,9.0016,9.0016,9.0016,9.0016,9.0016,9.0016,9.0016,9.0016,9.0016,9.0016,9.0016,9.0016,9.0016,9.0016,9.0016,9.0016,9.0016,9.0016,9.0016,9.0016,9.0016,9.0016,9.0016,8.9824,8.9629,8.9606,8.9381,8.8996,8.8791,8.8649,8.8612,8.8612,8.8612,8.8612,8.8612,8.8612,8.8686,8.8948,8.8799,8.9135,9.0855,9.0967,9.1229,9.2537,9.2762,9.2762,9.2762,9.5828,9.8146,9.8146,10.1249,10.2894,10.1436,10.1062,10.0464,9.938,9.9043,10.0202,10.3231,10.2969,10.2146,10.095,10.0912,10.0503,9.9711,9.9785,9.9884,9.9926,9.9926,9.9926,9.9926,9.9926,9.9926,3.0145,3.1967,3.36,3.2688,3.1891,3.1056,3.0145,3.0524,3.1094,3.1094,3.1701,3.2537,3.3448,3.713,4.1269,4.5141,4.8786,5.1937,5.4291,6.1884,6.7921,6.9781,7.5134,7.9082,7.9994,8.007,8.0715,8.2309,8.398,8.5688,8.7359,8.9067,9.0016,9.0016,9.0016,9.0016,9.0016,9.0016,9.0016,9.0016,9.0016,9.0016,9.0016,9.0016,9.0016,9.0016,9.0016,9.0016,9.0016,9.0016,9.0016,9.0016,9.0016,9.0016,9.0016,9.0016,9.0016,9.0016,9.0016,9.0016,9.0016,9.0016,8.9815,8.9581,8.9431,8.9244,8.8982,8.8686,8.8612,8.8612,8.8612,8.8612,8.8873,8.9771,8.9995,9.0219,9.1079,9.1266,9.149,9.2276,9.2425,9.2687,9.3397,9.3509,9.3809,9.4743,9.7697,10.0165,10.1062,10.4016,10.5399,10.3791,10.2782,10.1959,10.1249,10.0352,10.0464,10.1959,10.1249,10.0426,9.9679,9.9604,9.938,9.8931,9.9261,9.9522,9.9713,9.9841,9.9926,9.9926,9.9926,9.9926,3.4928,0.0,3.7196,3.707,3.5584,3.3785,0.0,3.1027,2.9939,2.9916,2.9917,3.0334,3.1583,3.5638,3.92,4.0377,4.5176,4.9469,5.1443,5.8011,6.4124,6.83,7.3615,7.7488,7.8779,7.9614,8.0905,8.2879,8.4208,8.5878,8.7966,8.9295,9.0016,9.0016,9.0016,9.0016,9.0016,9.0016,9.0016,9.0016,9.0016,9.0016,9.0016,9.0016,9.0016,9.0016,9.0016,9.0016,9.0016,9.0016,9.0016,9.0016,9.0016,9.0016,9.0016,9.0016,9.0016,9.0016,9.0016,9.0016,9.0016,9.0016,8.9815,8.9539,8.9283,8.9146,8.8982,8.8686,8.8612,8.8724,8.9098,8.9247,8.9658,9.1341,9.1715,9.2051,9.3248,9.3509,9.3622,9.4033,9.4108,9.422,9.4631,9.4669,9.5267,9.6912,9.9305,10.1511,10.3193,10.5586,10.6521,10.4913,10.3978,10.3268,10.2857,10.1286,10.0352,10.0352,9.9193,9.8557,9.8557,9.8557,9.8557,9.8557,9.8995,9.9325,9.9492,9.9765,9.9926,9.9926,9.9926,9.9926,0.0,4.382,4.4918,4.9387,4.4793,3.9116,3.9019,3.4275,0.0,2.9948,2.9917,2.9951,2.9924,3.278,3.6727,4.1435,4.3914,4.8027,5.5885,5.6265,5.8087,6.4504,7.1148,7.5248,7.54,7.8247,8.1398,8.4549,8.4853,8.6372,8.9637,8.9941,9.0016,9.0016,9.0016,9.0016,9.0016,9.0016,9.0016,9.0016,9.0016,9.0016,9.0016,9.0016,9.0016,9.0016,9.0016,9.0016,9.0016,9.0016,9.0016,9.0016,9.0016,9.0016,9.0016,9.0016,9.0016,9.0016,9.0016,9.0016,9.0016,9.0016,8.9815,8.9558,8.9293,8.9133,8.8982,8.8686,8.8612,8.8985,9.0593,9.1004,9.1378,9.2949,9.3323,9.336,9.3472,9.3509,9.3958,9.5528,9.5865,9.6314,9.7921,9.8183,9.8707,10.0314,10.0763,10.1511,10.3193,10.3604,10.3118,10.1436,10.2558,10.2782,10.1212,9.9604,9.8707,9.8707,9.8594,9.8557,9.8557,9.8557,9.8557,9.8557,9.8819,9.9118,9.9343,9.9727,9.9926,9.9926,9.9926,9.9926,4.4053,4.6925,4.9428,5.0249,4.8109,4.4738,4.0617,3.6927,3.3518,3.0455,2.9814,2.9793,2.9748,3.249,3.542,3.7333,4.1738,4.7495,5.4898,5.71,6.0831,6.8697,7.1914,7.4716,7.7867,7.8361,8.0297,8.4625,8.5916,8.7549,8.9865,9.0016,9.0016,9.0016,9.0016,9.0016,9.0016,9.0016,9.0016,9.0016,9.0016,9.0016,9.0016,9.0016,9.0016,9.0016,9.0016,9.0016,0.0,9.0016,9.0016,9.0016,9.0016,9.0016,9.0016,9.0016,9.0016,9.0016,9.0016,9.0016,9.0016,9.0016,8.9815,8.9573,8.9507,8.9276,8.8982,8.8686,8.9397,9.0369,9.1004,9.1902,9.3023,9.4669,9.508,9.5379,9.6426,9.665,9.6837,9.7473,9.7585,9.7772,9.8407,9.8557,9.908,10.0651,10.0912,10.1885,10.4651,10.4091,10.3156,10.252,10.2109,10.1174,9.9566,9.8856,9.8557,9.8557,9.8557,9.8557,9.8557,9.8557,9.8557,9.8557,9.8632,9.8856,9.9118,9.9411,9.9675,9.9926,9.9926,9.9926,4.8614,5.1777,5.4429,5.4813,5.334,5.0187,4.4097,4.0204,3.6448,3.1494,3.0076,2.9911,3.0397,3.2814,3.4923,3.5436,4.077,4.721,5.3983,5.7729,6.2704,7.0747,7.1694,7.3501,7.8057,7.8855,8.0715,8.4663,8.6524,8.8194,8.9903,9.0016,9.0016,9.0016,9.0016,9.0016,9.0016,9.0016,9.0016,9.0016,9.0016,9.0016,9.0016,9.0016,9.0016,9.0016,9.0016,9.0016,9.0016,9.0016,9.0016,9.0016,9.0016,9.0016,9.0016,9.0016,9.0016,9.0016,9.0016,9.0016,8.9979,8.9903,8.9739,8.9581,8.9506,8.9244,8.887,8.8686,8.9845,9.1416,9.2425,9.3509,9.4743,9.6426,9.68,9.7136,9.8295,9.8557,9.8557,9.8557,9.8557,9.8557,9.8557,9.8557,9.908,10.0651,10.0464,10.1174,10.3978,10.2894,10.1885,10.1885,10.0838,9.9716,9.8632,9.8557,9.8557,9.8557,9.8557,9.8557,9.8557,9.8557,9.8557,9.8557,9.8557,9.8669,9.8969,9.9117,9.9411,9.9815,9.9815,9.9827,5.7011,5.9192,6.0346,6.5244,6.1542,5.5389,5.0514,4.4293,3.8157,3.3125,3.0871,3.0248,3.1818,3.3488,3.5185,3.6893,4.1446,4.7145,5.3909,5.7803,6.244,6.9259,7.0027,7.1337,7.4716,7.95,8.3107,8.4815,8.6524,8.8232,8.9903,9.0016,9.0016,9.0016,9.0016,9.0016,9.0016,9.0016,9.0016,9.0016,9.0016,9.0016,9.0016,9.0016,9.0016,9.0016,9.0016,9.0016,9.0016,9.0016,9.0016,9.0016,9.0016,9.0016,9.0016,9.0016,9.0016,9.0016,9.0016,9.0016,8.9979,8.9675,8.9625,8.9543,8.9319,8.8945,8.8612,8.8649,8.9845,9.1939,9.5155,9.6052,9.6463,9.8146,9.8557,9.8557,9.8557,9.8557,9.8557,9.8557,9.8557,9.8557,9.8557,9.8557,9.908,10.0651,9.9529,9.9118,10.0726,9.9529,9.8594,9.8594,9.8557,9.8557,9.8557,9.8557,9.8557,9.8557,9.8557,9.8557,9.8557,9.8557,9.8557,9.8557,9.8557,9.8669,9.8969,9.8969,9.9156,9.953,9.953,9.9647,5.5373,5.9911,6.4645,6.6103,6.4982,6.1355,5.2918,4.8586,4.3898,3.5468,3.3351,3.3164,3.3613,3.5196,3.6931,3.8511,4.5115,5.1988,5.7615,6.2225,6.7618,7.452,7.4095,7.3729,7.4906,7.8513,8.193,8.4739,8.7625,8.9485,8.9979,9.0016,9.0016,9.0016,9.0016,9.0016,9.0016,9.0016,9.0016,9.0016,9.0016,9.0016,9.0016,9.0016,9.0016,9.0016,9.0016,9.0016,9.0016,9.0016,9.0016,9.0016,9.0016,9.0016,9.0016,9.0016,9.0016,9.0016,9.0016,9.0016,8.9977,8.9685,8.9498,8.9281,8.8907,8.8724,8.8873,9.007,9.078,9.1939,9.5155,9.6912,9.7921,9.8407,9.8557,9.8557,9.8557,9.8557,9.8557,9.8557,9.8557,9.8557,9.8557,9.8557,9.8707,9.9155,9.8819,9.9529,10.2296,10.1212,10.0651,10.1847,9.9903,9.8557,9.8557,9.8557,9.8557,9.8557,9.8557,9.8557,9.8557,9.8557,9.8557,9.8557,9.8557,9.8594,9.8669,9.8856,9.9006,9.9118,9.938,9.9554,5.9,6.2701,6.6477,6.6477,6.6477,6.4047,5.4812,5.141,4.7559,3.8324,3.5332,3.4996,3.6978,3.7725,3.9049,4.1988,4.684,5.2215,5.8059,6.2579,6.8116,7.5663,7.6083,7.6159,7.6956,7.9462,8.212,8.4739,8.808,9.0016,9.0016,9.0016,9.0016,9.0016,9.0016,9.0016,9.0016,9.0016,9.0016,9.0016,9.0016,9.0016,9.0016,9.0016,9.0016,9.0016,9.0016,9.0016,9.0016,9.0016,9.0016,9.0016,9.0016,9.0016,9.0016,9.0016,9.0016,9.0016,9.0016,9.0016,8.9937,8.9583,8.9334,8.9132,8.8724,8.8612,8.8985,9.0668,9.164,9.2724,9.5342,9.7286,9.8557,9.8557,9.8557,9.8557,9.8557,9.8557,9.8557,9.8557,9.8557,9.8557,9.8557,9.8557,9.8557,9.8557,9.8557,9.923,10.1249,10.0613,10.0352,10.1361,10.0277,9.923,9.8594,9.8557,9.8557,9.8557,9.8557,9.8557,9.8557,9.8557,9.8557,9.8557,9.8557,9.8557,9.8557,9.8707,9.8856,9.8969,9.9193,9.938,6.5468,6.6477,6.6702,6.6702,6.6702,6.4533,5.6308,5.3242,4.9839,4.1614,3.7464,3.6828,4.1801,4.1576,4.2287,4.7352,4.8566,5.1049,5.7171,6.1201,6.644,7.4109,7.6539,7.8209,7.9918,8.1512,8.3107,8.4815,8.7928,8.9827,9.0016,9.0016,9.0016,9.0016,9.0016,9.0016,9.0016,9.0016,9.0016,9.0016,9.0016,9.0016,9.0016,9.0016,9.0016,9.0016,9.0016,9.0016,9.0016,9.0016,9.0016,9.0016,9.0016,9.0016,9.0016,9.0016,9.0016,9.0016,9.0016,9.0016,8.9937,8.9394,8.9221,8.9132,8.8724,8.8612,8.9023,9.0855,9.2425,9.3921,9.5753,9.7398,9.8557,9.8557,9.8557,9.8557,9.8557,9.8557,9.8557,9.8557,9.8557,9.8557,9.8557,9.8557,9.8557,9.8557,9.8557,9.8594,9.8744,9.8744,9.8707,9.8557,9.9828,10.009,9.8669,9.8557,9.8557,9.8557,9.8557,9.8557,9.8557,9.8557,9.8557,9.8557,9.8557,9.8557,9.8557,9.8557,9.8669,9.8931,9.8931,9.9156,6.4683,6.644,6.8459,6.8459,6.8459,6.629,5.7953,5.5784,5.3204,4.4979,4.2698,4.3708,4.868,4.9466,5.1,5.5859,6.02,6.297,6.3137,6.8452,7.3008,7.483,7.6539,7.8209,7.9918,8.1512,8.3107,8.4815,8.6865,8.8612,8.9941,9.0016,9.0016,9.0016,9.0016,9.0016,9.0016,9.0016,9.0016,9.0016,9.0016,9.0016,9.0016,9.0016,9.0016,9.0016,9.0016,9.0016,9.0016,9.0016,9.0016,9.0016,9.0016,9.0016,9.0016,9.0016,9.0016,9.0016,9.0016,9.0016,8.9937,8.9394,8.9146,8.9019,8.8724,8.8612,8.9247,9.2163,9.3248,9.422,9.7211,9.8258,9.8557,9.8557,9.8557,9.8557,9.8557,9.8557,9.8557,9.8557,9.8557,9.8557,9.8557,9.8557,9.8557,9.8557,9.8557,9.9006,10.0239,10.0389,9.9903,9.8669,9.8819,9.8931,9.8557,9.8557,9.8557,9.8557,9.8557,9.8557,9.8557,9.8557,9.8557,9.8557,9.8557,9.8557,9.8557,9.8557,9.8557,9.8632,9.8856,9.9006,6.6627,6.7674,6.8993,6.8993,6.8993,6.7449,6.1467,5.8252,5.4887,4.9054,4.5951,4.5577,4.9727,5.1953,5.4459,5.8617,6.2293,6.5175,6.6766,7.0189,7.34,7.5756,7.7554,7.8969,7.9994,8.2177,8.3934,8.4871,8.7274,8.9067,8.9979,9.0016,9.0016,9.0016,9.0016,9.0016,9.0016,9.0016,9.0016,9.0016,9.0016,9.0016,9.0016,9.0016,9.0016,9.0016,9.0016,9.0016,9.0016,9.0016,9.0016,9.0016,9.0016,9.0016,9.0016,9.0016,9.0016,8.9979,8.9865,8.9803,8.975,8.9279,8.9103,8.8982,8.8686,8.8612,8.9322,9.2575,9.3509,9.4295,9.766,9.8557,9.8557,9.8557,9.8557,9.8557,9.8557,9.8557,9.8557,9.8557,9.8557,9.8557,9.8557,9.8557,9.8557,9.8557,9.8557,9.8819,9.9679,9.9753,9.9454,9.8632,9.8557,9.8557,9.8557,9.8557,9.8557,9.8557,9.8557,9.8557,9.8557,9.8557,9.8557,9.8557,9.8557,9.8557,9.8557,9.8557,9.8557,9.8557,9.8669,9.8856,6.887,6.8993,6.8993,6.8993,6.8993,6.8122,6.472,6.0794,5.6906,5.3653,4.9727,4.797,5.1522,5.4513,5.7504,6.091,6.2901,6.5379,6.9317,7.0554,7.2542,7.6674,7.8636,7.9826,8.0341,8.3046,8.4925,8.5292,8.8178,8.9937,8.9937,8.9973,9.0016,9.0016,9.0016,9.0016,9.0016,9.0016,9.0016,9.0016,9.0016,9.0016,9.0016,9.0016,9.0016,9.0016,9.0016,9.0016,9.0016,9.0016,9.0016,9.0016,9.0016,9.0016,9.0016,9.0016,8.9977,8.9889,8.9682,8.9545,8.9468,8.9094,8.8982,8.8907,8.8686,8.8612,8.9247,9.2276,9.3285,9.422,9.7286,9.8333,9.8557,9.8557,9.8557,9.8557,9.8557,9.8557,9.8557,9.8557,9.8557,9.8557,9.8557,9.8557,9.8557,9.8557,9.8557,9.8557,9.8557,9.8557,9.8557,9.8557,9.8557,9.8557,9.8557,9.8557,9.8557,9.8557,9.8557,9.8557,9.8557,9.8557,9.8557,9.8557,9.8557,9.8557,9.8557,9.8557,9.8557,9.8557,9.8557,9.8669,6.8235,6.8993,6.8993,6.8993,6.8993,6.8122,6.472,6.3449,6.2065,5.8775,5.7594,5.8588,6.3299,6.4732,6.6253,6.9554,7.1572,7.2589,7.1984,7.4273,7.632,7.7061,7.8472,7.9928,8.1446,8.35,8.53,8.6709,8.8577,8.9666,8.9666,8.9883,9.0016,9.0016,9.0016,9.0016,9.0016,9.0016,9.0016,9.0016,9.0016,9.0016,9.0016,9.0016,9.0016,9.0016,9.0016,9.0016,9.0016,9.0016,9.0016,9.0016,9.0016,9.0016,9.0016,9.0016,8.9854,8.9632,8.9634,8.9477,8.9206,8.8832,8.8686,8.8649,8.8649,8.8612,8.9023,9.093,9.2463,9.3958,9.5865,9.7435,9.8557,9.8557,9.8557,9.8557,9.8557,9.8557,9.8557,9.8557,9.8557,9.8557,9.8557,9.8557,9.8557,9.8557,9.8557,9.8557,9.8557,9.8557,9.8557,9.8557,9.8557,9.8557,9.8557,9.8557,9.8557,9.8557,9.8557,9.8557,9.8557,9.8557,9.8557,9.8557,9.8557,9.8557,9.8557,9.8557,9.8557,9.8557,9.8557,9.8557,6.8085,6.8993,6.8993,6.8993,6.8993,6.8646,6.7113,6.5318,6.3561,6.2103,6.0383,5.9747,6.1953,6.467,6.7127,6.8571,7.1787,7.4245,7.4544,7.5854,7.7123,7.8158,7.8815,7.988,8.1667,8.3352,8.5075,8.6837,8.8489,8.9468,8.9618,8.9583,8.9685,8.998,8.9867,8.9862,9.0016,9.0016,9.0016,9.0016,9.0016,9.0016,9.0016,9.0016,9.0016,9.0016,9.0016,9.0016,9.0016,9.0016,9.0016,9.0016,9.0016,8.9903,8.9785,8.9783,8.9601,8.9375,8.9307,8.9094,8.887,8.8686,8.8612,8.8612,8.8612,8.8612,8.8985,9.0668,9.2313,9.3883,9.5566,9.7286,9.8557,9.8557,9.8557,9.8557,9.8557,9.8557,9.8557,9.8557,9.8557,9.8557,9.8557,9.8557,9.8557,9.8557,9.8557,9.8557,9.8557,9.8557,9.8557,9.8557,9.8557,9.8557,9.8557,9.8557,9.8557,9.8557,9.8557,9.8557,9.8557,9.8557,9.8557,9.8557,9.8557,9.8557,9.8557,9.8557,9.8557,9.8557,9.8557,9.8557,6.659,6.7749,6.7936,6.8795,6.8993,6.8993,6.8993,6.7076,6.5244,6.5244,6.3337,6.1593,6.1593,6.4645,6.7113,6.7113,7.0927,7.4329,7.5667,7.6602,7.7612,7.8958,7.907,7.9893,8.2093,8.3328,8.4916,8.7175,8.8473,8.9281,8.9468,8.9317,8.94,8.9764,8.9621,8.9642,8.9884,8.9893,8.9942,9.0016,9.0016,9.0016,9.0016,9.0016,9.0016,9.0016,9.0016,9.0016,9.0016,8.9941,8.9903,8.9902,8.9892,8.9734,8.9506,8.9608,8.9395,8.9151,8.899,8.8795,8.8612,8.8612,8.8612,8.8612,8.8612,8.8612,8.8911,9.0182,9.1677,9.3285,9.4968,9.665,9.7996,9.8445,9.8557,9.8557,9.8557,9.8557,9.8557,9.8557,9.8557,9.8557,9.8557,9.8557,9.8557,9.8557,9.8557,9.8557,9.8557,9.8557,9.8557,9.8557,9.8557,9.8557,9.8557,9.8557,9.8557,9.8557,9.8557,9.8557,9.8557,9.8557,9.8557,9.8557,9.8557,9.8557,9.8557,9.8557,9.8557,9.8557,9.8557,9.8557,6.2477,6.4197,6.4982,6.8235,6.8993,6.8993,6.8993,6.887,6.8758,6.8758,6.8646,6.847,6.847,6.8721,6.887,6.887,7.1712,7.3955,7.432,7.6826,7.8771,7.907,7.8921,8.005,8.334,8.3858,8.5237,8.8305,8.8832,8.9057,8.9057,8.9166,8.9249,8.9278,8.9256,8.934,8.9601,8.9638,8.9746,9.0016,9.0016,9.0016,9.0016,9.0016,9.0016,9.0016,9.0016,9.0016,8.9979,8.9713,8.9637,8.9632,8.9633,8.9472,8.9278,8.9524,8.9352,8.9011,8.8758,8.8649,8.8612,8.8612,8.8612,8.8612,8.8612,8.8612,8.8649,8.8724,8.9995,9.1677,9.3248,9.4893,9.6575,9.8146,9.8557,9.8557,9.8557,9.8557,9.8557,9.8557,9.8557,9.8557,9.8557,9.8557,9.8557,9.8557,9.8557,9.8557,9.8557,9.8557,9.8557,9.8557,9.8557,9.8557,9.8557,9.8557,9.8557,9.8557,9.8557,9.8557,9.8557,9.8557,9.8557,9.8557,9.8557,9.8557,9.8557,9.8557,9.8557,9.8557,9.8557,9.8557,6.3225,6.558,6.6627,7.1039,7.1338,7.0814,7.1899,7.0515,6.9319,7.0291,6.973,6.8993,6.8993,6.8993,6.8993,6.8993,7.1749,7.3918,7.3983,7.6722,7.8741,7.8883,7.8808,8.005,8.3452,8.3788,8.4755,8.6854,8.8088,8.887,8.9019,8.8931,8.8969,8.9206,8.9232,8.9344,8.9618,8.981,8.9901,9.0016,9.0016,9.0016,9.0016,9.0016,8.9903,8.9751,8.9751,8.9653,8.9493,8.9379,8.9361,8.934,8.9358,8.9244,8.912,8.9208,8.9057,8.8724,8.8649,8.8612,8.8612,8.8612,8.8612,8.8612,8.8612,8.8612,8.8612,8.8612,8.9845,9.1304,9.1864,9.321,9.4818,9.6538,9.6912,9.7211,9.8295,9.8557,9.8557,9.8557,9.8557,9.8557,9.8557,9.8557,9.8557,9.8557,9.8557,9.8557,9.8557,9.8557,9.8557,9.8557,9.8557,9.8557,9.8557,9.8557,9.8557,9.8557,9.8557,9.8557,9.8557,9.8557,9.8557,9.8557,9.8557,9.8557,9.8557,9.8557,9.8557,9.8557,9.8557,9.8557,5.8551,6.1879,6.4197,6.8646,7.0553,7.1637,7.2759,7.1787,7.0777,7.1263,7.0515,6.9655,6.9132,6.8993,6.8993,6.8993,7.1749,7.388,7.388,7.6647,7.8704,7.8704,7.8704,7.9825,8.2667,8.2928,8.3826,8.5957,8.7153,8.8088,8.887,8.8724,8.8724,8.9019,8.9019,8.9132,8.9431,8.9602,8.9747,8.986,8.9795,8.9829,9.0018,8.9899,8.9745,8.9481,8.9486,8.9383,8.9227,8.9189,8.9168,8.9169,8.9169,8.9058,8.8915,8.9001,8.887,8.8612,8.8612,8.8612,8.8612,8.8612,8.8612,8.8612,8.8612,8.8612,8.8612,8.8612,8.9434,9.0444,9.1004,9.1939,9.3136,9.4781,9.5603,9.6314,9.7473,9.8146,9.8557,9.8557,9.8557,9.8557,9.8557,9.8557,9.8557,9.8557,9.8557,9.8557,9.8557,9.8557,9.8557,9.8557,9.8557,9.8557,9.8557,9.8557,9.8557,9.8557,9.8557,9.8557,9.8557,9.8557,9.8557,9.8557,9.8557,9.8258,9.7697,9.8258,9.8258,9.7697,9.8258,9.8557,4.8568,5.283,5.7242,6.0981,6.6515,7.1114,7.1301,7.2572,7.3282,7.1674,7.1375,7.0927,6.9319,6.9057,6.9068,6.8993,7.1712,7.3806,7.388,7.661,7.8666,7.8704,7.8704,7.9377,8.1022,8.1209,8.2555,8.5733,8.6032,8.6817,8.8462,8.8612,8.8612,8.8612,8.8612,8.8795,8.9019,8.9057,8.9244,8.9614,8.9378,8.9505,8.9977,8.9715,8.9468,8.9223,8.9215,8.9206,8.9206,8.9057,8.9019,8.9019,8.9019,8.887,8.8649,8.8945,8.887,8.8612,8.8612,8.8612,8.8612,8.8612,8.8612,8.8612,8.8612,8.8612,8.8612,8.8612,8.8612,8.8985,9.0668,9.1079,9.149,9.3061,9.4669,9.5902,9.594,9.7286,9.8445,9.8445,9.8482,9.8557,9.8557,9.8557,9.8557,9.8557,9.8557,9.8557,9.8557,9.8557,9.8557,9.8557,9.8557,9.8557,9.8557,9.8557,9.852,9.8445,9.8445,9.8445,9.837,9.837,9.837,9.837,9.837,9.7585,9.594,9.7585,9.7547,9.5977,9.7622,9.837,5.4791,5.384,5.4027,6.573,6.6477,6.5543,7.0291,7.0852,7.0553,7.1226,7.231,7.231,6.9506,6.9955,7.0328,6.918,7.074,7.246,7.3693,7.5675,7.7432,7.8591,7.8704,7.889,7.9377,8.0536,8.162,8.2517,8.476,8.6293,8.6779,8.7976,8.8612,8.8612,8.8832,8.8945,8.9019,8.9319,8.9431,8.9319,8.9433,8.9478,8.9432,8.9354,8.9243,8.9074,8.9082,8.8982,8.8795,8.8724,8.8724,8.8724,8.8724,8.8686,8.8612,8.8686,8.8686,8.8612,8.8612,8.8612,8.8612,8.8612,8.8612,8.8612,8.8612,8.8612,8.8612,8.8612,8.8612,8.8761,8.921,8.9322,8.9733,9.1416,9.2163,9.2836,9.3958,9.5528,9.6725,9.6725,9.7697,9.8557,9.8557,9.8557,9.8557,9.8557,9.8557,9.8557,9.8557,9.8557,9.8557,9.8557,9.8557,9.8557,9.8557,9.8557,9.8034,9.68,9.6725,9.6164,9.493,9.4893,9.4893,9.4893,9.4893,9.4669,9.422,9.4669,9.4631,9.422,9.4669,9.4893,4.8306,4.7484,4.8194,5.6831,5.8214,5.9187,6.5804,6.7076,6.7749,7.074,7.2684,7.3058,7.0478,7.074,7.1039,7.0141,7.074,7.1712,7.2684,7.489,7.6722,7.7619,7.7731,7.7993,7.8666,7.9601,8.0498,8.1209,8.3003,8.4387,8.5097,8.6069,8.6892,8.7565,8.7714,8.8159,8.887,8.9206,8.9319,8.9132,8.9319,8.9319,8.9206,8.9055,8.9,8.9019,8.8907,8.8795,8.8612,8.8612,8.8612,8.8612,8.8612,8.8612,8.8612,8.8612,8.8612,8.8612,8.8612,8.8612,8.8612,8.8612,8.8612,8.8612,8.8612,8.8612,8.8612,8.8612,8.8612,8.8612,8.8612,8.8612,8.8873,8.9883,9.0631,9.1416,9.235,9.3809,9.4968,9.4968,9.5753,9.665,9.7361,9.751,9.7248,9.6538,9.6426,9.6426,9.6426,9.6426,9.6426,9.6426,9.6426,9.6426,9.6426,9.6426,9.6015,9.5042,9.4968,9.4519,9.3547,9.3509,9.3509,9.3509,9.3509,9.3173,9.2537,9.321,9.3173,9.2537,9.321,9.2051,3.5295,3.7613,4.1614,4.1988,4.61,5.1821,0.0,6.1168,6.3598,6.8197,7.0628,7.1487,6.9955,7.0291,7.074,7.0553,7.0964,7.1338,7.1338,7.3918,7.5825,7.5825,7.6012,7.6722,7.8292,7.8442,7.9152,8.0835,8.1134,8.1919,8.3415,8.3676,8.4424,8.5807,8.5845,8.6593,8.8088,8.8537,8.8795,8.8724,8.8945,8.9057,8.9132,8.8795,8.8724,8.8982,8.8724,8.8612,8.8612,8.8612,8.8612,8.8612,8.8612,8.8612,8.8612,8.8612,8.8612,8.8612,8.8612,8.8612,8.8612,8.8612,8.8612,8.8612,8.8612,8.8612,8.8612,8.8612,8.8612,8.8612,8.8612,8.8612,8.8612,8.8612,8.9771,9.0892,9.0892,9.2126,9.3248,9.3248,9.3397,9.3996,9.5491,9.5715,9.5229,9.3734,9.3509,9.3509,9.3509,9.3509,9.3509,9.3509,9.3509,9.3509,9.3509,9.3509,9.3435,9.3248,9.3248,9.3173,9.2949,9.2949,9.2949,9.2949,9.2762,9.1977,9.0593,9.1827,9.1715,9.0369,9.179,8.9322,0.0,0.0,0.0,0.0,0.0,0.0,0.0,5.0924,5.2718,5.5036,5.7878,5.9822,5.9486,6.3823,6.6963,6.5617,6.8758,7.1338,7.1338,7.1899,7.2347,7.2347,7.3544,7.5002,7.6685,7.6834,7.7507,7.9077,8.0461,8.1396,8.1732,8.3041,8.3901,8.4237,8.4349,8.4541,8.484,8.6484,8.7194,8.7008,8.835,8.8945,8.8724,8.8649,8.8649,8.8686,8.8649,8.8612,8.8612,8.8612,8.8612,8.8612,8.8612,8.8612,8.8612,8.8612,8.8612,8.8612,8.8612,8.8612,8.8612,8.8612,8.8612,8.8612,8.8612,8.8612,8.8612,8.8612,8.8612,8.8612,8.8612,8.8612,8.8612,8.8612,8.8873,8.9098,8.9098,9.0444,9.164,9.164,9.265,9.3584,9.3921,9.3996,9.3883,9.3547,9.3509,9.3509,9.3509,9.3509,9.3509,9.3509,9.3509,9.3509,9.3509,9.3509,9.2949,9.1715,9.164,9.1004,8.9621,8.9584,8.9584,8.9584,8.8238,8.7378,8.7079,8.6144,8.5508,8.5209,8.5546,8.4985,0.0,0.0,0.0,0.0,0.0,0.0,0.0,0.0,0.0,0.0,0.0,5.5373,5.5373,0.0,6.5206,6.5206,6.8646,7.1338,7.1338,7.2048,7.2385,7.1721,7.2207,7.332,7.5077,7.5152,7.5787,7.7432,7.833,7.919,7.9937,8.0797,8.162,8.2517,8.2592,8.3008,8.3901,8.491,8.5321,8.5139,8.6069,8.6406,8.6219,8.7004,8.7378,8.7415,8.8275,8.8612,8.8612,8.8612,8.8612,8.8462,8.6854,8.6219,8.6219,8.6219,8.6219,8.6219,8.6219,8.6219,8.6219,8.6219,8.6219,8.6219,8.6219,8.6742,8.7378,8.7378,8.7976,8.8612,8.8612,8.8612,8.8612,8.8612,8.8612,8.8612,8.8612,8.9285,8.9883,8.9883,9.0556,9.1341,9.2201,9.164,9.1079,9.1079,9.1079,9.1079,9.1079,9.1079,9.0444,8.8799,9.0855,9.1341,8.8873,9.093,9.164,8.9995,8.9883,8.9135,8.7452,8.7378,8.7004,8.6219,8.5359,8.4947,8.4947,8.4162,8.3788,8.3714,8.1246,7.9638,0.0,0.0,0.0,0.0,0.0,0.0,0.0,0.0,0.0,0.0,0.0,0.0,0.0,0.0,0.0,6.3748,6.7636,7.0515,7.0862,7.2654,7.3542,7.2432,7.2058,7.246,7.3927,7.3993,7.4479,7.5862,7.5937,7.6498,7.7731,7.8105,7.8928,8.028,8.0685,8.1508,8.2891,8.3409,8.3564,8.3415,8.3831,0.0,8.3826,8.5134,8.5695,8.5733,8.7079,8.7677,8.7677,8.7677,8.7677,8.7415,8.4798,8.3788,8.3788,8.3788,8.3788,8.3788,8.3788,8.3788,8.3788,8.3788,8.3788,8.3788,8.3788,8.4648,0.0,8.5658,8.663,8.7677,8.7677,8.7901,8.8125,8.8125,8.8387,8.8612,8.8612,8.8612,8.8612,8.8612,8.8612,8.906,9.0444,8.9023,8.7452,8.6817,8.6705,8.6705,8.6705,8.7303,8.6705,8.405,8.7939,8.906,8.506,8.7789,8.9434,8.8649,8.7752,8.6443,8.476,8.4686,8.3788,8.1882,8.1246,8.1396,8.233,8.1695,8.1732,8.2218,7.661,7.3806,0.0,0.0,0.0,0.0,0.0,0.0,0.0,0.0,0.0,0.0,0.0,0.0,0.0,0.0,0.0,0.0,6.2028,6.7573,6.9237,7.2177,7.4077,7.3712,7.3834,7.3983,7.4039,7.4039,7.4113,7.43,7.4338,7.4375,7.4562,7.5899,0.0,0.0,0.0,7.9631,7.9818,8.1524,8.2275,8.2042,8.3601,8.4125,8.3788,8.4092,8.4162,8.405,8.4237,8.4312,8.4312,8.4312,8.4312,8.4274,8.3901,8.3788,8.3788,8.3788,8.3788,8.3788,8.3788,0.0,0.0,8.3788,8.3788,8.3788,8.3788,8.3901,8.405,8.405,8.42,8.4312,8.4312,8.5359,8.6406,8.6406,8.7527,8.8612,8.8612,8.8612,8.8612,8.8612,8.8612,8.8686,8.8873,8.6368,8.3302,8.0274,7.9825,7.9825,7.9825,8.248,8.42,8.3826,8.6854,0.0,8.8125,8.5957,8.577,8.8462,8.4536,8.1321,7.9601,7.9563,7.8105,7.5039,7.216,7.2833,7.7208,7.4217,7.4292,7.7021,6.918,6.7849,0.0,0.0,0.0,0.0,0.0,0.0,0.0,0.0,0.0,0.0,0.0,0.0,0.0,0.0,0.0,0.0,5.9523,6.3598,6.3449,6.6222,6.9419,7.2579,7.2712,7.2983,7.4179,7.3309,7.3093,7.3995,7.328,7.3254,7.4254,7.492,7.5221,7.5122,7.599,7.6874,7.7711,7.8699,7.9573,8.0371,8.108,8.1334,8.1199,8.2205,8.2592,8.2592,8.3415,8.3788,8.3788,8.3788,8.3788,8.3489,0.0,0.0,0.0,0.0,7.8031,7.8031,7.8031,7.8031,7.818,7.9152,7.9489,7.9638,8.0573,8.1508,8.2293,8.2293,8.3041,8.3788,8.3788,8.4274,8.476,8.476,8.5284,8.5807,8.5807,8.5807,8.5807,8.5807,8.6518,0.0,8.5957,8.4686,8.3302,8.1882,8.2442,8.3003,8.3003,8.5097,8.5882,8.3975,8.7565,8.8948,8.6032,8.7191,0.0,0.0,0.0,8.334,8.1732,7.975,0.0,0.0,0.0,7.0478,7.3432,6.9132,0.0,0.0,6.2861,5.9868,0.0,0.0,0.0,0.0,0.0,0.0,0.0,0.0,0.0,0.0,0.0,0.0,0.0,0.0,0.0,0.0,5.4022,5.7631,5.7869,6.1065,6.5368,7.0756,7.1845,7.2932,7.4956,7.3534,7.2943,7.4147,7.3283,7.2995,7.3835,7.4214,7.4141,7.3561,7.4159,7.5009,7.6049,7.6303,7.6957,7.8008,7.8116,7.831,7.8713,7.9866,8.061,8.0984,8.2031,8.2442,8.2405,8.2405,8.2405,8.1956,7.7432,7.5712,7.56,7.4329,7.388,7.388,7.388,7.388,7.4067,7.5301,7.5675,7.5899,7.7058,7.8255,7.9227,7.9227,8.0423,8.1769,8.1769,8.2405,8.3078,8.3078,8.3452,8.3788,8.3788,8.3788,8.3788,8.3788,8.4312,8.4274,8.2667,8.2405,8.2255,8.1807,8.233,8.2741,8.2741,8.4574,8.4985,8.2629,8.6443,8.7677,8.4088,8.6219,8.7116,8.5583,8.42,8.3115,8.2405,7.8704,7.6161,7.5039,7.059,6.9543,0.0,0.0,0.0,0.0,0.0,0.0,0.0,0.0,0.0,0.0,0.0,0.0,0.0,0.0,0.0,0.0,0.0,0.0,0.0,0.0,0.0,0.0,0.0,0.0,5.3728,5.8714,6.368,6.8534,7.2087,7.4861,7.6722,7.5339,7.4451,7.4607,7.4607,7.3935,7.2434,7.3695,7.3745,7.2212,7.3759,7.4651,7.4716,7.4944,7.4984,7.4794,7.507,7.5841,7.7049,7.725,7.8031,7.9182,7.922,7.9108,7.8853,7.8853,7.8853,7.8554,7.5226,7.403,7.4113,7.3918,7.388,7.388,7.388,7.388,7.388,7.3918,7.3955,7.3955,7.3993,7.4067,7.4105,7.4105,7.5301,7.661,7.661,7.8965,8.1358,8.1358,8.2592,8.3788,8.3788,8.3788,8.3788,8.3788,8.2517,8.0872,7.9152,7.8853,7.8367,7.6834,7.5264,0.0,7.4254,7.7058,7.9003,7.889,8.1956,8.3938,8.3788,8.0909,8.0461,8.3639,7.9339,7.732,7.8816,7.4179,7.1562,7.1487,6.8235,6.8945,7.3768,0.0,0.0,0.0,0.0,0.0,0.0,0.0,0.0,0.0,0.0,0.0,0.0,0.0,0.0,0.0,0.0,0.0,0.0,0.0,0.0,0.0,0.0,0.0,0.0,4.8994,5.5837,6.1994,6.4572,6.6588,6.8453,6.8096,6.7791,6.7933,7.117,7.2917,7.2475,7.3981,7.4057,7.23,7.2883,7.3179,7.3122,7.3274,7.3901,7.488,7.5006,7.5281,7.5695,7.5576,7.5735,7.6139,7.6064,7.599,7.5915,7.572,7.575,7.5658,7.3437,7.262,7.2487,7.1338,7.0852,7.0814,7.0889,7.0852,7.0964,7.2058,7.2432,7.2618,7.3684,7.3918,7.388,7.3964,7.4404,7.4806,7.474,7.56,7.6468,7.6385,7.6797,7.7208,7.7208,7.8068,7.889,7.889,7.7507,7.6871,7.8442,7.7844,7.7731,7.9377,7.9152,7.8778,7.8778,8.0723,8.2069,8.2069,8.3115,8.3788,8.3788,8.2741,8.2069,8.2106,7.9489,7.818,7.8704,7.5039,7.3544,7.4666,7.3619,7.0104,6.4047,0.0,0.0,0.0,0.0,0.0,0.0,0.0,0.0,0.0,0.0,0.0,0.0,0.0,0.0,0.0,0.0,0.0,0.0,0.0,0.0,0.0,0.0,0.0,0.0,0.0,0.0,5.9238,6.1102,0.0,6.4159,6.2803,6.1864,6.2007,6.5145,6.7839,6.9704,7.0844,7.1717,7.2365,7.2464,7.2476,7.24,7.2476,7.2742,7.3236,7.3236,7.3539,7.4109,7.3968,7.4131,7.4622,7.4548,7.4498,7.4335,7.3066,7.2271,7.1728,6.9936,6.8865,6.8331,6.8466,6.8429,6.8631,7.0546,7.1134,7.1245,7.235,7.2297,7.1749,7.16,7.1084,7.032,6.918,7.0134,7.1487,7.1421,7.2782,7.4179,7.4105,7.4067,7.403,7.3955,7.4815,7.5712,7.6377,7.6078,7.6069,7.6834,7.7694,7.833,7.8591,7.9601,8.0349,8.0349,8.0835,8.1358,8.1919,8.1956,8.1956,8.1956,8.1956,8.1283,7.9638,7.9003,7.818,7.7021,7.5563,7.4703,7.4591,7.2833,6.801,0.0,0.0,0.0,0.0,0.0,0.0,0.0,0.0,0.0,0.0,0.0,0.0,0.0,0.0,0.0,0.0,0.0,0.0,0.0,0.0,0.0,0.0,0.0,0.0,0.0,0.0,0.0,5.9439,6.071,0.0,0.0,0.0,0.0,5.676,5.7085,5.934,6.4048,6.4466,6.6857,7.1831,7.2059,7.2211,7.2362,7.2362,7.1565,6.9971,6.9971,7.0806,7.2362,7.2362,7.3117,7.4404,7.4404,7.4342,7.3972,7.0674,6.8395,6.6816,6.4872,6.3002,6.1837,6.5064,6.6265,6.6935,7.1769,7.3592,7.383,7.383,7.2747,7.0857,6.7749,6.5472,0.0,0.0,6.2695,6.644,6.6696,7.0418,7.417,7.4385,7.4451,7.4385,7.4133,7.4142,7.4553,7.5761,7.7436,7.7548,7.3871,0.0,7.9115,7.4591,7.6385,7.8292,7.8554,7.7208,7.6834,7.8404,7.8591,7.8591,7.8591,7.8591,7.7956,7.6498,7.7694,7.7171,7.4217,7.5413,7.4553,7.1188,6.6216,0.0,0.0,0.0,0.0,0.0,0.0,0.0,0.0,0.0,0.0,0.0,0.0,0.0,0.0,0.0,0.0,0.0,0.0,0.0,0.0,0.0,0.0,0.0,0.0,0.0,0.0,3.5717,4.016,4.8097,4.6859,4.5468,0.0,0.0,0.0,0.0,0.0,0.0,5.5582,5.8049,6.1163,6.4997,6.625,6.8072,7.0616,7.0616,7.0388,6.9971,6.9971,7.0198,7.0616,7.0616,7.0833,7.1172,7.1172,7.1131,7.0668,6.4821,6.2918,6.3437,6.1615,5.9077,5.6579,5.744,5.7692,5.7813,5.9342,6.2187,6.5227,6.5329,6.4996,6.4379,6.3425,0.0,0.0,0.0,0.0,6.049,6.4169,6.7092,6.9985,7.3576,7.4458,7.442,7.4383,7.5343,7.452,6.8715,6.9006,6.9057,6.5527,6.6002,0.0,7.3256,7.2561,7.2833,7.6498,7.5525,7.5152,7.6797,7.6984,7.6984,7.6984,7.6984,7.6797,7.6385,7.5563,7.5825,7.7395,7.4366,7.1076,6.7786,0.0,0.0,0.0,0.0,0.0,0.0,0.0,0.0,0.0,0.0,0.0,0.0,0.0,0.0,0.0,0.0,0.0,0.0,0.0,0.0,0.0,0.0,0.0,0.0,0.0,0.0,0.0,3.0243,3.5276,4.2635,4.062,3.8316,0.0,0.0,0.0,0.0,0.0,0.0,0.0,0.0,0.0,5.691,5.8619,6.1466,6.5605,6.6364,6.7465,6.8908,6.9629,6.9971,6.9971,6.9971,6.9971,6.9857,6.7693,6.6326,6.5339,6.1504,5.9616,5.8682,0.0,0.0,0.0,0.0,5.1334,5.162,5.4045,5.7661,6.0915,5.9501,0.0,0.0,0.0,0.0,0.0,0.0,0.0,5.7018,6.0548,6.4948,6.911,7.1838,7.2476,7.2682,7.3367,7.1387,6.785,6.23,6.2673,6.2289,5.7255,6.0092,0.0,0.0,0.0,7.0983,7.3001,7.3702,7.4357,7.5189,7.5264,7.5264,7.5264,7.5264,7.5264,7.5264,7.5077,7.5114,7.5488,7.145,6.6963,0.0,0.0,0.0,0.0,0.0,0.0,0.0,0.0,0.0,0.0,0.0,0.0,0.0,0.0,0.0,0.0,0.0,0.0,0.0,0.0,0.0,0.0,0.0,0.0,0.0,0.0,0.0,0.0,0.0,3.251,3.9864,0.0,0.0,0.0,0.0,0.0,0.0,0.0,0.0,0.0,0.0,0.0,0.0,0.0,5.3152,5.8011,5.9986,6.234,6.5149,6.6857,6.7655,6.7693,6.7883,6.7996,6.7731,6.2985,0.0,5.9606,5.8041,0.0,0.0,0.0,0.0,0.0,0.0,0.0,0.0,0.0,0.0,0.0,0.0,0.0,0.0,0.0,0.0,0.0,0.0,0.0,0.0,0.0,0.0,6.868,6.868,6.9325,6.9905,6.9768,6.4005,5.8199,5.5842,5.6916,5.6068,0.0,0.0,0.0,0.0,0.0,0.0,6.8993,7.1851,7.3834,7.3619,7.3544,7.3619,7.3843,7.388,7.3955,7.4179,7.474,7.3768,7.0814,6.7562,0.0,0.0,0.0,0.0,0.0,0.0,0.0,0.0,0.0,0.0,0.0,0.0,0.0,0.0,0.0,0.0,0.0,0.0,0.0,0.0,0.0,0.0,0.0,0.0,0.0,0.0,0.0,0.0,0.0,0.0,0.0,0.0,0.0,0.0,0.0,0.0,0.0,0.0,0.0,0.0,0.0,0.0,0.0,0.0,0.0,0.0,0.0,0.0,0.0,0.0,5.4708,5.5544,5.5582,5.6986,5.7632,5.7404,5.3759,5.4367,5.7212,4.7427,0.0,0.0,0.0,0.0,0.0,0.0,0.0,0.0,0.0,0.0,0.0,0.0,0.0,0.0,0.0,0.0,0.0,0.0,0.0,0.0,0.0,0.0,6.1808,6.1808,6.5984,6.7388,5.7984,0.0,0.0,0.0,0.0,0.0,0.0,0.0,0.0,0.0,0.0,0.0,6.68,7.0148,7.2178,7.2095,7.1908,7.2347,7.3768,7.388,7.4479,7.5862,7.1076,6.7936,0.0,0.0,0.0,0.0,0.0,0.0,0.0,0.0,0.0,0.0,0.0,0.0,0.0,0.0,0.0,0.0,0.0,0.0,0.0,0.0,0.0,0.0,0.0,0.0,0.0,0.0,0.0,0.0,0.0,0.0,0.0,0.0,0.0,0.0,0.0,0.0,0.0,0.0,0.0,0.0,0.0,0.0,0.0,0.0,0.0,0.0,0.0,0.0,0.0,0.0,0.0,0.0,0.0,0.0,0.0,0.0,0.0,0.0,4.8748,4.4382,0.0,0.0,0.0,0.0,0.0,0.0,0.0,0.0,0.0,0.0,0.0,0.0,0.0,0.0,0.0,0.0,0.0,0.0,0.0,0.0,0.0,0.0,0.0,0.0,0.0,0.0,0.0,0.0,0.0,0.0,0.0,0.0,0.0,0.0,0.0,0.0,0.0,0.0,0.0,0.0,6.2841,6.9748,7.3755,7.1943,7.1487,7.1674,7.2497,7.2534,7.216,7.1301,6.8235,0.0,0.0,0.0,0.0,0.0,0.0,0.0,0.0,0.0,0.0,0.0,0.0,0.0,0.0,0.0,0.0,0.0,0.0,0.0,0.0,0.0,0.0,0.0,0.0,0.0,0.0,0.0,0.0,0.0,0.0,0.0,0.0,0.0,0.0,0.0,0.0,0.0,0.0,0.0,0.0,0.0,0.0,0.0,0.0,0.0,0.0,0.0,0.0,0.0,0.0,0.0,0.0,0.0,0.0,0.0,0.0,0.0,0.0,0.0,4.3926,3.5688,0.0,0.0,0.0,0.0,0.0,0.0,0.0,0.0,0.0,0.0,0.0,0.0,0.0,0.0,0.0,0.0,0.0,0.0,0.0,0.0,0.0,0.0,0.0,0.0,0.0,0.0,0.0,0.0,0.0,0.0,0.0,0.0,0.0,0.0,0.0,0.0,0.0,0.0,0.0,0.0,5.9673,6.9863,7.5669,7.2119,7.1889,7.1936,7.1899,7.2235,7.0889,6.7225,6.5356,0.0,0.0,0.0,0.0,0.0,0.0,0.0,0.0,0.0,0.0,0.0,0.0,0.0,0.0,0.0,0.0,0.0,0.0,0.0,0.0,0.0,0.0,0.0,0.0,0.0,0.0,0.0,0.0,0.0,0.0,0.0,0.0,0.0,0.0,0.0,0.0,0.0,0.0,0.0,0.0,0.0,0.0,0.0,0.0,0.0,0.0,0.0,0.0,0.0,0.0,0.0,0.0,0.0,0.0,0.0,0.0,0.0,0.0,0.0,0.0,0.0,0.0,0.0,0.0,0.0,0.0,0.0,0.0,0.0,0.0,0.0,0.0,0.0,0.0,0.0,0.0,0.0,0.0,0.0,0.0,0.0,0.0,0.0,0.0,0.0,0.0,0.0,0.0,0.0,0.0,0.0,0.0,0.0,0.0,0.0,0.0,0.0,0.0,0.0,0.0,0.0,5.9661,6.9982,7.5821,7.2282,7.3133,7.3871,7.3656,7.5039,7.388,6.9095,0.0,0.0,0.0,0.0,0.0,0.0,0.0,0.0,0.0,0.0,0.0,0.0,0.0,0.0,0.0,0.0,0.0,0.0,0.0,0.0,0.0,0.0,0.0,0.0,0.0,0.0,0.0,0.0,0.0,0.0,0.0,0.0,0.0,0.0,0.0,0.0,0.0,0.0,0.0,0.0,0.0,0.0,0.0,0.0,0.0,0.0,0.0,0.0,0.0,0.0,0.0,0.0,0.0,0.0,0.0,0.0,0.0,0.0,0.0,0.0,0.0,0.0,0.0,0.0,0.0,0.0,0.0,0.0,0.0,0.0,0.0,0.0,0.0,0.0,0.0,0.0,0.0,0.0,0.0,0.0,0.0,0.0,0.0,0.0,0.0,0.0,0.0,0.0,0.0,0.0,0.0,0.0,0.0,0.0,0.0,0.0,0.0,0.0,0.0,0.0,0.0,0.0,5.9411,7.0005,7.6622,7.5227,7.5424,7.5592,7.5517,7.5114,7.1487,6.3536,0.0,0.0,0.0,0.0,0.0,0.0,0.0,0.0,0.0,0.0,0.0,0.0,0.0,0.0,0.0,0.0,0.0,0.0,0.0,0.0,0.0,0.0,0.0,0.0,0.0,0.0,0.0,0.0,0.0,0.0,0.0,0.0,0.0,0.0,0.0,0.0,0.0,0.0,0.0,0.0,0.0,0.0,0.0,0.0,0.0,0.0,0.0,0.0,0.0,0.0,0.0,0.0,0.0,0.0,0.0,0.0,0.0,0.0,0.0,0.0,0.0,0.0,0.0,0.0,0.0,0.0,0.0,0.0,0.0,0.0,0.0,0.0,0.0,0.0,0.0,0.0,0.0,0.0,0.0,0.0,0.0,0.0,0.0,0.0,0.0,0.0,0.0,0.0,0.0,0.0,0.0,0.0,0.0,0.0,0.0,0.0,0.0,0.0,0.0,0.0,0.0,0.0,5.7866,6.9463,7.7066,7.6496,7.6987,7.6961,7.5994,7.3796,6.8197,5.8289,0.0,0.0,0.0,0.0,0.0,0.0,0.0,0.0,0.0,0.0,0.0,0.0,0.0,0.0,0.0,0.0,0.0,0.0,0.0,0.0,0.0,0.0,0.0,0.0,0.0,0.0,0.0,0.0,0.0,0.0,0.0,0.0,0.0,0.0,0.0,0.0,0.0,0.0,0.0,0.0,0.0,0.0,0.0,0.0,0.0,0.0,0.0,0.0,0.0,0.0,0.0,0.0,0.0,0.0,0.0,0.0,0.0,0.0,0.0,0.0,0.0,0.0,0.0,0.0,0.0,0.0,0.0,0.0,0.0,0.0,0.0,0.0,0.0,0.0,0.0,0.0,0.0,0.0,0.0,0.0,0.0,0.0,0.0,0.0,0.0,0.0,0.0,0.0,0.0,0.0,0.0,0.0,0.0,0.0,0.0,0.0,0.0,0.0,0.0,0.0,0.0,0.0,5.4666,6.8148,7.6814,7.4885,7.7441,7.7914,7.4553,7.1076,6.4832,0.0,0.0,0.0,0.0,0.0,0.0,0.0,0.0,0.0,0.0,0.0,0.0,0.0,0.0,0.0,0.0,0.0,0.0,0.0,0.0,0.0,0.0,0.0,0.0,0.0,0.0,0.0,0.0,0.0,0.0,0.0,0.0,0.0,0.0,0.0,0.0,0.0,0.0,0.0,0.0,0.0,0.0,0.0,0.0,0.0,0.0,0.0,0.0,0.0,0.0,0.0,0.0,0.0,0.0,0.0,0.0,0.0,0.0,0.0,0.0,0.0,0.0,0.0,0.0,0.0,0.0,0.0,0.0,0.0,0.0,0.0,0.0,0.0,0.0,0.0,0.0,0.0,0.0,0.0,0.0,0.0,0.0,0.0,0.0,0.0,0.0,0.0,0.0,0.0,0.0,0.0,0.0,0.0,0.0,0.0,0.0,0.0,0.0,0.0,0.0,0.0,0.0,0.0,5.4025,6.3061,7.0458,7.4479,7.5559,7.5537,7.4479,7.2058,6.5917,5.4924,0.0,0.0,0.0,0.0,0.0,0.0,0.0,0.0,0.0,0.0,0.0,0.0,0.0,0.0,0.0,0.0,0.0,0.0,0.0,0.0,0.0,0.0,0.0,0.0,0.0,0.0,0.0,0.0,0.0,0.0,0.0,0.0,0.0,0.0,0.0,0.0,0.0,0.0,0.0,0.0,0.0,0.0,0.0,0.0,0.0,0.0,0.0,0.0,0.0,0.0,0.0,0.0,0.0,0.0,0.0,0.0,0.0,0.0,0.0,0.0,0.0,0.0,0.0,0.0,0.0,0.0,0.0,0.0,0.0,0.0,0.0,0.0,0.0,0.0,0.0,0.0,0.0,0.0,0.0,0.0,0.0,0.0,0.0,0.0,0.0,0.0,0.0,0.0,0.0,0.0,0.0,0.0,0.0,0.0,0.0,0.0,0.0,0.0,0.0,0.0,0.0,0.0,0.0,6.1011,6.8563,7.3358,7.417,7.4122,7.3469,6.989,6.3299,5.298,0.0,0.0,0.0,0.0,0.0,0.0,0.0,0.0,0.0,0.0,0.0,0.0,0.0,0.0,0.0,0.0,0.0,0.0,0.0,0.0,0.0,0.0,0.0,0.0,0.0,0.0,0.0,0.0,0.0,0.0,0.0,0.0,0.0,0.0,0.0,0.0,0.0,0.0,0.0,0.0,0.0,0.0,0.0,0.0,0.0,0.0,0.0,0.0,0.0,0.0,0.0,0.0,0.0,0.0,0.0,0.0,0.0,0.0,0.0,0.0,0.0,0.0,0.0,0.0,0.0,0.0,0.0,0.0,0.0,0.0,0.0,0.0,0.0,0.0,0.0,0.0,0.0,0.0,0.0,0.0,0.0,0.0,0.0,0.0,0.0,0.0,0.0,0.0,0.0,0.0,0.0,0.0,0.0,0.0,0.0,0.0,0.0,0.0,0.0,0.0,0.0,0.0,0.0,6.1084,6.9781,7.1571,7.3065,7.3265,7.1707,6.568,5.8289,4.9708,4.171,0.0,0.0,0.0,0.0,0.0,0.0,0.0,0.0,0.0,0.0,0.0,0.0,0.0,0.0,0.0,0.0,0.0,0.0,0.0,0.0,0.0,0.0,0.0,0.0,0.0,0.0,0.0,0.0,0.0,0.0,0.0,0.0,0.0,0.0,0.0,0.0,0.0,0.0,0.0,0.0,0.0,0.0,0.0,0.0,0.0,0.0,0.0,0.0,0.0,0.0,0.0,0.0,0.0,0.0,0.0,0.0,0.0,0.0,0.0,0.0,0.0,0.0,0.0,0.0,0.0,0.0,0.0,0.0,0.0,0.0,0.0,0.0,0.0,0.0,0.0,0.0,0.0,0.0,0.0,0.0,0.0,0.0,0.0,0.0,0.0,0.0,0.0,0.0,0.0,0.0,0.0,0.0,0.0,0.0,0.0,0.0,0.0,0.0,0.0,0.0,0.0,0.0,5.7026,6.4149,6.9682,7.0347,7.0235,6.9832,6.7038,6.0719,4.9857,4.3803,0.0,0.0,0.0,0.0,0.0,0.0,0.0,0.0,0.0,0.0,0.0,0.0,0.0,0.0,0.0,0.0,0.0,0.0,0.0,0.0,0.0,0.0,0.0,0.0,0.0,0.0,0.0,0.0,0.0,0.0,0.0,0.0,0.0,0.0,0.0,0.0,0.0,0.0,0.0,0.0,0.0,0.0,0.0,0.0,0.0,0.0,0.0,0.0,0.0,0.0,0.0,0.0,0.0,0.0,0.0,0.0,0.0,0.0,0.0,0.0,0.0,0.0,0.0,0.0,0.0,0.0,0.0,0.0,0.0,0.0,0.0,0.0,0.0,0.0,0.0,0.0,0.0,0.0,0.0,0.0,0.0,0.0,0.0,0.0,0.0,0.0,0.0,0.0,0.0,0.0,0.0,0.0,0.0,0.0,0.0,0.0,0.0,0.0,0.0,0.0,0.0,0.0,4.897,5.7672,6.736,6.8844,6.887,6.8048,6.6328,6.0383,4.883,4.3483,0.0,0.0,0.0,0.0,0.0,0.0,0.0,0.0,0.0,0.0,0.0,0.0,0.0,0.0,0.0,0.0,0.0,0.0,0.0,0.0,0.0,0.0,0.0,0.0,0.0,0.0,0.0,0.0,0.0,0.0,0.0,0.0,0.0,0.0,0.0,0.0,0.0,0.0,0.0,0.0,0.0,0.0,0.0,0.0,0.0,0.0,0.0,0.0,0.0,0.0,0.0,0.0,0.0,0.0,0.0,0.0,0.0,0.0,0.0,0.0,0.0,0.0,0.0,0.0,0.0,0.0,0.0,0.0,0.0,0.0,0.0,0.0,0.0,0.0,0.0,0.0,0.0,0.0,0.0,0.0,0.0,0.0,0.0,0.0,0.0,0.0,0.0,0.0,0.0,0.0,0.0,0.0,0.0,0.0,0.0,0.0,0.0,0.0,0.0,0.0,0.0,0.0,0.0,5.207,6.3643,6.6997,6.7823,6.6216,6.4571,5.8813,4.7577,0.0,0.0,0.0,0.0,0.0,0.0,0.0,0.0,0.0,0.0,0.0,0.0,0.0,0.0,0.0,0.0,0.0,0.0,0.0,0.0,0.0,0.0,0.0,0.0,0.0,0.0,0.0,0.0,0.0,0.0,0.0,0.0,0.0,0.0,0.0,0.0,0.0,0.0,0.0,0.0,0.0,0.0,0.0,0.0,0.0,0.0,0.0,0.0,0.0,0.0,0.0,0.0,0.0,0.0,0.0,0.0,0.0,0.0,0.0,0.0,0.0,0.0,0.0,0.0,0.0,0.0,0.0,0.0,0.0,0.0,0.0,0.0,0.0,0.0,0.0,0.0,0.0,0.0,0.0,0.0,0.0,0.0,0.0,0.0,0.0,0.0,0.0,0.0,0.0,0.0,0.0,0.0,0.0,0.0,0.0,0.0,0.0,0.0,0.0,0.0,0.0,0.0,0.0,0.0,5.1378,5.6134,6.1604,6.4744,6.4384,6.2888,5.7654,4.7502,0.0,0.0,0.0,0.0,0.0,0.0,0.0,0.0,0.0,0.0,0.0,0.0,0.0,0.0]}],[{"header":{"parameterUnit":"kt","parameterCategory":2,"dx":1,"dy":1,"la1":29.285339999999998,"la2":30.599998999999997,"lo1":-89.70041500000002,"lo2":-87.6738589999976,"nx":112,"ny":82,"refTime":"2022-10-27T06:00:00:Z","depth":0,"parameterNumber":2,"parameterNumberName":"V-component_of_WINDS"},"data":[2.8296,2.9313,2.977,2.4824,2.1885,1.8749,1.2769,1.1471,1.1236,1.0448,0.9089,0.8033,0.8053,0.8402,0.8093,0.634,0.6174,0.6168,0.0,0.5228,0.4988,0.5355,0.5318,0.5769,0.7104,0.7265,0.77,0.8854,0.9039,0.9487,1.0505,1.0957,1.1755,1.2836,1.3152,1.3449,1.3733,1.3831,1.3878,1.3884,1.4484,1.4774,1.4794,1.5367,1.5625,1.5625,1.5625,1.5625,1.5625,1.5625,1.5625,1.5625,1.5625,1.5625,1.5625,1.5625,1.5625,1.5625,1.5625,1.5625,1.5625,1.5625,1.5625,1.5625,1.5625,1.5625,1.5625,1.5625,1.5625,1.5625,1.5625,1.5625,1.5625,1.5625,1.5625,1.5658,1.5763,1.5941,1.6225,1.6745,1.6844,1.6956,1.7312,1.7378,1.7378,1.7378,1.7378,1.7378,1.7378,1.7378,1.7378,1.7378,1.7378,1.7378,1.7378,1.7378,1.7378,1.7378,1.7378,1.7378,1.7378,1.7378,1.7378,1.7378,1.7378,1.7378,1.7378,1.6956,1.6752,1.6752,1.6752,1.6752,2.4757,2.3899,2.2853,2.0695,1.9722,1.7549,1.066,0.9704,1.0284,1.0297,0.8427,0.68,0.6821,0.6499,0.6232,0.6043,0.6121,0.6002,0.0,0.4957,0.4755,0.5296,0.5915,0.6771,0.8028,0.861,0.9124,0.9803,1.0126,1.0456,1.0845,1.1405,1.2124,1.2994,1.3317,1.3601,1.3878,1.3878,1.393,1.4036,1.4537,1.482,1.4926,1.5407,1.5625,1.5625,1.5625,1.5625,1.5625,1.5625,1.5625,1.5625,1.5625,1.5625,1.5625,1.5625,1.5625,1.5625,1.5625,1.5625,1.5625,1.5625,1.5625,1.5625,1.5625,1.5625,1.5625,1.5625,1.5625,1.5625,1.5625,1.5625,1.5625,1.5625,1.5625,1.5658,1.5756,1.5961,1.6218,1.6534,1.6646,1.6712,1.6772,1.6785,1.6917,1.7319,1.7378,1.7378,1.7378,1.7378,1.7378,1.7378,1.7378,1.7378,1.7378,1.7378,1.7378,1.7378,1.7378,1.7378,1.7378,1.7378,1.7378,1.7378,1.7378,1.7378,1.7378,1.7378,1.7378,1.7378,1.7378,1.7378,1.9887,1.8471,1.7548,1.4358,1.1911,0.9744,0.7375,0.8568,1.0168,1.0185,0.8367,0.6805,0.6759,0.5977,0.5643,0.6596,0.6532,0.0,0.0,0.4452,0.4675,0.5657,0.7182,0.8223,0.8263,1.0235,1.1333,1.0522,1.1234,1.1709,1.1722,1.1748,1.215,1.3014,1.333,1.3607,1.3878,1.3878,1.4029,1.4332,1.4629,1.4919,1.5196,1.5493,1.5625,1.5625,1.5625,1.5625,1.5625,1.5625,1.5625,1.5625,1.5625,1.5625,1.5625,1.5625,1.5625,1.5625,1.5625,1.5625,1.5625,1.5625,1.5625,1.5625,1.5625,1.5625,1.5625,1.5625,1.5625,1.5625,1.5625,1.5625,1.5625,1.5625,1.5625,1.5704,1.6,1.6132,1.6192,1.6192,1.6337,1.6284,1.5723,1.5658,1.6066,1.7207,1.7378,1.7378,1.7378,1.7378,1.7378,1.7378,1.7378,1.7378,1.7378,1.7378,1.7378,1.7378,1.7378,1.7378,1.7378,1.7378,1.7378,1.7378,1.7378,1.7358,1.7319,1.7319,1.7319,1.7319,1.7358,1.7378,1.482,1.4429,1.3934,1.2183,1.1865,1.1208,0.8345,0.771,0.7748,0.7755,0.7244,0.0,0.0,0.0,0.6545,0.578,0.0,0.5752,0.5431,0.5339,0.6013,0.7938,0.8959,0.9715,1.0554,1.0581,1.0706,1.132,1.1386,1.1491,1.1709,1.2322,1.2875,1.333,1.362,1.3805,1.3878,1.3878,1.4029,1.4332,1.4629,1.4919,1.5196,1.5493,1.5625,1.5625,1.5625,1.5625,1.5625,1.5625,1.5625,1.5625,1.5625,1.5625,1.5625,1.5625,1.5625,1.5625,1.5625,1.5625,1.5625,1.5625,1.5625,1.5625,1.5625,1.5625,1.5625,1.5625,1.5625,1.5625,1.5625,1.5625,1.5625,1.5625,1.5625,1.5651,1.573,1.577,1.5789,1.5789,1.5829,1.5816,1.5658,1.633,1.7002,1.7326,1.7378,1.7378,1.7378,1.7378,1.7378,1.7378,1.7378,1.7378,1.7378,1.7378,1.7378,1.7378,1.7378,1.7378,1.7378,1.7378,1.7378,1.7378,1.7378,1.6956,1.6106,1.6106,1.6106,1.6126,1.6976,1.7378,1.1114,1.07,1.0082,0.9195,0.9352,0.92,0.7076,0.6351,0.6169,0.6168,0.0,0.0,0.0,0.0,0.0,0.0,0.6177,0.6676,0.6259,0.6748,0.7562,0.8788,0.9335,1.012,1.1412,1.1577,1.1742,1.2058,1.2262,1.2335,1.2276,1.2869,1.3291,1.3462,1.3733,1.3878,1.3878,1.3878,1.4095,1.4517,1.4688,1.4979,1.5374,1.5545,1.5625,1.5625,1.5625,1.5625,1.5625,1.5625,1.5625,1.5625,1.5625,1.5625,1.5625,1.5625,1.5625,1.5625,1.5625,1.5625,1.5625,1.5625,1.5625,1.5625,1.5625,1.5625,1.5625,1.5625,1.5625,1.5625,1.5625,1.5625,1.5625,1.5625,1.5625,1.5625,1.5625,1.5625,1.5625,1.5625,1.5625,1.5783,1.6277,1.6923,1.7378,1.7378,1.7378,1.7378,1.7378,1.7378,1.7378,1.7378,1.7378,1.7378,1.7378,1.7378,1.7378,1.7378,1.7378,1.7378,1.7378,1.7378,1.7378,1.7378,1.7378,1.7042,1.6363,1.6363,1.6363,1.6376,1.7062,1.7378,0.8382,0.7457,0.6511,0.6068,0.5894,0.5607,0.4946,0.0,0.5384,0.5421,0.0,0.4688,0.532,0.0,0.0,0.5679,0.7245,0.8219,0.7364,0.8518,0.9414,0.9264,0.9381,1.0054,1.1306,1.2823,1.3409,1.2638,1.3324,1.3574,1.31,1.3324,1.3482,1.3515,1.3752,1.3878,1.3878,1.3878,1.4181,1.4774,1.4774,1.5071,1.5625,1.5625,1.5625,1.5625,1.5625,1.5625,1.5625,1.5625,1.5625,1.5625,1.5625,1.5625,1.5625,1.5625,1.5625,1.5625,1.5625,1.5625,1.5625,1.5625,1.5625,1.5625,1.5625,1.5625,1.5625,1.5625,1.5625,1.5625,1.5625,1.5625,1.5625,1.5625,1.5625,1.5625,1.5625,1.5625,1.5625,1.5625,1.573,1.6152,1.7194,1.7266,1.722,1.7352,1.7378,1.7378,1.7378,1.7378,1.7378,1.7378,1.7378,1.7378,1.7378,1.7378,1.7378,1.7378,1.7378,1.7378,1.7378,1.7378,1.7378,1.7378,1.7378,1.7378,1.7378,1.7378,1.7378,1.7378,1.7378,1.7378,0.6629,0.6031,0.5525,0.544,0.5535,0.5631,0.0,0.0,0.0,0.6615,0.6291,0.6148,0.6574,0.6366,0.6441,0.7161,0.779,0.8249,0.8423,1.0403,1.1893,1.1834,1.2091,1.2289,1.2328,1.2638,1.2763,1.2592,1.2961,1.3245,1.3377,1.3436,1.3574,1.3792,1.3851,1.3878,1.3878,1.3878,1.4181,1.4774,1.4774,1.5071,1.5625,1.5625,1.5625,1.5625,1.5625,1.5625,1.5625,1.5625,1.5625,1.5625,1.5625,1.5625,1.5625,1.5625,1.5625,1.5625,1.5625,1.5625,1.5625,1.5625,1.5625,1.5625,1.5625,1.5625,1.5625,1.5625,1.5625,1.5625,1.5625,1.5625,1.5625,1.5625,1.5625,1.5625,1.5625,1.5625,1.5625,1.5625,1.6389,1.7108,1.7339,1.6587,1.6284,1.7233,1.7378,1.7378,1.7378,1.7378,1.7378,1.7378,1.7378,1.7378,1.7378,1.7378,1.7378,1.7378,1.7378,1.7378,1.7378,1.7378,1.7378,1.7378,1.7378,1.7378,1.7378,1.7378,1.7378,1.7378,1.7378,1.7378,0.5318,0.476,0.4388,0.4543,0.4661,0.0,0.0,0.5716,0.6149,0.7182,0.7091,0.7188,0.8085,0.8038,0.7994,0.8764,0.9384,0.9869,1.0159,1.1326,1.2091,1.1946,1.2058,1.221,1.2361,1.25,1.2579,1.2579,1.2994,1.3311,1.3462,1.3601,1.3739,1.3878,1.3878,1.3878,1.3878,1.4029,1.4332,1.4774,1.4913,1.5209,1.5625,1.5625,1.5625,1.5625,1.5625,1.5625,1.5625,1.5625,1.5625,1.5625,1.5625,1.5625,1.5625,1.5625,1.5625,1.5625,1.5625,1.5625,1.5625,1.5625,1.5625,1.5625,1.5625,1.5625,1.5625,1.5625,1.5625,1.5625,1.5625,1.5625,1.5625,1.5625,1.5625,1.5625,1.5625,1.5625,1.5625,1.5625,1.6099,1.6706,1.7134,1.6719,1.6706,1.7286,1.7378,1.7378,1.7378,1.7378,1.7378,1.7378,1.7378,1.7378,1.7378,1.7378,1.7378,1.7378,1.7378,1.7378,1.7378,1.7378,1.7378,1.7378,1.7378,1.7378,1.7378,1.7378,1.7378,1.7372,1.722,1.7233,0.4258,0.3847,0.3626,0.3838,0.4013,0.0,0.5375,0.5641,0.6227,0.7774,0.8028,0.8296,0.9671,0.9702,0.9677,1.0066,1.0758,1.1399,1.1761,1.1807,1.1715,1.1478,1.1498,1.1722,1.2203,1.25,1.2691,1.275,1.3199,1.3495,1.3548,1.3759,1.3878,1.3878,1.3878,1.3878,1.3878,1.4174,1.4477,1.4774,1.5051,1.5341,1.5625,1.5625,1.5625,1.5625,1.5625,1.5625,1.5625,1.5625,1.5625,1.5625,1.5625,1.5625,1.5625,1.5625,1.5625,1.5625,1.5625,1.5625,1.5625,1.5625,1.5625,1.5625,1.5625,1.5625,1.5625,1.5625,1.5625,1.5625,1.5625,1.5625,1.5625,1.5625,1.5625,1.5625,1.5625,1.5625,1.5625,1.5625,1.5625,1.5831,1.6826,1.7237,1.7378,1.7378,1.7378,1.7378,1.7378,1.7378,1.7378,1.7378,1.7378,1.7378,1.7378,1.7378,1.7378,1.7378,1.7378,1.7378,1.7378,1.7378,1.7378,1.7378,1.7378,1.7378,1.7378,1.7378,1.7378,1.7365,1.7128,1.7148,0.3596,0.3698,0.387,0.3861,0.4476,0.0,0.5246,0.6452,0.782,0.9086,0.9545,0.9981,1.0846,1.0418,1.0172,1.0965,1.1206,1.1471,1.2038,1.2124,1.2111,1.2071,1.2289,1.246,1.2526,1.2803,1.3086,1.335,1.3429,1.3574,1.3818,1.3864,1.3878,1.3878,1.3878,1.3878,1.3878,1.4174,1.4477,1.4774,1.5051,1.5341,1.5625,1.5625,1.5625,1.5625,1.5625,1.5625,1.5625,1.5625,1.5625,1.5625,1.5625,1.5625,1.5625,1.5625,1.5625,1.5625,1.5625,1.5625,1.5625,1.5625,1.5625,1.5625,1.5625,1.5625,1.5625,1.5625,1.5625,1.5625,1.5625,1.5625,1.5625,1.5625,1.5625,1.5625,1.5625,1.5625,1.5625,1.5625,1.5625,1.5631,1.5631,1.66,1.7378,1.7378,1.7378,1.7378,1.7378,1.7378,1.7378,1.7378,1.7378,1.7378,1.7378,1.7378,1.7378,1.7378,1.7378,1.7378,1.7378,1.7378,1.7378,1.7378,1.7378,1.7378,1.7378,1.7378,1.7378,1.7378,1.7339,1.7345,0.3672,0.3811,0.4028,0.4536,0.0,0.0,0.6276,0.7136,0.8261,0.9805,1.0235,1.0796,1.1938,1.178,1.1636,1.2073,1.1947,1.1939,1.2348,1.2407,1.2473,1.2651,1.277,1.2843,1.2843,1.3113,1.3337,1.3456,1.3614,1.3772,1.3738,1.3758,1.3764,1.3764,1.3764,1.3764,1.3764,1.4405,1.4897,1.5214,1.5275,1.5353,1.547,1.5638,1.5625,1.5625,1.5625,1.5625,1.5625,1.5625,1.5625,1.5625,1.5625,1.5625,1.5625,1.5625,1.5625,1.5625,1.5625,1.5625,1.5625,1.5625,1.5625,1.5625,1.5625,1.5625,1.5625,1.5625,1.5625,1.5625,1.5625,1.5625,1.5625,1.5625,1.5625,1.5625,1.5625,1.5625,1.5677,1.5855,1.602,1.6238,1.6587,1.7055,1.7378,1.7378,1.7378,1.7378,1.7378,1.7378,1.7378,1.7378,1.7378,1.7378,1.7378,1.7378,1.7378,1.7378,1.7378,1.7378,1.7378,1.7378,1.7378,1.7378,1.7378,1.7378,1.7378,1.7378,1.7378,1.7378,1.7378,1.7378,0.3824,0.0,0.0,0.0,0.0,0.0,0.7555,0.8267,0.9039,1.0383,1.112,1.1566,1.2437,1.2674,1.2612,1.264,1.2441,1.2381,1.2665,1.2704,1.2783,1.3001,1.3093,1.3146,1.3146,1.3409,1.3581,1.3581,1.3765,1.3719,1.3751,1.3068,1.2376,1.1852,1.1852,1.1886,1.1958,1.2571,1.3018,1.3476,1.3317,1.4111,1.5503,1.547,1.5644,1.5644,1.5631,1.5631,1.5644,1.5644,1.5638,1.5625,1.5625,1.5625,1.5625,1.5625,1.5625,1.5625,1.5625,1.5625,1.5625,1.5625,1.5625,1.5625,1.5625,1.5625,1.5625,1.5625,1.5625,1.5625,1.5625,1.5625,1.5625,1.5625,1.5625,1.5625,1.5625,1.5691,1.5836,1.6132,1.6416,1.6772,1.7286,1.7378,1.7378,1.7378,1.7378,1.7378,1.7378,1.7378,1.7378,1.7378,1.7378,1.7378,1.7378,1.7378,1.7378,1.7378,1.7378,1.7378,1.7378,1.7378,1.7378,1.7378,1.7378,1.7378,1.7378,1.7378,1.7378,1.7378,1.7378,1.7378,0.0,0.0,0.0,0.6107,0.7019,0.7971,0.8867,0.9955,1.0865,1.1181,1.1926,1.2526,1.2566,1.2579,1.2579,1.2572,1.2566,1.2671,1.2968,1.3014,1.3014,1.3027,1.3278,1.3456,1.3456,1.3706,1.3864,1.3864,1.3878,1.3878,1.3884,1.1096,0.8844,0.7288,0.7115,0.7183,0.7151,0.767,0.8013,0.798,0.7933,1.0562,1.5529,1.5509,1.5496,1.5496,1.5644,1.5457,1.5496,1.5496,1.547,1.5625,1.5625,1.5625,1.5625,1.5625,1.5625,1.5625,1.5625,1.5625,1.5625,1.5625,1.5625,1.5625,1.5625,1.5625,1.5625,1.5625,1.5625,1.5625,1.5625,1.5625,1.5625,1.5625,1.5625,1.5625,1.5625,1.5855,1.6145,1.6422,1.6712,1.6799,1.7326,1.7378,1.7378,1.7378,1.7378,1.7378,1.7378,1.7378,1.7378,1.7378,1.7378,1.7378,1.7378,1.7378,1.7378,1.7378,1.7378,1.7378,1.7378,1.7378,1.7378,1.7378,1.7378,1.7378,1.7378,1.7378,1.7378,1.7378,1.7378,1.7378,0.3967,0.4543,0.5512,0.7172,0.7807,0.8262,0.9187,1.0166,1.0891,1.0983,1.1702,1.2308,1.2308,1.246,1.2579,1.2579,1.275,1.2981,1.3278,1.3317,1.339,1.3574,1.368,1.3739,1.3739,1.3825,1.3878,1.3878,1.3878,1.3725,1.3771,1.2895,0.9225,0.2612,0.2265,0.2287,0.2332,0.2563,0.2616,0.2667,0.9721,1.3774,1.5379,1.1949,1.2333,1.5516,1.5503,1.3511,1.0748,1.4105,1.5496,1.5496,1.5644,1.5644,1.547,1.5638,1.5625,1.5625,1.5625,1.5625,1.5625,1.5625,1.5625,1.5625,1.5625,1.5625,1.5625,1.5625,1.5625,1.5625,1.5625,1.5625,1.5625,1.5625,1.5625,1.5684,1.5882,1.6007,1.6106,1.6198,1.6343,1.6362,1.6923,1.6554,1.6475,1.726,1.7378,1.7378,1.7378,1.7378,1.7378,1.7378,1.7378,1.7378,1.7378,1.7378,1.7378,1.7378,1.7378,1.7378,1.7378,1.7378,1.7378,1.7378,1.7378,1.7378,1.7378,1.7378,1.7378,1.7378,1.7378,1.7378,0.4425,0.464,0.5243,0.6973,0.8177,0.9301,1.0261,1.101,1.1333,1.1333,1.1781,1.2321,1.2321,1.2394,1.2651,1.2862,1.306,1.3284,1.3574,1.3614,1.368,1.3858,1.3878,1.3878,1.3878,1.3878,1.3878,1.3878,1.3719,1.3751,1.379,1.0624,0.6091,0.0174,0.0,0.0,0.0,0.0,0.0,0.0,0.6832,1.0025,1.0029,1.0394,1.2359,1.5354,1.1579,1.019,1.0775,1.4141,1.5535,1.5127,1.1511,1.2302,1.5496,1.5464,1.5638,1.5625,1.5625,1.5625,1.5625,1.5625,1.5625,1.5625,1.5625,1.5625,1.5625,1.5625,1.5625,1.5625,1.5625,1.5625,1.5625,1.5625,1.5625,1.571,1.6014,1.608,1.6106,1.6205,1.6356,1.6534,1.6752,1.6495,1.6508,1.726,1.7378,1.7378,1.7378,1.7378,1.7378,1.7378,1.7378,1.7378,1.7378,1.7378,1.7378,1.7378,1.7378,1.7378,1.7378,1.7378,1.7378,1.7378,1.7378,1.7378,1.7378,1.7378,1.7378,1.7378,1.7378,1.7385,0.5012,0.4605,0.4239,0.5888,0.8317,1.0544,1.1896,1.2228,1.2321,1.2321,1.2321,1.2327,1.2341,1.2427,1.281,1.3377,1.3482,1.3581,1.3845,1.3878,1.3878,1.3878,1.3878,1.3878,1.3878,1.3878,1.3878,1.3884,1.3751,1.3592,1.3068,0.4689,0.0,0.0,0.0,0.0,0.0,0.0,0.0,0.0,0.0,0.0,0.0393,1.0225,1.4799,1.42,0.4317,0.5694,1.4799,1.5399,1.5178,1.374,0.3897,0.604,1.4901,1.5302,1.547,1.5631,1.5631,1.5631,1.5625,1.5625,1.5625,1.5631,1.5625,1.5625,1.5631,1.5625,1.5625,1.5625,1.5625,1.5625,1.5625,1.5625,1.5625,1.5704,1.5987,1.6053,1.6132,1.6389,1.6679,1.6864,1.6792,1.7095,1.7352,1.7372,1.7378,1.7378,1.7378,1.7378,1.7378,1.7378,1.7378,1.7378,1.7378,1.7378,1.7378,1.7378,1.7378,1.7378,1.7378,1.7378,1.7378,1.7378,1.7378,1.7378,1.7378,1.7378,1.7378,1.7378,1.7378,1.7405,0.5012,0.3141,0.2597,0.9091,0.8843,0.8032,1.1472,1.2243,1.2321,1.2321,1.2321,1.2229,1.2434,1.2895,1.3291,1.3442,1.364,1.3798,1.3871,1.3878,1.3878,1.3878,1.3878,1.3878,1.3878,1.3878,1.3719,1.3751,1.3764,1.0787,0.3822,0.1216,0.0,0.0,0.0,0.0,0.0,0.0,0.0,0.0,0.0,0.0,0.0,0.2748,0.3925,0.3729,0.1178,0.157,0.4515,1.2406,1.1012,0.3722,0.0975,0.1559,0.4882,1.2738,1.5503,1.5483,1.5483,1.5457,1.5625,1.5625,1.5457,1.5477,1.5638,1.5457,1.5477,1.5638,1.5625,1.5625,1.5625,1.5625,1.5625,1.5625,1.5625,1.5651,1.5723,1.5743,1.5763,1.5836,1.6086,1.635,1.6534,1.6772,1.7042,1.7332,1.7378,1.7378,1.7378,1.7378,1.7378,1.7378,1.7378,1.7378,1.7378,1.7378,1.7378,1.7378,1.7378,1.7378,1.7378,1.7378,1.7378,1.7378,1.7378,1.7378,1.7378,1.7378,1.7378,1.7378,1.7196,1.7215,0.5121,0.2633,0.1056,0.5772,0.7749,0.9297,1.1787,1.2295,1.2183,1.2177,1.2269,1.244,1.2895,1.3159,1.3508,1.3627,1.3779,1.3878,1.3878,1.3878,1.3878,1.3878,1.3878,1.3878,1.3878,1.3725,1.3745,1.3771,1.0086,0.5556,0.0348,0.0,0.0,0.0,0.0,0.0,0.0,0.0,0.0,0.0,0.0,0.0,0.0,0.0,0.0,0.0,0.0,0.0,0.0393,0.6282,0.5299,0.0,0.0,0.0,0.0782,0.6648,1.1555,1.5509,1.5509,1.5496,1.5477,1.5477,1.549,1.5503,1.547,1.5477,1.549,1.5638,1.5625,1.5625,1.5625,1.5625,1.5625,1.5625,1.5625,1.5625,1.5625,1.5625,1.5625,1.5625,1.5967,1.635,1.6633,1.6884,1.7121,1.7339,1.7378,1.7378,1.7378,1.7378,1.7378,1.7378,1.7378,1.7378,1.7378,1.7378,1.7378,1.7378,1.7378,1.7378,1.7378,1.7378,1.7378,1.7378,1.7378,1.7378,1.7378,1.7378,1.7385,1.7405,1.7215,1.4582,0.4698,0.229,0.0,0.0,0.6146,1.22,1.2319,1.2247,1.2203,1.2183,1.2081,1.22,1.3175,1.3462,1.3574,1.3851,1.3719,1.3719,1.3719,1.3719,1.3884,1.3878,1.3884,1.3719,1.3719,1.3751,1.3247,1.2013,0.4514,0.0,0.0,0.0,0.0,0.0,0.0,0.0,0.0,0.0,0.0,0.0,0.0,0.0,0.0,0.0,0.0,0.0,0.0,0.0,0.0,0.0,0.0,0.0,0.0,0.0,0.0,0.0,0.6651,1.5542,1.5542,1.5133,1.4531,1.4531,1.4135,1.3734,1.5108,1.5503,1.5503,1.5644,1.5631,1.5631,1.5625,1.5625,1.5625,1.5625,1.5625,1.5625,1.5625,1.5625,1.5638,1.5677,1.606,1.6482,1.6818,1.7121,1.7312,1.7299,1.7339,1.7378,1.7378,1.7378,1.7378,1.7378,1.7378,1.7378,1.7378,1.7378,1.7378,1.7378,1.7378,1.7378,1.7378,1.7378,1.7378,1.7378,1.7385,1.7385,1.7385,1.7391,1.7196,1.7235,1.5685,0.9552,0.1672,0.0453,0.0,0.0,0.6151,1.2221,1.2215,1.2282,1.221,1.2223,0.9934,0.9204,1.306,1.3701,1.3816,1.3745,1.3771,1.3764,1.3764,1.3764,1.3745,1.3884,1.3758,1.3784,1.3764,1.3784,1.0624,0.2953,0.0869,0.0,0.0,0.0,0.0,0.0,0.0,0.0,0.0,0.0,0.0,0.0,0.0,0.0,0.0,0.0,0.0,0.0,0.0,0.0,0.0,0.0,0.0,0.0,0.0,0.0,0.0,0.0,0.6671,1.5588,1.5588,1.276,0.9179,0.9179,0.625,0.4297,1.2922,1.5542,1.5561,1.5457,1.5457,1.5477,1.5638,1.5625,1.5625,1.5625,1.5625,1.5625,1.5625,1.5625,1.5697,1.5954,1.5882,1.5941,1.6475,1.6811,1.6983,1.6904,1.7167,1.7378,1.7378,1.7378,1.7378,1.7378,1.7378,1.7378,1.7378,1.7378,1.7378,1.7378,1.7378,1.7378,1.7378,1.7378,1.7378,1.7378,1.7196,1.7215,1.7215,1.7254,1.7274,1.7057,0.7386,0.1953,0.0508,0.0,0.0,0.0,0.2928,0.6989,1.1241,1.2282,1.1012,0.6711,0.6444,0.8357,1.3018,1.1837,1.0203,1.0234,1.0258,1.1133,1.3432,1.379,1.2895,1.0579,1.2365,1.2913,1.0431,0.7995,0.4691,0.0348,0.0,0.0,0.0,0.0,0.0,0.0,0.0,0.0,0.0,0.0,0.0,0.0,0.0,0.0,0.0,0.0,0.0,0.0,0.0,0.0,0.0,0.0,0.0,0.0,0.0,0.0,0.0,0.0,0.314,0.7464,0.7464,0.588,0.3718,0.3718,0.1957,0.1958,1.237,1.5574,1.4982,1.2318,1.3499,1.5496,1.547,1.5644,1.5625,1.5625,1.5625,1.5625,1.5625,1.5625,1.5671,1.5816,1.5849,1.5948,1.6225,1.664,1.697,1.7082,1.7253,1.7378,1.7378,1.7378,1.7378,1.7378,1.7378,1.7378,1.7378,1.7378,1.7378,1.7378,1.7378,1.7378,1.7378,1.7378,1.7378,1.7378,1.7398,1.6315,1.4344,1.436,1.2187,0.8045,0.2606,0.0,0.0,0.0,0.0,0.0,0.0,0.1714,0.8193,0.9659,0.7814,0.1357,0.2923,0.659,1.0231,0.7948,0.5419,0.5506,0.7102,0.9749,1.3284,1.2042,0.9922,0.7288,0.9225,0.9402,0.59,0.2085,0.0,0.0,0.0,0.0,0.0,0.0,0.0,0.0,0.0,0.0,0.0,0.0,0.0,0.0,0.0,0.0,0.0,0.0,0.0,0.0,0.0,0.0,0.0,0.0,0.0,0.0,0.0,0.0,0.0,0.0,0.0,0.0,0.0,0.0,0.0,0.0,0.0,0.1963,1.2406,1.3993,1.1789,0.9974,1.1929,1.4694,1.5289,1.5457,1.5625,1.5625,1.5625,1.5625,1.5625,1.5677,1.5723,1.5723,1.5915,1.608,1.608,1.6449,1.6824,1.7062,1.7148,1.7207,1.7273,1.7279,1.7306,1.7365,1.7378,1.7378,1.7378,1.7378,1.7378,1.7378,1.7378,1.7378,1.7378,1.7378,1.7378,1.7391,1.7391,1.5865,1.2822,1.2822,0.8466,0.0,0.0,0.0,0.0,0.0,0.0,0.0,0.0,0.0151,0.1009,0.1141,0.0853,0.0141,0.03,0.079,0.1104,0.0983,0.0677,0.0678,0.7763,1.3328,1.3688,0.6618,0.2605,0.6593,0.3655,0.1047,0.0695,0.0174,0.0,0.0,0.0,0.0,0.0,0.0,0.0,0.0,0.0,0.0,0.0,0.0,0.0,0.0,0.0,0.0,0.0,0.0,0.0,0.0,0.0,0.0,0.0,0.0,0.0,0.0,0.0,0.0,0.0,0.0,0.0,0.0,0.0,0.0,0.0,0.0,0.0,0.1963,1.2406,0.9022,0.3322,1.2328,1.2911,1.171,1.4844,1.5631,1.5625,1.5625,1.5625,1.5625,1.5625,1.5842,1.6033,1.6033,1.606,1.608,1.608,1.6119,1.6165,1.6192,1.6409,1.6666,1.6937,1.697,1.7075,1.7345,1.7378,1.7378,1.7378,1.7378,1.7378,1.7378,1.7378,1.7378,1.7378,1.7378,1.7398,1.7222,1.7222,1.7032,1.6866,1.6866,1.0908,0.0,0.0,0.0,0.0,0.0,0.0,0.0,0.0,0.0,0.0,0.0,0.0,0.0,0.0,0.0,0.0,0.0,0.0,0.0,0.3165,0.5511,0.5559,0.2267,0.0697,0.2612,0.1222,0.0,0.0,0.0,0.0,0.0,0.0,0.0,0.0,0.0,0.0,0.0,0.0,0.0,0.0,0.0,0.0,0.0,0.0,0.0,0.0,0.0,0.0,0.0,0.0,0.0,0.0,0.0,0.0,0.0,0.0,0.0,0.0,0.0,0.0,0.0,0.0,0.0,0.0,0.0,0.0,0.0785,0.4897,0.3325,0.2149,1.2544,1.4512,1.3899,1.527,1.5644,1.5625,1.5625,1.5625,1.5625,1.5625,1.5862,1.608,1.608,1.608,1.608,1.608,1.6211,1.6271,1.6099,1.6462,1.6798,1.6917,1.693,1.7042,1.7345,1.7378,1.7378,1.7378,1.7378,1.7378,1.7378,1.7378,1.7391,1.7202,1.7202,1.7209,1.7228,1.3928,1.3949,1.7306,1.0236,0.457,0.0,0.0,0.0,0.0,0.0,0.0,0.0,0.0,0.0,0.0,0.0,0.0,0.0,0.0,0.0,0.0,0.0,0.0,0.0,0.0,0.0,0.0,0.0,0.0,0.0,0.0,0.0,0.0,0.0,0.0,0.0,0.0,0.0,0.0,0.0,0.0,0.0,0.0,0.0,0.0,0.0,0.0,0.0,0.0,0.0,0.0,0.0,0.0,0.0,0.0,0.0,0.0,0.0,0.0,0.0,0.0,0.0,0.0,0.0,0.0,0.0,0.0,0.0,0.0,0.0,0.0,0.0,0.0,0.2149,0.606,1.3534,1.5503,1.5477,1.5477,1.5457,1.5625,1.5625,1.5625,1.5625,1.5625,1.5928,1.6145,1.5974,1.6086,1.6145,1.5974,1.6244,1.6363,1.5994,1.6429,1.6739,1.6567,1.6693,1.695,1.7332,1.7378,1.7378,1.7378,1.7378,1.7378,1.7378,1.7378,1.7391,1.7209,1.6327,1.5452,1.4804,1.2404,1.1546,1.2215,0.3911,0.0,0.0,0.0,0.0,0.0,0.0,0.0,0.0,0.0,0.0,0.0,0.0,0.0,0.0,0.0,0.0,0.0,0.0,0.0,0.0,0.0,0.0,0.0,0.0,0.0,0.0,0.0,0.0,0.0,0.0,0.0,0.0,0.0,0.0,0.0,0.0,0.0,0.0,0.0,0.0,0.0,0.0,0.0,0.0,0.0,0.0,0.0,0.0,0.0,0.0,0.0,0.0,0.0,0.0,0.0,0.0,0.0,0.0,0.0,0.0,0.0,0.0,0.0,0.0,0.0,0.0,0.0,0.0,0.0,0.7234,1.5328,1.5503,1.5464,1.5625,1.5625,1.5625,1.5625,1.5625,1.5625,1.5625,1.5625,1.608,1.6317,1.5743,1.6093,1.6304,1.573,1.6106,1.629,1.5717,1.6126,1.6284,1.571,1.6139,1.6719,1.7312,1.7378,1.7378,1.7378,1.7378,1.7378,1.7378,1.7378,1.7378,1.7378,1.3665,1.085,0.8909,1.4399,1.1559,0.0218,0.0,0.0,0.0,0.0,0.0,0.0,0.0,0.0,0.0,0.0,0.0,0.0,0.0,0.0,0.0,0.0,0.0,0.0,0.0,0.0,0.0,0.0,0.0,0.0,0.0,0.0,0.0,0.0,0.0,0.0,0.0,0.0,0.0,0.0,0.0,0.0,0.0,0.0,0.0,0.0,0.0,0.0,0.0,0.0,0.0,0.0,0.0,0.0,0.0,0.0,0.0,0.0,0.0,0.0,0.0,0.0,0.0,0.0,0.0,0.0,0.0,0.0,0.0,0.0,0.0,0.0,0.0,0.0,0.1373,0.8439,1.2966,1.5529,1.5503,1.5464,1.5625,1.5625,1.5625,1.5625,1.5625,1.5625,1.5625,1.5625,1.608,1.6376,1.6007,1.6231,1.637,1.6,1.6086,1.6073,1.5684,1.5961,1.6066,1.5677,1.5967,1.6277,1.6468,1.6838,1.7154,1.7358,1.7378,1.7378,1.7378,1.7378,1.7391,1.7202,1.6111,1.5247,1.4621,1.6413,1.1559,0.0,0.0,0.0,0.0,0.0,0.0,0.0,0.0,0.0,0.0,0.0,0.0,0.0,0.0,0.0,0.0,0.0,0.0,0.0,0.0,0.0,0.0,0.0,0.0,0.0,0.0,0.0,0.0,0.0,0.0,0.0,0.0,0.0,0.0,0.0,0.0,0.0,0.0,0.0,0.0,0.0,0.0,0.0,0.0,0.0,0.0,0.0,0.0,0.0,0.0,0.0,0.0,0.0,0.0,0.0,0.0,0.0,0.0,0.0,0.0,0.0,0.0,0.0,0.0,0.0,0.0,0.0,0.0,0.0,0.1963,1.2406,1.5581,1.5548,1.5509,1.5477,1.5644,1.5631,1.5625,1.5625,1.5625,1.5625,1.5658,1.577,1.608,1.6284,1.6112,1.6211,1.6238,1.5954,1.6,1.5974,1.5671,1.5974,1.6126,1.5836,1.6152,1.6403,1.6403,1.6818,1.7174,1.7358,1.7378,1.7378,1.7378,1.7378,1.7431,1.7569,1.7589,1.7622,1.7668,1.7927,1.208,0.0,0.0,0.0,0.0,0.0,0.0,0.0,0.0,0.0,0.0,0.0,0.0,0.0,0.0,0.0,0.0,0.0,0.0,0.0,0.0,0.0,0.0,0.0,0.0,0.0,0.0,0.0,0.0,0.0,0.0,0.0,0.0,0.0,0.0,0.0,0.0,0.0,0.0,0.0,0.0,0.0,0.0,0.0,0.0,0.0,0.0,0.0,0.0,0.0,0.0,0.0,0.0,0.0,0.0,0.0,0.0,0.0,0.0,0.0,0.0,0.0,0.0,0.0,0.0,0.0,0.0,0.0,0.0,0.0,0.1767,1.1413,1.4598,1.4982,1.492,1.5296,1.549,1.5638,1.5625,1.5625,1.5625,1.5625,1.5704,1.5981,1.606,1.6073,1.6047,1.606,1.5981,1.5677,1.5862,1.5948,1.5671,1.6099,1.6363,1.6112,1.6561,1.6904,1.6904,1.7148,1.7312,1.7312,1.7332,1.7372,1.7431,1.7418,1.7523,1.778,1.7813,1.8074,1.8349,1.7939,1.1756,0.0,0.0,0.0,0.0,0.0,0.0,0.0,0.0,0.0,0.0,0.0,0.0,0.0,0.0,0.0,0.0,0.0,0.0,0.0,0.0,0.0,0.0,0.0,0.0,0.0,0.0,0.0,0.0,0.0,0.0,0.0,0.0,0.0,0.0,0.0,0.0,0.0,0.0,0.0,0.0,0.0,0.0,0.0,0.0,0.0,0.0,0.0,0.0,0.0,0.0,0.0,0.0,0.0,0.0,0.0,0.0,0.0,0.0,0.0,0.0,0.0,0.0,0.0,0.0,0.0,0.0,0.0,0.0,0.0,0.0393,0.2944,0.6464,0.9584,0.9572,1.2523,1.549,1.5638,1.5625,1.5625,1.5625,1.5625,1.5651,1.5717,1.5915,1.6007,1.5776,1.5915,1.5981,1.5677,1.5684,1.571,1.5638,1.5941,1.6145,1.6086,1.6376,1.6587,1.6587,1.6653,1.6693,1.6693,1.6904,1.7319,1.7991,1.782,1.7721,1.7787,1.786,1.8011,1.8283,0.9192,0.3056,0.0,0.0,0.0,0.0,0.0,0.0,0.0,0.0,0.0,0.0,0.0,0.0,0.0,0.0,0.0,0.0,0.0,0.0,0.0,0.0,0.0,0.0,0.0,0.0,0.0,0.0,0.0,0.0,0.0,0.0,0.0,0.0,0.0,0.0,0.0,0.0,0.0,0.0,0.0,0.0,0.0,0.0,0.0,0.0,0.0,0.0,0.0,0.0,0.0,0.0,0.0,0.0,0.0,0.0,0.0,0.0,0.0,0.0,0.0,0.0,0.0,0.0,0.0,0.0,0.0,0.0,0.0,0.0,0.0,0.098,0.5691,0.7438,0.8198,1.0748,1.33,1.5464,1.5631,1.5625,1.5625,1.5625,1.5625,1.5664,1.5803,1.5849,1.5862,1.5836,1.5849,1.5816,1.5658,1.5625,1.5625,1.5625,1.6106,1.6468,1.6468,1.695,1.7293,1.7293,1.7167,1.7141,1.7279,1.7312,1.7589,1.8196,1.784,1.7655,1.7787,1.7894,1.6731,1.3889,0.7467,0.2627,0.0,0.0,0.0,0.0,0.0,0.0,0.0,0.0,0.0,0.0,0.0,0.0,0.0,0.0,0.0,0.0,0.0,0.0,0.0,0.0,0.0,0.0,0.0,0.0,0.0,0.0,0.0,0.0,0.0,0.0,0.0,0.0,0.0,0.0,0.0,0.0,0.0,0.0,0.0,0.0,0.0,0.0,0.0,0.0,0.0,0.0,0.0,0.0,0.0,0.0,0.0,0.0,0.0,0.0,0.0,0.0,0.0,0.0,0.0,0.0,0.0,0.0,0.0,0.0,0.0,0.0,0.0,0.0,0.1176,0.4109,1.2797,1.2565,0.9961,1.43,1.5464,1.5625,1.5625,1.5625,1.5625,1.5625,1.5625,1.5697,1.5954,1.5809,1.5717,1.602,1.5869,1.571,1.575,1.5756,1.5756,1.5756,1.6468,1.7002,1.7002,1.7721,1.8216,1.8169,1.7939,1.7879,1.8084,1.7873,1.7873,1.8216,1.778,1.7596,1.7787,1.7794,1.5327,1.0198,0.998,0.6833,0.0,0.0,0.0,0.0,0.0,0.0,0.0,0.0,0.0,0.0,0.0,0.0,0.0,0.0,0.0,0.0,0.0,0.0,0.0,0.0,0.0,0.0,0.0,0.0,0.0,0.0,0.0,0.0,0.0,0.0,0.0,0.0,0.0,0.0,0.0,0.0,0.0,0.0,0.0,0.0,0.0,0.0,0.0,0.0,0.0,0.0,0.0,0.0,0.0,0.0,0.0,0.0,0.0,0.0,0.0,0.0,0.0,0.0,0.0,0.0,0.0,0.0,0.0,0.0,0.0,0.0,0.0,0.0,0.5887,1.3395,1.4995,1.4957,1.4494,1.5257,1.5631,1.5625,1.5625,1.5625,1.5625,1.5625,1.5625,1.5638,1.5684,1.5658,1.5717,1.602,1.604,1.6086,1.6317,1.6356,1.6356,1.6356,1.6897,1.7306,1.7306,1.7853,1.8143,1.7886,1.782,1.7714,1.7523,1.7464,1.7668,1.8202,1.8156,1.8011,1.78,1.7794,1.727,1.6016,1.6028,1.0719,0.0,0.0,0.0,0.0,0.0,0.0,0.0,0.0,0.0,0.0,0.0,0.0,0.0,0.0,0.0,0.0,0.0,0.0,0.0,0.0,0.0,0.0,0.0,0.0,0.0,0.0,0.0,0.0,0.0,0.0,0.0,0.0,0.0,0.0,0.0,0.0,0.0,0.0,0.0,0.0,0.0,0.0,0.0,0.0,0.0,0.0,0.0,0.0,0.0,0.0,0.0,0.0,0.0,0.0,0.0,0.0,0.0,0.0,0.0,0.0,0.0,0.0,0.0,0.0,0.0,0.0,0.0,0.0,0.7069,1.5594,1.5568,1.5535,1.549,1.5638,1.5625,1.5625,1.5625,1.5625,1.5671,1.5829,1.5869,1.5908,1.606,1.6093,1.6132,1.6271,1.6297,1.6343,1.6468,1.6488,1.6541,1.6706,1.7227,1.7662,1.782,1.8341,1.8585,1.8301,1.8123,1.7978,1.7853,1.7695,1.7714,1.7978,1.7853,1.7708,1.7576,1.7563,1.7523,1.7222,1.4171,1.1559,0.9382,0.305,0.0,0.0,0.0,0.0,0.0,0.0,0.0893,0.1295,0.1398,0.1697,0.0,0.2034,0.098,0.0196,0.0,0.0132,0.0551,0.0933,0.1198,0.1234,0.0493,0.0,0.0,0.0,0.0,0.0,0.0,0.0,0.0,0.0,0.0,0.0,0.0,0.0,0.0,0.0,0.0,0.0,0.0,0.0,0.0,0.0,0.0,0.0,0.0,0.0,0.0,0.0,0.0,0.0,0.0,0.0,0.0,0.0,0.0,0.0,0.0,0.0,0.0,0.0,0.0,0.0,0.0,0.0,0.0,0.0,0.7069,1.5386,1.4141,1.4518,1.549,1.5638,1.5625,1.5644,1.571,1.5737,1.5809,1.6106,1.6172,1.6231,1.6442,1.6488,1.6508,1.6581,1.6594,1.6614,1.6686,1.6693,1.6798,1.7088,1.751,1.7899,1.8196,1.8618,1.8782,1.8499,1.8334,1.8209,1.8136,1.786,1.7695,1.7695,1.749,1.7378,1.7378,1.7378,1.7378,1.7378,1.3033,1.2856,1.7319,0.5665,0.0,0.0,0.0,0.0,0.0,0.1626,0.3634,0.5191,0.5599,0.6633,1.0455,0.7992,0.0,0.0653,0.0,0.0457,0.2027,0.3735,0.4917,0.4904,0.2109,0.0,0.0,0.0,0.0,0.0,0.0,0.0,0.0,0.0,0.0,0.0,0.0,0.0,0.0,0.0,0.0,0.0,0.0,0.0,0.0,0.0,0.0,0.0,0.0,0.0,0.0,0.0,0.0,0.0,0.0,0.0,0.0,0.0,0.0,0.0,0.0,0.0,0.0,0.0,0.0,0.0,0.0,0.0,0.0,0.0,0.7069,1.4585,0.9779,1.1735,1.549,1.5638,1.5625,1.5691,1.5974,1.6047,1.6112,1.6389,1.6455,1.6462,1.6482,1.6488,1.6567,1.6844,1.6904,1.6983,1.7266,1.7312,1.7405,1.7688,1.7767,1.7899,1.8196,1.8268,1.8183,1.7886,1.8084,1.8123,1.7846,1.7563,1.7405,1.7405,1.7385,1.7378,1.7378,1.7378,1.7378,1.7378,1.698,1.6809,1.7293,0.5663,0.0,0.0,0.0,0.0,0.3951,0.6282,0.8493,0.9086,0.9569,0.9918,1.0033,0.7597,0.4562,0.2063,0.2477,0.346,0.4115,0.4783,0.5215,0.5247,0.2279,0.0,0.0,0.0,0.1859,0.7069,0.314,0.0,0.0,0.0,0.0,0.0,0.0,0.0,0.0,0.0,0.0,0.0,0.0,0.0,0.0,0.0,0.0,0.0,0.0,0.0,0.0,0.0,0.0,0.0,0.0,0.0,0.0,0.0,0.0,0.0,0.0,0.0,0.0,0.0,0.0,0.0,0.0,0.0,0.0,0.0,0.7069,1.519,1.3177,1.394,1.549,1.5638,1.5763,1.5934,1.6047,1.6205,1.6403,1.6693,1.6765,1.6818,1.7002,1.7042,1.7075,1.7187,1.7207,1.724,1.7352,1.7378,1.7471,1.7747,1.7794,1.7965,1.8453,1.8354,1.8189,1.8077,1.8005,1.784,1.7556,1.7431,1.7378,1.7378,1.7378,1.7378,1.7378,1.7378,1.7378,1.7378,1.7391,1.7209,1.7254,0.9353,0.3481,0.0,0.0,0.0,0.7591,0.9596,1.1074,1.1277,1.1459,1.1126,0.9474,0.7451,0.5528,0.3937,0.4495,0.5274,0.536,0.5418,0.5453,0.5612,0.3119,0.1339,0.2121,0.252,0.5073,1.1522,0.5013,0.0,0.0,0.0,0.0,0.0,0.0,0.0,0.0,0.0,0.0,0.0,0.0,0.0,0.0,0.0,0.0,0.0,0.0,0.0,0.0,0.0,0.0,0.0,0.0,0.0,0.0,0.0,0.0,0.0,0.0,0.0,0.0,0.0,0.0,0.0,0.0,0.0,0.0,0.0,0.7063,1.5594,1.5581,1.5535,1.547,1.5638,1.5842,1.6119,1.6297,1.6488,1.6706,1.7002,1.7068,1.7128,1.7332,1.7378,1.7378,1.7378,1.7378,1.7378,1.7378,1.7378,1.7471,1.7747,1.7714,1.784,1.8334,1.8143,1.7965,1.7965,1.778,1.7583,1.7391,1.7378,1.7378,1.7378,1.7378,1.7378,1.7378,1.7378,1.7378,1.7378,1.7378,1.7398,1.7228,1.3269,0.9353,0.5449,0.5449,0.3486,1.0309,1.0837,1.0641,1.1504,1.0852,0.9891,0.9933,0.871,0.7244,0.6065,0.5513,0.5333,0.561,0.5754,0.5967,0.6339,0.4814,0.4332,0.6739,0.7995,0.961,1.1901,0.4897,0.0,0.0,0.0,0.0,0.0,0.0,0.0,0.0,0.0,0.0,0.0,0.0,0.0,0.0,0.0,0.0,0.0,0.0,0.0,0.0,0.0,0.0,0.0,0.0,0.0,0.0,0.0,0.0,0.0,0.0,0.0,0.0,0.0,0.0,0.0,0.0,0.0,0.0,0.0,0.7054,1.5588,1.5548,1.5483,1.5625,1.5631,1.5842,1.6211,1.6778,1.6937,1.7009,1.7306,1.7378,1.7378,1.7378,1.7378,1.7378,1.7378,1.7378,1.7378,1.7378,1.7378,1.7471,1.7747,1.755,1.7477,1.7761,1.755,1.7385,1.7385,1.7378,1.7378,1.7378,1.7378,1.7378,1.7378,1.7378,1.7378,1.7378,1.7378,1.7378,1.7378,1.7378,1.7398,1.7228,1.7228,1.7261,1.7326,1.7326,1.1133,0.9764,1.0699,1.1399,1.1656,1.1458,1.0819,0.9688,0.8895,0.7938,0.6334,0.5881,0.5848,0.5927,0.6127,0.6346,0.679,0.6341,0.6498,0.7969,0.9995,0.9353,0.4232,0.1455,0.0,0.0,0.0,0.0,0.0,0.0,0.0,0.0,0.0,0.0,0.0,0.0,0.0,0.0,0.0,0.0,0.0,0.0,0.0,0.0,0.0,0.0,0.0,0.0,0.0,0.0,0.0,0.0,0.0,0.0,0.0,0.0,0.0,0.0,0.0,0.0,0.0,0.0589,0.4308,0.9999,1.5542,1.5477,1.5644,1.5671,1.5882,1.6007,1.6211,1.6778,1.7088,1.7266,1.7352,1.7378,1.7378,1.7378,1.7378,1.7378,1.7378,1.7378,1.7378,1.7378,1.7378,1.7405,1.7484,1.7424,1.755,1.8038,1.7846,1.7747,1.7958,1.7616,1.7378,1.7378,1.7378,1.7378,1.7378,1.7378,1.7378,1.7378,1.7378,1.7378,1.7378,1.7378,1.7385,1.7398,1.7209,1.7235,1.7254,1.73,1.5545,1.0403,1.1056,1.1722,1.1722,1.1722,1.1293,0.9665,0.9065,0.8386,0.6757,0.623,0.6171,0.652,0.6652,0.6798,0.7404,0.7628,0.7106,0.5463,0.6439,0.551,0.066,0.0,0.0,0.0,0.0,0.0,0.0,0.0,0.0,0.0,0.0,0.0,0.0,0.0,0.0,0.0,0.0,0.0,0.0,0.0,0.0,0.0,0.0,0.0,0.0,0.0,0.0,0.0,0.0,0.0,0.0,0.0,0.0,0.0,0.0,0.0,0.0,0.0,0.0,0.0785,0.6068,1.1365,1.5516,1.5644,1.5625,1.5691,1.5987,1.6159,1.635,1.6811,1.7154,1.7378,1.7378,1.7378,1.7378,1.7378,1.7378,1.7378,1.7378,1.7378,1.7378,1.7378,1.7378,1.7378,1.7378,1.7378,1.7497,1.7853,1.7741,1.7695,1.7873,1.7682,1.7497,1.7385,1.7378,1.7378,1.7378,1.7378,1.7378,1.7378,1.7378,1.7378,1.7378,1.7378,1.7378,1.7378,1.7405,1.7209,1.7228,1.7267,1.73,1.1544,1.1722,1.1761,1.1761,1.1761,1.1379,0.9929,0.9388,0.8788,0.7338,0.6606,0.6494,0.7371,0.7331,0.7456,0.8243,0.8127,0.6042,0.0748,0.0,0.0,0.0,0.0,0.0,0.0,0.0,0.0,0.0,0.0,0.0,0.0,0.0,0.0,0.0,0.0,0.0,0.0,0.0,0.0,0.0,0.0,0.0,0.0,0.0,0.0,0.0,0.0,0.0,0.0,0.0,0.0,0.0,0.0,0.0,0.0,0.0,0.0,0.0,0.0,0.0,0.0785,0.6055,1.135,1.5516,1.5644,1.5625,1.5697,1.602,1.6297,1.6561,1.6884,1.7174,1.7378,1.7378,1.7378,1.7378,1.7378,1.7378,1.7378,1.7378,1.7378,1.7378,1.7378,1.7378,1.7378,1.7378,1.7378,1.7385,1.7411,1.7411,1.7405,1.7378,1.7602,1.7649,1.7398,1.7378,1.7378,1.7378,1.7378,1.7378,1.7378,1.7378,1.7378,1.7378,1.7378,1.7378,1.7378,1.7378,1.7398,1.7222,1.7222,1.7261,1.1405,1.1715,1.2071,1.2071,1.2071,1.1689,1.0219,0.9836,0.9381,0.7931,0.7529,0.7707,0.8584,0.85,0.8763,0.9849,0.5399,0.1374,0.0138,0.0,0.0,0.0,0.0,0.0,0.0,0.0,0.0,0.0,0.0,0.0,0.0,0.0,0.0,0.0,0.0,0.0,0.0,0.0,0.0,0.0,0.0,0.0,0.0,0.0,0.0,0.0,0.0,0.0,0.0,0.0,0.0,0.0,0.0,0.0,0.0,0.0,0.0,0.0,0.0,0.0,0.0785,0.6055,1.1341,1.5496,1.5644,1.5625,1.5737,1.6251,1.6442,1.6614,1.7141,1.7326,1.7378,1.7378,1.7378,1.7378,1.7378,1.7378,1.7378,1.7378,1.7378,1.7378,1.7378,1.7378,1.7378,1.7378,1.7378,1.7457,1.7675,1.7701,1.7616,1.7398,1.7424,1.7444,1.7378,1.7378,1.7378,1.7378,1.7378,1.7378,1.7378,1.7378,1.7378,1.7378,1.7378,1.7378,1.7378,1.7378,1.7378,1.7391,1.7209,1.7235,1.1748,1.1933,1.2321,1.2321,1.2321,1.1893,1.0838,1.0271,0.9678,0.865,0.8102,0.8036,0.8768,0.9044,0.948,1.06,0.7925,0.5129,0.3499,0.4754,0.6099,0.6628,0.2708,0.0,0.0,0.3947,0.679,0.7425,0.2857,0.0,0.0,0.0,0.0,0.0,0.0,0.0,0.0,0.0,0.0,0.0,0.0,0.0,0.0,0.0,0.0,0.0,0.0,0.0,0.0,0.0,0.0,0.0,0.0,0.0,0.0,0.0,0.0,0.0,0.0,0.3332,0.7852,1.0567,1.3317,1.549,1.5638,1.5625,1.575,1.6323,1.6488,1.6627,1.722,1.7378,1.7378,1.7378,1.7378,1.7378,1.7378,1.7378,1.7378,1.7378,1.7378,1.7378,1.7378,1.7378,1.7378,1.7378,1.7378,1.7424,1.7576,1.7589,1.7536,1.7391,1.7378,1.7378,1.7378,1.7378,1.7378,1.7378,1.7378,1.7378,1.7378,1.7378,1.7378,1.7378,1.7378,1.7378,1.7378,1.7378,1.7378,1.7378,1.7398,1.7209,1.2144,1.2321,1.2321,1.2321,1.2321,1.2012,1.1412,1.072,1.0034,0.946,0.8768,0.8458,0.9085,0.9612,1.014,1.1152,1.1658,1.0941,0.8358,1.0544,1.2302,1.1459,0.5326,0.1568,0.2279,0.9278,1.4212,1.5423,0.7521,0.2748,0.2748,0.0981,0.0,0.0,0.0,0.0,0.0,0.0,0.0,0.0,0.0,0.0,0.0,0.0,0.0,0.0,0.0,0.0,0.0,0.0,0.0,0.0,0.0,0.0,0.0,0.0,0.0589,0.1569,0.2348,0.8425,1.5574,1.5509,1.549,1.5477,1.5638,1.5625,1.5737,1.6271,1.6449,1.6614,1.7154,1.7339,1.7378,1.7378,1.7378,1.7378,1.7378,1.7378,1.7378,1.7378,1.7378,1.7378,1.7378,1.7378,1.7378,1.7378,1.7378,1.7378,1.7378,1.7378,1.7378,1.7378,1.7378,1.7378,1.7378,1.7378,1.7378,1.7378,1.7378,1.7378,1.7378,1.7378,1.7378,1.7378,1.7378,1.7378,1.7378,1.7378,1.7378,1.7378,1.7378,1.7398,1.2032,1.2321,1.2321,1.2321,1.2321,1.2012,1.1412,1.1188,1.0944,1.0364,1.0285,1.0331,1.1161,1.1123,1.1236,1.2421,1.2781,1.2473,1.1723,1.2762,1.0726,0.2691,0.4284,0.7696,1.1628,1.3038,1.4274,1.5484,1.4227,1.3401,1.3401,0.4907,0.0,0.0,0.0,0.0,0.0,0.0,0.0,0.0,0.0,0.0,0.0,0.0,0.0,0.0,0.0,0.0,0.0,0.0,0.0,0.0,0.0,0.0,0.0,0.0,0.2942,0.7448,1.2,1.4372,1.5529,1.5464,1.5638,1.5631,1.5631,1.5625,1.5697,1.6033,1.6304,1.6567,1.6904,1.718,1.7378,1.7378,1.7378,1.7378,1.7378,1.7378,1.7378,1.7378,1.7378,1.7378,1.7378,1.7378,1.7378,1.7378,1.7378,1.7378,1.7378,1.7378,1.7378,1.7378,1.7378,1.7378,1.7378,1.7378,1.7378,1.7378,1.7378,1.7378,1.7378,1.7378,1.7378,1.7378,1.7378,1.7378,1.7378,1.7378,1.7378,1.7378,1.7378,1.7378,1.2005,1.2321,1.2321,1.2321,1.2321,1.2104,1.1834,1.1517,1.1208,1.095,1.0647,1.0535,1.0924,1.1258,1.1534,1.2091,1.2658,1.2924,1.2977,1.3204,1.2043,0.8215,0.9503,1.1582,1.3666,1.3948,1.3284,1.1432,1.3817,1.5574,1.5601,0.8429,0.5682,0.8664,0.8653,0.589,0.0,0.0,0.0,0.0,0.0,0.0,0.0,0.0,0.0,0.0,0.0,0.0,0.0,0.0,0.0,0.0,0.0,0.0,0.0784,0.6475,0.8233,0.8606,1.3746,1.5509,1.547,1.5638,1.5625,1.5625,1.5625,1.5625,1.5691,1.5987,1.6277,1.6554,1.6851,1.7154,1.7378,1.7378,1.7378,1.7378,1.7378,1.7378,1.7378,1.7378,1.7378,1.7378,1.7378,1.7378,1.7378,1.7378,1.7378,1.7378,1.7378,1.7378,1.7378,1.7378,1.7378,1.7378,1.7378,1.7378,1.7378,1.7378,1.7378,1.7378,1.7378,1.7378,1.7378,1.7378,1.7378,1.7378,1.7378,1.7378,1.7378,1.7378,1.7378,1.7378,1.1742,1.1946,1.1979,1.213,1.2321,1.2321,1.2321,1.1827,1.1504,1.1504,1.1168,1.0999,1.0999,1.1399,1.1834,1.1834,1.2506,1.3106,1.3172,1.3335,1.351,1.3745,1.3764,1.3908,1.4106,1.4318,1.307,0.9932,1.342,1.5542,1.5574,1.0571,1.0186,1.5424,1.4195,1.0412,0.4121,0.3925,0.2552,0.0,0.0,0.0,0.0,0.0,0.0,0.0,0.0,0.0,0.0,0.0,0.0,0.0196,0.2943,0.3134,0.3126,1.2195,1.3161,1.0355,1.4294,1.5457,1.5625,1.5625,1.5625,1.5625,1.5625,1.5625,1.5677,1.5901,1.6165,1.6449,1.6745,1.7042,1.7279,1.7358,1.7378,1.7378,1.7378,1.7378,1.7378,1.7378,1.7378,1.7378,1.7378,1.7378,1.7378,1.7378,1.7378,1.7378,1.7378,1.7378,1.7378,1.7378,1.7378,1.7378,1.7378,1.7378,1.7378,1.7378,1.7378,1.7378,1.7378,1.7378,1.7378,1.7378,1.7378,1.7378,1.7378,1.7378,1.7378,1.7378,1.7378,1.7378,1.1016,1.132,1.1458,1.2032,1.2321,1.2321,1.2321,1.2144,1.2124,1.2124,1.2104,1.2227,1.2227,1.2117,1.2144,1.2144,1.2645,1.304,1.2938,1.3374,1.3712,1.3764,1.3738,1.4115,1.4695,1.4598,1.4646,1.5174,1.5464,1.5503,1.5503,1.0554,1.0169,1.5341,1.0762,1.0376,1.4793,1.4799,0.9829,0.0,0.0,0.0,0.0,0.0,0.0,0.0,0.0,0.0,0.0,0.0,0.0,0.0978,1.0807,1.1779,0.8007,1.3579,1.5354,1.5095,1.5451,1.5631,1.5625,1.5625,1.5625,1.5625,1.5625,1.5625,1.5631,1.5644,1.5869,1.6165,1.6442,1.6732,1.7029,1.7306,1.7378,1.7378,1.7378,1.7378,1.7378,1.7378,1.7378,1.7378,1.7378,1.7378,1.7378,1.7378,1.7378,1.7378,1.7378,1.7378,1.7378,1.7378,1.7378,1.7378,1.7378,1.7378,1.7378,1.7378,1.7378,1.7378,1.7378,1.7378,1.7378,1.7378,1.7378,1.7378,1.7378,1.7378,1.7378,1.7378,1.7378,1.7378,1.1148,1.1564,1.1748,1.2526,1.2579,1.2487,1.2678,1.2434,1.2223,1.2394,1.2295,1.2321,1.2321,1.2321,1.2321,1.2321,1.2651,1.3034,1.2879,1.3528,1.3884,1.3732,1.3719,1.4115,1.4715,1.4774,1.4754,1.5315,1.5532,1.547,1.5496,1.3688,1.3694,1.5529,1.3734,1.3751,1.5601,0.8845,0.3729,0.0,0.0,0.0,0.0,0.0,0.0,0.0,0.0,0.1956,0.5082,0.5075,0.7033,1.0376,1.4153,1.3139,0.9957,1.4129,1.5503,1.5644,1.5631,1.5625,1.5625,1.5625,1.5625,1.5625,1.5625,1.5625,1.5625,1.5625,1.5842,1.6099,1.6198,1.6436,1.6719,1.7022,1.7088,1.7141,1.7332,1.7378,1.7378,1.7378,1.7378,1.7378,1.7378,1.7378,1.7378,1.7378,1.7378,1.7378,1.7378,1.7378,1.7378,1.7378,1.7378,1.7378,1.7378,1.7378,1.7378,1.7378,1.7378,1.7378,1.7378,1.7378,1.7378,1.7378,1.7378,1.7378,1.7378,1.7378,1.7378,1.7378,1.7378,1.7378,1.0324,1.0911,1.132,1.2104,1.244,1.2632,1.2829,1.2658,1.248,1.2566,1.2434,1.2282,1.219,1.2321,1.2321,1.2321,1.2651,1.3027,1.3027,1.3515,1.3878,1.3878,1.3878,1.4075,1.4576,1.4623,1.4781,1.5157,1.5367,1.5532,1.547,1.5644,1.5644,1.5496,1.5496,1.5516,1.5568,0.8628,0.5293,0.5299,0.3528,0.2548,0.2554,0.0785,0.0979,0.2734,0.4494,0.7231,1.0363,1.0359,1.2333,1.5522,1.5522,1.4105,1.2496,1.4694,1.547,1.5625,1.5625,1.5625,1.5625,1.5625,1.5625,1.5625,1.5625,1.5625,1.5625,1.5625,1.577,1.5948,1.6047,1.6211,1.6422,1.6712,1.6857,1.6983,1.7187,1.7306,1.7378,1.7378,1.7378,1.7378,1.7378,1.7378,1.7378,1.7378,1.7378,1.7378,1.7378,1.7378,1.7378,1.7378,1.7378,1.7378,1.7378,1.7378,1.7378,1.7378,1.7378,1.7378,1.7378,1.7378,1.7378,1.7378,1.7378,1.7326,1.7227,1.7326,1.7326,1.7227,1.7326,1.7378,0.8564,0.9315,1.0093,1.0753,1.1728,1.2539,1.2572,1.2796,1.2922,1.2638,1.2585,1.2506,1.2223,1.2177,1.2334,1.2321,1.2645,1.3014,1.3027,1.3508,1.3871,1.3878,1.3878,1.3996,1.4286,1.4319,1.4557,1.5117,1.517,1.5308,1.5598,1.5625,1.5625,1.5625,1.5625,1.5457,1.5496,1.5503,1.5535,1.5399,1.0381,0.8028,0.7872,0.2545,0.3124,0.8198,1.3333,1.5529,1.5529,1.5503,1.5496,1.5496,1.5496,1.547,1.5631,1.5483,1.547,1.5625,1.5625,1.5625,1.5625,1.5625,1.5625,1.5625,1.5625,1.5625,1.5625,1.5625,1.5625,1.5691,1.5987,1.606,1.6132,1.6409,1.6693,1.691,1.6917,1.7154,1.7358,1.7358,1.7365,1.7378,1.7378,1.7378,1.7378,1.7378,1.7378,1.7378,1.7378,1.7378,1.7378,1.7378,1.7378,1.7378,1.7378,1.7378,1.7372,1.7358,1.7358,1.7358,1.7345,1.7345,1.7345,1.7345,1.7345,1.7207,1.6917,1.7207,1.72,1.6923,1.7213,1.7345,0.9784,0.9493,0.9526,1.159,1.1722,1.1557,1.2394,1.2493,1.244,1.2559,1.275,1.275,1.2256,1.2335,1.2401,1.2354,1.2473,1.2777,1.2994,1.3344,1.3653,1.3858,1.3878,1.3911,1.3996,1.4201,1.4392,1.455,1.4946,1.5216,1.5302,1.5513,1.5625,1.5625,1.5464,1.5483,1.5496,1.5548,1.5568,1.5548,1.4165,1.3373,1.3166,0.8014,0.8397,1.3511,1.4907,1.549,1.5457,1.5644,1.5644,1.5644,1.5644,1.5638,1.5625,1.5638,1.5638,1.5625,1.5625,1.5625,1.5625,1.5625,1.5625,1.5625,1.5625,1.5625,1.5625,1.5625,1.5625,1.5651,1.573,1.575,1.5822,1.6119,1.6251,1.637,1.6567,1.6844,1.7055,1.7055,1.7227,1.7378,1.7378,1.7378,1.7378,1.7378,1.7378,1.7378,1.7378,1.7378,1.7378,1.7378,1.7378,1.7378,1.7378,1.7378,1.7286,1.7068,1.7055,1.6956,1.6739,1.6732,1.6732,1.6732,1.6732,1.6693,1.6614,1.6693,1.6686,1.6614,1.6693,1.6732,0.8518,0.8373,0.8498,1.0021,1.0265,1.0436,1.1603,1.1827,1.1946,1.2473,1.2816,1.2882,1.2427,1.2473,1.2526,1.2368,1.2473,1.2645,1.2816,1.3205,1.3528,1.3686,1.3706,1.3752,1.3871,1.4036,1.4194,1.4319,1.4636,1.488,1.5005,1.5176,1.5321,1.544,1.5466,1.5347,1.547,1.5529,1.5548,1.5516,1.5548,1.5548,1.5529,1.2318,1.2706,1.5496,1.5477,1.5457,1.5625,1.5625,1.5625,1.5625,1.5625,1.5625,1.5625,1.5625,1.5625,1.5625,1.5625,1.5625,1.5625,1.5625,1.5625,1.5625,1.5625,1.5625,1.5625,1.5625,1.5625,1.5625,1.5625,1.5625,1.5671,1.5849,1.5981,1.6119,1.6284,1.6541,1.6745,1.6745,1.6884,1.7042,1.7167,1.7194,1.7148,1.7022,1.7002,1.7002,1.7002,1.7002,1.7002,1.7002,1.7002,1.7002,1.7002,1.7002,1.693,1.6759,1.6745,1.6666,1.6495,1.6488,1.6488,1.6488,1.6488,1.6429,1.6317,1.6436,1.6429,1.6317,1.6436,1.6231,0.6223,0.6632,0.7338,0.7404,0.8129,0.9137,0.0,1.0786,1.1214,1.2025,1.2454,1.2605,1.2335,1.2394,1.2473,1.244,1.2513,1.2579,1.2579,1.3034,1.337,1.337,1.3403,1.3528,1.3805,1.3831,1.3957,1.4253,1.4306,1.4445,1.4708,1.4754,1.4886,1.513,1.5137,1.5269,1.5532,1.5611,1.5457,1.5644,1.5483,1.5503,1.5516,1.5457,1.5644,1.549,1.5644,1.5625,1.5625,1.5625,1.5625,1.5625,1.5625,1.5625,1.5625,1.5625,1.5625,1.5625,1.5625,1.5625,1.5625,1.5625,1.5625,1.5625,1.5625,1.5625,1.5625,1.5625,1.5625,1.5625,1.5625,1.5625,1.5625,1.5625,1.5829,1.6027,1.6027,1.6244,1.6442,1.6442,1.6468,1.6574,1.6838,1.6877,1.6792,1.6528,1.6488,1.6488,1.6488,1.6488,1.6488,1.6488,1.6488,1.6488,1.6488,1.6488,1.6475,1.6442,1.6442,1.6429,1.6389,1.6389,1.6389,1.6389,1.6356,1.6218,1.5974,1.6192,1.6172,1.5934,1.6185,1.575,0.0,0.0,0.0,0.0,0.0,0.0,0.0,0.8979,0.9296,0.9704,1.0205,1.0548,1.0489,1.1254,1.1807,1.157,1.2124,1.2579,1.2579,1.2678,1.2757,1.2757,1.2968,1.3225,1.3522,1.3548,1.3667,1.3943,1.4187,1.4352,1.4412,1.4642,1.4794,1.4853,1.4873,1.5097,1.515,1.5444,1.5571,1.5538,1.5578,1.5483,1.5644,1.5631,1.5631,1.5638,1.5631,1.5625,1.5625,1.5625,1.5625,1.5625,1.5625,1.5625,1.5625,1.5625,1.5625,1.5625,1.5625,1.5625,1.5625,1.5625,1.5625,1.5625,1.5625,1.5625,1.5625,1.5625,1.5625,1.5625,1.5625,1.5625,1.5625,1.5625,1.5671,1.571,1.571,1.5948,1.6159,1.6159,1.6337,1.6501,1.6561,1.6574,1.6554,1.6495,1.6488,1.6488,1.6488,1.6488,1.6488,1.6488,1.6488,1.6488,1.6488,1.6488,1.6389,1.6172,1.6159,1.6047,1.5803,1.5796,1.5796,1.5796,1.5559,1.5407,1.5354,1.5189,1.5077,1.5025,1.5084,1.4985,0.0,0.0,0.0,0.0,0.0,0.0,0.0,0.0,0.0,0.0,0.0,0.9764,0.9764,0.0,1.1498,1.1498,1.2104,1.2579,1.2579,1.2704,1.2763,1.2808,1.2895,1.2928,1.3238,1.3251,1.3363,1.3653,1.3812,1.3963,1.4095,1.4247,1.4392,1.455,1.4563,1.4823,1.4794,1.4972,1.5044,1.5204,1.5176,1.5236,1.5203,1.5341,1.5407,1.5414,1.5565,1.5625,1.5625,1.5625,1.5625,1.5598,1.5315,1.5203,1.5203,1.5203,1.5203,1.5203,1.5203,1.5203,1.5203,1.5203,1.5203,1.5203,1.5203,1.5295,1.5407,1.5407,1.5513,1.5625,1.5625,1.5625,1.5625,1.5625,1.5625,1.5625,1.5625,1.5743,1.5849,1.5849,1.5967,1.6106,1.6258,1.6159,1.606,1.606,1.606,1.606,1.606,1.606,1.5948,1.5658,1.602,1.6106,1.5671,1.6033,1.6159,1.5869,1.5849,1.5717,1.542,1.5407,1.5341,1.5203,1.5051,1.4979,1.4979,1.484,1.4774,1.4761,1.4326,1.4042,0.0,0.0,0.0,0.0,0.0,0.0,0.0,0.0,0.0,0.0,0.0,0.0,0.0,0.0,0.0,1.124,1.1926,1.2434,1.2654,1.2321,1.2307,1.2935,1.2868,1.2777,1.3202,1.3047,1.3133,1.3377,1.339,1.3489,1.3706,1.3772,1.3917,1.4336,1.4227,1.4372,1.4616,1.452,1.4735,1.4708,1.497,0.0,1.4781,1.5011,1.511,1.5117,1.5354,1.546,1.546,1.546,1.546,1.5414,1.4952,1.4774,1.4774,1.4774,1.4774,1.4774,1.4774,1.4774,1.4774,1.4774,1.4774,1.4774,1.4774,1.4926,0.0,1.5104,1.5275,1.546,1.546,1.5499,1.5539,1.5539,1.5585,1.5625,1.5625,1.5625,1.5625,1.5625,1.5625,1.5704,1.5948,1.5697,1.542,1.5308,1.5288,1.5288,1.5288,1.5394,1.5288,1.482,1.5506,1.5704,1.4998,1.548,1.577,1.5631,1.5473,1.5242,1.4946,1.4932,1.4774,1.4438,1.4326,1.4352,1.4517,1.4405,1.4412,1.4497,1.3508,1.3014,0.0,0.0,0.0,0.0,0.0,0.0,0.0,0.0,0.0,0.0,0.0,0.0,0.0,0.0,0.0,0.0,1.0937,1.2067,1.2676,1.0465,0.9752,1.2666,1.2853,1.2879,1.3222,1.3222,1.3235,1.3268,1.3275,1.3282,1.3315,1.3383,0.0,0.0,0.0,1.3862,1.3895,1.4926,1.5249,1.4836,1.4741,1.4833,1.4774,1.5017,1.484,1.482,1.4853,1.4866,1.4866,1.4866,1.4866,1.486,1.4794,1.4774,1.4774,1.4774,1.4774,1.4774,1.4774,0.0,0.0,1.4774,1.4774,1.4774,1.4774,1.4794,1.482,1.482,1.4847,1.4866,1.4866,1.5051,1.5236,1.5236,1.5433,1.5625,1.5625,1.5625,1.5625,1.5625,1.5625,1.5638,1.5671,1.5229,1.4688,1.4154,1.4075,1.4075,1.4075,1.4543,1.4847,1.4781,1.5315,0.0,1.5539,1.5157,1.5124,1.5598,1.4906,1.4339,1.4036,1.4029,1.3772,1.3231,1.2724,1.2843,1.3614,1.3086,1.31,1.3581,1.2354,1.1811,0.0,0.0,0.0,0.0,0.0,0.0,0.0,0.0,0.0,0.0,0.0,0.0,0.0,0.0,0.0,0.0,1.0496,1.1214,1.1188,1.0489,1.0685,1.2308,1.2658,1.2869,1.308,1.1611,1.0761,1.0894,1.2263,1.3081,1.3093,1.0863,1.0906,1.3415,1.3741,1.2864,1.0922,1.071,1.0476,1.0224,1.3023,1.2882,1.033,1.3204,1.4563,1.4563,1.4708,1.4774,1.4774,1.4774,1.4774,1.4721,0.0,0.0,0.0,0.0,1.3759,1.3759,1.3759,1.3759,1.3785,1.3957,1.4016,1.4042,1.4207,1.4372,1.451,1.451,1.4642,1.4774,1.4774,1.486,1.4946,1.4946,1.5038,1.513,1.513,1.513,1.513,1.513,1.5255,0.0,1.5157,1.4932,1.4688,1.4438,1.4537,1.4636,1.4636,1.5005,1.5143,1.4807,1.544,1.5684,1.517,1.5374,0.0,0.0,0.0,1.4695,1.4412,1.4062,0.0,0.0,0.0,1.2427,1.2948,1.219,0.0,0.0,1.0801,0.9348,0.0,0.0,0.0,0.0,0.0,0.0,0.0,0.0,0.0,0.0,0.0,0.0,0.0,0.0,0.0,0.0,0.9769,1.0292,0.9814,1.0493,1.1232,1.2158,1.1862,1.2041,1.3048,1.1154,0.9927,1.0091,1.1771,1.1888,0.9557,0.7964,0.8939,1.3302,1.341,1.1043,0.6319,0.5503,0.6395,0.8888,0.9591,0.8922,0.7233,1.1936,1.4214,1.428,1.4464,1.4537,1.453,1.453,1.453,1.4451,1.3653,1.335,1.333,1.3106,1.3027,1.3027,1.3027,1.3027,1.306,1.3278,1.3344,1.3383,1.3587,1.3798,1.397,1.397,1.4181,1.4418,1.4418,1.453,1.4649,1.4649,1.4715,1.4774,1.4774,1.4774,1.4774,1.4774,1.4866,1.486,1.4576,1.453,1.4504,1.4425,1.4517,1.459,1.459,1.4913,1.4985,1.457,1.5242,1.546,1.4827,1.5203,1.5361,1.5091,1.4847,1.4655,1.453,1.3878,1.3429,1.3231,1.2447,1.2262,0.0,0.0,0.0,0.0,0.0,0.0,0.0,0.0,0.0,0.0,0.0,0.0,0.0,0.0,0.0,0.0,0.0,0.0,0.0,0.0,0.0,0.0,0.0,0.0,0.9474,0.9825,1.0514,1.2084,1.0292,1.0188,1.3528,1.3284,1.2626,1.215,1.215,0.8751,0.079,0.4669,0.9055,1.371,1.284,0.8505,0.0326,0.0164,0.475,1.3525,0.4591,0.2814,0.708,1.1717,1.3759,1.3784,1.379,1.3771,1.3904,1.3904,1.3904,1.3851,1.3264,1.3053,1.3235,1.3034,1.3027,1.3027,1.3027,1.3027,1.3027,1.3034,1.304,1.304,1.3047,1.306,1.3067,1.3067,1.3278,1.3508,1.3508,1.3924,1.4346,1.4346,1.4563,1.4774,1.4774,1.4774,1.4774,1.4774,1.455,1.426,1.3957,1.3904,1.3818,1.3548,1.3271,0.0,1.3093,1.3587,1.393,1.3911,1.4451,1.4801,1.4774,1.4267,1.4187,1.4748,1.399,1.3634,1.3897,1.308,1.2618,1.2605,1.2032,1.2157,1.3007,0.0,0.0,0.0,0.0,0.0,0.0,0.0,0.0,0.0,0.0,0.0,0.0,0.0,0.0,0.0,0.0,0.0,0.0,0.0,0.0,0.0,0.0,0.0,0.0,0.9191,0.9971,1.0235,1.0227,1.0844,1.2533,1.216,1.0283,0.6691,1.0002,0.863,0.0474,0.1453,0.5503,1.2586,0.7178,0.2875,0.0,0.0,0.1613,0.458,0.1473,0.0821,0.2643,1.0285,1.3866,1.3768,1.3755,1.3741,1.3728,1.3522,1.3357,1.3,0.9668,1.0045,1.2618,1.2579,1.2493,1.2487,1.25,1.2493,1.2513,1.2868,1.2935,1.2968,1.2827,1.3034,1.3027,1.3208,1.3119,1.3022,1.3179,1.333,1.3655,1.3469,1.3541,1.3614,1.3614,1.3765,1.3911,1.3911,1.3667,1.3555,1.3831,1.3726,1.3706,1.3996,1.3957,1.3891,1.3891,1.4234,1.4471,1.4471,1.4655,1.4774,1.4774,1.459,1.4471,1.4477,1.4016,1.3785,1.3878,1.3231,1.2968,1.3166,1.2981,1.2361,1.1293,0.0,0.0,0.0,0.0,0.0,0.0,0.0,0.0,0.0,0.0,0.0,0.0,0.0,0.0,0.0,0.0,0.0,0.0,0.0,0.0,0.0,0.0,0.0,0.0,0.0,0.0,0.9913,1.0499,0.0,1.1313,1.0228,0.8832,0.6791,0.7422,0.5637,0.0304,0.0,0.2348,0.7765,0.2689,0.0,0.0,0.0,0.0,0.0,0.0,0.0,0.0162,0.6146,1.0748,1.383,1.3817,1.2801,1.1441,1.2391,1.1124,0.8331,0.7968,0.8913,1.0517,1.0385,1.0379,1.0563,1.1805,1.1267,1.0013,1.0329,1.1451,1.2651,1.2625,1.1577,1.0823,1.2354,1.284,1.2605,1.1152,1.2016,1.308,1.3067,1.306,1.3053,1.304,1.3192,1.335,1.3296,1.3244,1.3071,1.3548,1.37,1.3812,1.3858,1.4036,1.4168,1.4168,1.4253,1.4346,1.4445,1.4451,1.4451,1.4451,1.4451,1.4332,1.4042,1.393,1.3785,1.3581,1.3324,1.3172,1.3152,1.2843,1.1992,0.0,0.0,0.0,0.0,0.0,0.0,0.0,0.0,0.0,0.0,0.0,0.0,0.0,0.0,0.0,0.0,0.0,0.0,0.0,0.0,0.0,0.0,0.0,0.0,0.0,0.0,0.0,1.0748,1.0978,0.0,0.0,0.0,0.0,1.1419,0.4367,0.0,0.0,0.0,0.0,0.0,0.0,0.0,0.0,0.0,0.0,0.0,0.0,0.0,0.0,0.0,0.4792,1.3119,1.3119,1.0614,0.696,1.0247,0.7038,0.0729,0.8109,0.9697,0.7593,0.7126,0.6965,0.7478,1.0886,0.9362,0.5973,0.5973,0.8771,1.2016,1.1946,0.9347,0.0,0.0,1.2329,1.1715,0.7894,0.9897,1.2911,1.2782,1.2626,1.2782,1.2905,1.3073,1.3146,1.2848,1.2958,1.2977,1.2859,0.0,1.395,1.3152,1.3469,1.3805,1.3851,1.3614,1.3548,1.3825,1.3858,1.3858,1.3858,1.3858,1.3746,1.3489,1.37,1.3607,1.3086,1.3297,1.3146,1.2552,1.1676,0.0,0.0,0.0,0.0,0.0,0.0,0.0,0.0,0.0,0.0,0.0,0.0,0.0,0.0,0.0,0.0,0.0,0.0,0.0,0.0,0.0,0.0,0.0,0.0,0.0,0.0,0.8328,1.0293,1.0553,1.0174,0.8632,0.0,0.0,0.0,0.0,0.0,0.0,0.0,0.0,0.0,0.0,0.0,0.0,0.0,0.0,0.0,0.0,0.0,0.0,0.0,0.0,0.1236,0.3574,0.3574,0.2795,0.1851,0.283,0.1922,0.0692,0.7838,0.9489,0.77,0.7562,0.7084,0.6715,0.7944,0.6536,0.4418,0.5572,0.6688,0.7762,0.8914,0.0,0.0,0.0,0.0,0.5958,0.6179,0.928,1.1711,0.8546,0.7826,0.7822,0.7818,1.0589,1.197,0.8589,1.0621,1.2177,0.9501,1.0897,0.0,1.3908,1.3285,1.2843,1.3489,1.3317,1.3251,1.3541,1.3574,1.3574,1.3574,1.3574,1.3541,1.3469,1.3324,1.337,1.3647,1.3113,1.2533,1.1952,0.0,0.0,0.0,0.0,0.0,0.0,0.0,0.0,0.0,0.0,0.0,0.0,0.0,0.0,0.0,0.0,0.0,0.0,0.0,0.0,0.0,0.0,0.0,0.0,0.0,0.0,0.0,0.9246,1.0032,0.8674,0.6615,0.445,0.0,0.0,0.0,0.0,0.0,0.0,0.0,0.0,0.0,0.0,0.0,0.0,0.0,0.0,0.0,0.0,0.0,0.0,0.0,0.0,0.0,0.0,0.0,0.0,0.0,0.0,0.1821,0.4876,0.0,0.0,0.0,0.0,0.71,0.6681,0.6875,0.4791,0.266,0.7306,0.0,0.0,0.0,0.0,0.0,0.0,0.0,0.224,0.3173,0.5112,0.635,0.3922,0.3323,0.4445,0.8035,0.7976,0.7131,0.6548,0.8529,0.9587,0.6903,1.0326,0.0,0.0,0.0,1.2836,1.3201,1.3162,1.2944,1.3258,1.3271,1.3271,1.3271,1.3271,1.3271,1.3271,1.3238,1.3245,1.3311,1.2599,1.1807,0.0,0.0,0.0,0.0,0.0,0.0,0.0,0.0,0.0,0.0,0.0,0.0,0.0,0.0,0.0,0.0,0.0,0.0,0.0,0.0,0.0,0.0,0.0,0.0,0.0,0.0,0.0,0.0,0.0,0.8181,0.5514,0.0,0.0,0.0,0.0,0.0,0.0,0.0,0.0,0.0,0.0,0.0,0.0,0.0,0.0,0.0,0.0,0.0,0.0,0.0,0.0,0.0,0.0,0.0,0.0,0.0,0.0,0.013,0.1013,0.0,0.0,0.0,0.0,0.0,0.0,0.0,0.0,0.0,0.0,0.0,0.0,0.0,0.0,0.0,0.0,0.0,0.0,0.0,0.0,0.0,0.0,0.0,0.0,0.0,0.1983,0.903,0.5459,0.2159,0.6239,0.6862,0.6264,0.0,0.0,0.0,0.0,0.0,0.0,1.2321,1.2508,1.2853,1.2981,1.2968,1.2981,1.3021,1.3027,1.304,1.308,1.3179,1.3007,1.2487,1.1913,0.0,0.0,0.0,0.0,0.0,0.0,0.0,0.0,0.0,0.0,0.0,0.0,0.0,0.0,0.0,0.0,0.0,0.0,0.0,0.0,0.0,0.0,0.0,0.0,0.0,0.0,0.0,0.0,0.0,0.0,0.0,0.0,0.0,0.0,0.0,0.0,0.0,0.0,0.0,0.0,0.0,0.0,0.0,0.0,0.0,0.0,0.0,0.0,0.0,0.0,0.0,0.0,0.0,0.0,0.0,0.0,0.0,0.0,0.0499,0.6244,0.0,0.0,0.0,0.0,0.0,0.0,0.0,0.0,0.0,0.0,0.0,0.0,0.0,0.0,0.0,0.0,0.0,0.0,0.0,0.0,0.0,0.0,0.0,0.0,0.0,0.0441,0.1772,0.0,0.0,0.0,0.0,0.0,0.0,0.0,0.0,0.0,0.0,0.0,0.7316,1.0171,1.2402,1.2875,1.2841,1.2757,1.3007,1.3027,1.3133,1.3377,1.2533,1.1979,0.0,0.0,0.0,0.0,0.0,0.0,0.0,0.0,0.0,0.0,0.0,0.0,0.0,0.0,0.0,0.0,0.0,0.0,0.0,0.0,0.0,0.0,0.0,0.0,0.0,0.0,0.0,0.0,0.0,0.0,0.0,0.0,0.0,0.0,0.0,0.0,0.0,0.0,0.0,0.0,0.0,0.0,0.0,0.0,0.0,0.0,0.0,0.0,0.0,0.0,0.0,0.0,0.0,0.0,0.0,0.0,0.0,0.0,0.0,0.0,0.0,0.0,0.0,0.0,0.0,0.0,0.0,0.0,0.0,0.0,0.0,0.0,0.0,0.0,0.0,0.0,0.0,0.0,0.0,0.0,0.0,0.0,0.0,0.0,0.0,0.0,0.0,0.0,0.0,0.0,0.0,0.0,0.0,0.0,0.0,0.0,0.0,0.0,0.0,0.0,0.8972,0.9183,0.9874,1.22,1.2605,1.2638,1.2783,1.279,1.2724,1.2572,1.2032,0.0,0.0,0.0,0.0,0.0,0.0,0.0,0.0,0.0,0.0,0.0,0.0,0.0,0.0,0.0,0.0,0.0,0.0,0.0,0.0,0.0,0.0,0.0,0.0,0.0,0.0,0.0,0.0,0.0,0.0,0.0,0.0,0.0,0.0,0.0,0.0,0.0,0.0,0.0,0.0,0.0,0.0,0.0,0.0,0.0,0.0,0.0,0.0,0.0,0.0,0.0,0.0,0.0,0.0,0.0,0.0,0.0,0.0,0.0,0.0,0.0,0.0,0.0,0.0,0.0,0.0,0.0,0.0,0.0,0.0,0.0,0.0,0.0,0.0,0.0,0.0,0.0,0.0,0.0,0.0,0.0,0.0,0.0,0.0,0.0,0.0,0.0,0.0,0.0,0.0,0.0,0.0,0.0,0.0,0.0,0.0,0.0,0.0,0.0,0.0,0.0,1.0522,0.8888,0.8621,1.2069,1.2514,1.2684,1.2678,1.2737,1.25,1.1854,1.1524,0.0,0.0,0.0,0.0,0.0,0.0,0.0,0.0,0.0,0.0,0.0,0.0,0.0,0.0,0.0,0.0,0.0,0.0,0.0,0.0,0.0,0.0,0.0,0.0,0.0,0.0,0.0,0.0,0.0,0.0,0.0,0.0,0.0,0.0,0.0,0.0,0.0,0.0,0.0,0.0,0.0,0.0,0.0,0.0,0.0,0.0,0.0,0.0,0.0,0.0,0.0,0.0,0.0,0.0,0.0,0.0,0.0,0.0,0.0,0.0,0.0,0.0,0.0,0.0,0.0,0.0,0.0,0.0,0.0,0.0,0.0,0.0,0.0,0.0,0.0,0.0,0.0,0.0,0.0,0.0,0.0,0.0,0.0,0.0,0.0,0.0,0.0,0.0,0.0,0.0,0.0,0.0,0.0,0.0,0.0,0.0,0.0,0.0,0.0,0.0,0.0,0.6929,0.9991,1.2009,1.2908,1.2895,1.2859,1.2988,1.3231,1.3027,1.2183,0.0,0.0,0.0,0.0,0.0,0.0,0.0,0.0,0.0,0.0,0.0,0.0,0.0,0.0,0.0,0.0,0.0,0.0,0.0,0.0,0.0,0.0,0.0,0.0,0.0,0.0,0.0,0.0,0.0,0.0,0.0,0.0,0.0,0.0,0.0,0.0,0.0,0.0,0.0,0.0,0.0,0.0,0.0,0.0,0.0,0.0,0.0,0.0,0.0,0.0,0.0,0.0,0.0,0.0,0.0,0.0,0.0,0.0,0.0,0.0,0.0,0.0,0.0,0.0,0.0,0.0,0.0,0.0,0.0,0.0,0.0,0.0,0.0,0.0,0.0,0.0,0.0,0.0,0.0,0.0,0.0,0.0,0.0,0.0,0.0,0.0,0.0,0.0,0.0,0.0,0.0,0.0,0.0,0.0,0.0,0.0,0.0,0.0,0.0,0.0,0.0,0.0,0.6769,1.0619,1.2994,1.2589,1.2791,1.3159,1.3146,1.3245,1.2605,1.1346,0.0,0.0,0.0,0.0,0.0,0.0,0.0,0.0,0.0,0.0,0.0,0.0,0.0,0.0,0.0,0.0,0.0,0.0,0.0,0.0,0.0,0.0,0.0,0.0,0.0,0.0,0.0,0.0,0.0,0.0,0.0,0.0,0.0,0.0,0.0,0.0,0.0,0.0,0.0,0.0,0.0,0.0,0.0,0.0,0.0,0.0,0.0,0.0,0.0,0.0,0.0,0.0,0.0,0.0,0.0,0.0,0.0,0.0,0.0,0.0,0.0,0.0,0.0,0.0,0.0,0.0,0.0,0.0,0.0,0.0,0.0,0.0,0.0,0.0,0.0,0.0,0.0,0.0,0.0,0.0,0.0,0.0,0.0,0.0,0.0,0.0,0.0,0.0,0.0,0.0,0.0,0.0,0.0,0.0,0.0,0.0,0.0,0.0,0.0,0.0,0.0,0.0,0.5063,0.7761,1.0317,1.2116,1.1678,1.1845,1.3058,1.2846,1.2025,1.0278,0.0,0.0,0.0,0.0,0.0,0.0,0.0,0.0,0.0,0.0,0.0,0.0,0.0,0.0,0.0,0.0,0.0,0.0,0.0,0.0,0.0,0.0,0.0,0.0,0.0,0.0,0.0,0.0,0.0,0.0,0.0,0.0,0.0,0.0,0.0,0.0,0.0,0.0,0.0,0.0,0.0,0.0,0.0,0.0,0.0,0.0,0.0,0.0,0.0,0.0,0.0,0.0,0.0,0.0,0.0,0.0,0.0,0.0,0.0,0.0,0.0,0.0,0.0,0.0,0.0,0.0,0.0,0.0,0.0,0.0,0.0,0.0,0.0,0.0,0.0,0.0,0.0,0.0,0.0,0.0,0.0,0.0,0.0,0.0,0.0,0.0,0.0,0.0,0.0,0.0,0.0,0.0,0.0,0.0,0.0,0.0,0.0,0.0,0.0,0.0,0.0,0.0,0.0716,0.0149,0.3186,1.1359,0.9166,0.8705,1.2476,1.2533,1.1432,0.0,0.0,0.0,0.0,0.0,0.0,0.0,0.0,0.0,0.0,0.0,0.0,0.0,0.0,0.0,0.0,0.0,0.0,0.0,0.0,0.0,0.0,0.0,0.0,0.0,0.0,0.0,0.0,0.0,0.0,0.0,0.0,0.0,0.0,0.0,0.0,0.0,0.0,0.0,0.0,0.0,0.0,0.0,0.0,0.0,0.0,0.0,0.0,0.0,0.0,0.0,0.0,0.0,0.0,0.0,0.0,0.0,0.0,0.0,0.0,0.0,0.0,0.0,0.0,0.0,0.0,0.0,0.0,0.0,0.0,0.0,0.0,0.0,0.0,0.0,0.0,0.0,0.0,0.0,0.0,0.0,0.0,0.0,0.0,0.0,0.0,0.0,0.0,0.0,0.0,0.0,0.0,0.0,0.0,0.0,0.0,0.0,0.0,0.0,0.0,0.0,0.0,0.0,0.0236,0.0,0.0922,0.3577,0.5781,0.8773,1.3133,1.2868,1.1623,0.9685,0.0,0.0,0.0,0.0,0.0,0.0,0.0,0.0,0.0,0.0,0.0,0.0,0.0,0.0,0.0,0.0,0.0,0.0,0.0,0.0,0.0,0.0,0.0,0.0,0.0,0.0,0.0,0.0,0.0,0.0,0.0,0.0,0.0,0.0,0.0,0.0,0.0,0.0,0.0,0.0,0.0,0.0,0.0,0.0,0.0,0.0,0.0,0.0,0.0,0.0,0.0,0.0,0.0,0.0,0.0,0.0,0.0,0.0,0.0,0.0,0.0,0.0,0.0,0.0,0.0,0.0,0.0,0.0,0.0,0.0,0.0,0.0,0.0,0.0,0.0,0.0,0.0,0.0,0.0,0.0,0.0,0.0,0.0,0.0,0.0,0.0,0.0,0.0,0.0,0.0,0.0,0.0,0.0,0.0,0.0,0.0,0.0,0.0,0.0,0.0,0.0,0.0,0.0,0.0,0.0598,0.2081,0.5512,0.9101,1.2955,1.2481,1.1161,0.9342,0.0,0.0,0.0,0.0,0.0,0.0,0.0,0.0,0.0,0.0,0.0,0.0,0.0,0.0,0.0,0.0,0.0,0.0,0.0,0.0,0.0,0.0,0.0,0.0,0.0,0.0,0.0,0.0,0.0,0.0,0.0,0.0,0.0,0.0,0.0,0.0,0.0,0.0,0.0,0.0,0.0,0.0,0.0,0.0,0.0,0.0,0.0,0.0,0.0,0.0,0.0,0.0,0.0,0.0,0.0,0.0,0.0,0.0,0.0,0.0,0.0,0.0,0.0,0.0,0.0,0.0,0.0,0.0,0.0,0.0,0.0,0.0,0.0,0.0,0.0,0.0,0.0,0.0,0.0,0.0,0.0,0.0,0.0,0.0,0.0,0.0,0.0,0.0,0.0,0.0,0.0,0.0,0.0,0.0,0.0,0.0,0.0,0.0,0.0,0.0,0.0,0.0,0.0,0.0533,0.2284,0.6104,0.8002,0.9808,1.2,1.1433,1.0278,0.8877,0.7448,0.0,0.0,0.0,0.0,0.0,0.0,0.0,0.0,0.0,0.0,0.0,0.0,0.0,0.0,0.0,0.0,0.0,0.0,0.0,0.0,0.0,0.0,0.0,0.0,0.0,0.0,0.0,0.0,0.0,0.0,0.0,0.0,0.0,0.0,0.0,0.0,0.0,0.0,0.0,0.0,0.0,0.0,0.0,0.0,0.0,0.0,0.0,0.0,0.0,0.0,0.0,0.0,0.0,0.0,0.0,0.0,0.0,0.0,0.0,0.0,0.0,0.0,0.0,0.0,0.0,0.0,0.0,0.0,0.0,0.0,0.0,0.0,0.0,0.0,0.0,0.0,0.0,0.0,0.0,0.0,0.0,0.0,0.0,0.0,0.0,0.0,0.0,0.0,0.0,0.0,0.0,0.0,0.0,0.0,0.0,0.0,0.0,0.0,0.0,0.0,0.0,0.0,0.5491,0.973,1.0725,1.1142,1.1596,1.2156,1.1821,1.0706,0.8903,0.7822,0.0,0.0,0.0,0.0,0.0,0.0,0.0,0.0,0.0,0.0,0.0,0.0,0.0,0.0,0.0,0.0,0.0,0.0,0.0,0.0,0.0,0.0,0.0,0.0,0.0,0.0,0.0,0.0,0.0,0.0,0.0,0.0,0.0,0.0,0.0,0.0,0.0,0.0,0.0,0.0,0.0,0.0,0.0,0.0,0.0,0.0,0.0,0.0,0.0,0.0,0.0,0.0,0.0,0.0,0.0,0.0,0.0,0.0,0.0,0.0,0.0,0.0,0.0,0.0,0.0,0.0,0.0,0.0,0.0,0.0,0.0,0.0,0.0,0.0,0.0,0.0,0.0,0.0,0.0,0.0,0.0,0.0,0.0,0.0,0.0,0.0,0.0,0.0,0.0,0.0,0.0,0.0,0.0,0.0,0.0,0.0,0.0,0.0,0.0,0.0,0.0,0.0,0.9519,1.2259,1.2181,1.2294,1.2144,1.1999,1.1695,1.0647,0.861,0.7667,0.0,0.0,0.0,0.0,0.0,0.0,0.0,0.0,0.0,0.0,0.0,0.0,0.0,0.0,0.0,0.0,0.0,0.0,0.0,0.0,0.0,0.0,0.0,0.0,0.0,0.0,0.0,0.0,0.0,0.0,0.0,0.0,0.0,0.0,0.0,0.0,0.0,0.0,0.0,0.0,0.0,0.0,0.0,0.0,0.0,0.0,0.0,0.0,0.0,0.0,0.0,0.0,0.0,0.0,0.0,0.0,0.0,0.0,0.0,0.0,0.0,0.0,0.0,0.0,0.0,0.0,0.0,0.0,0.0,0.0,0.0,0.0,0.0,0.0,0.0,0.0,0.0,0.0,0.0,0.0,0.0,0.0,0.0,0.0,0.0,0.0,0.0,0.0,0.0,0.0,0.0,0.0,0.0,0.0,0.0,0.0,0.0,0.0,0.0,0.0,0.0,0.0,0.0,1.2261,1.2227,1.2266,1.1959,1.1676,1.1386,1.037,0.8282,0.0,0.0,0.0,0.0,0.0,0.0,0.0,0.0,0.0,0.0,0.0,0.0,0.0,0.0,0.0,0.0,0.0,0.0,0.0,0.0,0.0,0.0,0.0,0.0,0.0,0.0,0.0,0.0,0.0,0.0,0.0,0.0,0.0,0.0,0.0,0.0,0.0,0.0,0.0,0.0,0.0,0.0,0.0,0.0,0.0,0.0,0.0,0.0,0.0,0.0,0.0,0.0,0.0,0.0,0.0,0.0,0.0,0.0,0.0,0.0,0.0,0.0,0.0,0.0,0.0,0.0,0.0,0.0,0.0,0.0,0.0,0.0,0.0,0.0,0.0,0.0,0.0,0.0,0.0,0.0,0.0,0.0,0.0,0.0,0.0,0.0,0.0,0.0,0.0,0.0,0.0,0.0,0.0,0.0,0.0,0.0,0.0,0.0,0.0,0.0,0.0,0.0,0.0,0.0,1.2216,1.2188,1.1975,1.1708,1.1353,1.1089,1.0166,0.8269,0.0,0.0,0.0,0.0,0.0,0.0,0.0,0.0,0.0,0.0,0.0,0.0,0.0,0.0]}]]]